[[{"header":{"parameterUnit":"m.s-1","parameterCategory":1,"la1":31.0,"la2":29.5877,"lo1":-88.7671,"lo2":-86.6584,"dy":0.0162,"dx":0.0185,"nx":115,"ny":88,"refTime":"2026-03-24T00:00:00:Z","depth":0,"parameterNumber":2,"parameterNumberName":"U-component_of_WINDS"},"data":[0.0,0.0,0.0,0.0,0.0,0.0,0.0,0.0,0.0,0.0,0.0,0.0,0.0,0.0,0.0,0.0,0.0,0.0,0.0,0.0,0.0,0.0,0.0,0.0,0.0,0.0,0.0,0.0,0.0,0.0,0.0,0.0,0.0,0.0,0.0,0.0,0.0,0.0,0.0,0.0,0.0,0.0,0.0,0.0,0.0,0.0,0.0,0.0,0.0,0.0,0.0,0.0,0.0,0.0,0.0,0.0,0.0,0.0,0.0,0.0,0.0,0.0,0.0,0.0,0.0,0.0,0.0,0.0,0.0,0.0,0.0,0.0,0.0,0.0,0.0,0.0,0.0,0.0,0.0,0.0,0.0,0.0,0.0,0.0,0.0,0.0,0.0,0.0,0.0,0.0,0.0,0.0,0.0,0.0,0.0,0.0,0.0,0.0,0.0,0.0,0.0,0.0,0.0,0.0,0.0,0.0,0.0,0.0,0.0,0.0,0.0,0.0,0.0,0.0,0.0,0.0,0.0,0.0,0.0,0.0,0.0,0.0,0.0,0.0,0.0,0.0,0.0,0.0,0.0,0.0,0.0,0.0,0.0,0.0,0.0,0.0,0.0,0.0,0.0,0.0,0.0,0.0,0.0,0.0,0.0,0.0,0.0,0.0,0.0,0.0,0.0,0.0,0.0,0.0,0.0,0.0,0.0,0.0,0.0,0.0,0.0,0.0,0.0,0.0,0.0,0.0,0.0,0.0,0.0,0.0,0.0,0.0,0.0,0.0,0.0,0.0,0.0,0.0,0.0,0.0,0.0,0.0,0.0,0.0,0.0,0.0,0.0,0.0,0.0,0.0,0.0,0.0,0.0,0.0,0.0,0.0,0.0,0.0,0.0,0.0,0.0,0.0,0.0,0.0,0.0,0.0,0.0,0.0,0.0,0.0,0.0,0.0,0.0,0.0,0.0,0.0,0.0,0.0,0.0,0.0,0.0,0.0,0.0,0.0,0.0,0.0,0.0,0.0,0.0,0.0,0.0,0.0,0.0,0.0,0.0,0.0,0.0,0.0,0.0,0.0,0.0,0.0,0.0,0.0,0.0,0.0,0.0,0.0,0.0,0.0,0.0,0.0,0.0,0.0,0.0,0.0,0.0,0.0,0.0,0.0,0.0,0.0,0.0,0.0,0.0,0.0,0.0,0.0,0.0,0.0,0.0,0.0,0.0,0.0,0.0,0.0,0.0,0.0,0.0,0.0,0.0,0.0,0.0,0.0,0.0,0.0,0.0,0.0,0.0,0.0,0.0,0.0,0.0,0.0,0.0,0.0,0.0,0.0,0.0,0.0,0.0,0.0,0.0,0.0,0.0,0.0,0.0,0.0,0.0,0.0,0.0,0.0,0.0,0.0,0.0,0.0,0.0,0.0,0.0,0.0,0.0,0.0,0.0,0.0,0.0,0.0,0.0,0.0,0.0,0.0,0.0,0.0,0.0,0.0,0.0,0.0,0.0,0.0,0.0,0.0,0.0,0.0,0.0,0.0,0.0,0.0,0.0,0.0,0.0,0.0,0.0,0.0,0.0,0.0,0.0,0.0,0.0,0.0,0.0,0.0,0.0,0.0,0.0,0.0,0.0,0.0,0.0,0.0,0.0,0.0,0.0,0.0,0.0,0.0,0.0,0.0,0.0,0.0,0.0,0.0,0.0,0.0,0.0,0.0,0.0,0.0,0.0,0.0,0.0,0.0,0.0,0.0,0.0,0.0,0.0,0.0,0.0,0.0,0.0,0.0,0.0,0.0,0.0,0.0,0.0,0.0,0.0,0.0,0.0,0.0,0.0,0.0,0.0,0.0,0.0,0.0,0.0,0.0,0.0,0.0,0.0,0.0,0.0,0.0,0.0,0.0,0.0,0.0,0.0,0.0,0.0,0.0,0.0,0.0,0.0,0.0,0.0,0.0,0.0,0.0,0.0,0.0,0.0,0.0,0.0,0.0,0.0,0.0,0.0,0.0,0.0,0.0,0.0,0.0,0.0,0.0,0.0,0.0,0.0,0.0,0.0,0.0,0.0,0.0,0.0,0.0,0.0,0.0,0.0,0.0,0.0,0.0,0.0,0.0,0.0,0.0,0.0,0.0,0.0,0.0,0.0,0.0,0.0,0.0,0.0,0.0,0.0,0.0,0.0,0.0,0.0,0.0,0.0,0.0,0.0,0.0,0.0,0.0,0.0,0.0,0.0,0.0,0.0,0.0,0.0,0.0,0.0,0.0,0.0,0.0,0.0,0.0,0.0,0.0,0.0,0.0,0.0,0.0,0.0,0.0,0.0,0.0,0.0,0.0,0.0,0.0,0.0,0.0,0.0,0.0,0.0,0.0,0.0,0.0,0.0,0.0,0.0,0.0,0.0,0.0,0.0,0.0,0.0,0.0,0.0,0.0,0.0,0.0,0.0,0.0,0.0,0.0,0.0,0.0,0.0,0.0,0.0,0.0,0.0,0.0,0.0,0.0,0.0,0.0,0.0,0.0,0.0,0.0,0.0,0.0,0.0,0.0,0.0,0.0,0.0,0.0,0.0,0.0,0.0,0.0,0.0,0.0,0.0,0.0,0.0,0.0,0.0,0.0,0.0,0.0,0.0,0.0,0.0,0.0,0.0,0.0,0.0,0.0,0.0,0.0,0.0,0.0,0.0,0.0,0.0,0.0,0.0,0.0,0.0,0.0,0.0,0.0,0.0,0.0,0.0,0.0,0.0,0.0,0.0,0.0,0.0,0.0,0.0,0.0,0.0,0.0,0.0,0.0,0.0,0.0,0.0,0.0,0.0,0.0,0.0,0.0,0.0,0.0,0.0,0.0,0.0,0.0,0.0,0.0,0.0,0.0,0.0,0.0,0.0,0.0,0.0,0.0,0.0,0.0,0.0,0.0,0.0,0.0,0.0,0.0,0.0,0.0,0.0,0.0,0.0,0.0,0.0,0.0,0.0,0.0,0.0,0.0,0.0,0.0,0.0,0.0,0.0,0.0,0.0,0.0,0.0,0.0,0.0,0.0,0.0,0.0,0.0,0.0,0.0,0.0,0.0,0.0,0.0,0.0,0.0,0.0,0.0,0.0,0.0,0.0,0.0,0.0,0.0,0.0,0.0,0.0,0.0,0.0,0.0,0.0,0.0,0.0,0.0,0.0,0.0,0.0,0.0,0.0,0.0,0.0,0.0,0.0,0.0,0.0,0.0,0.0,0.0,0.0,0.0,0.0,0.0,0.0,0.0,0.0,0.0,0.0,0.0,0.0,0.0,0.0,0.0,0.0,0.0,0.0,0.0,0.0,0.0,0.0,0.0,0.0,0.0,0.0,0.0,0.0,0.0,0.0,0.0,0.0,0.0,0.0,0.0,0.0,0.0,0.0,0.0,0.0,0.0,0.0,0.0,0.0,0.0,0.0,0.0,0.0,0.0,0.0,0.0,0.0,0.0,0.0,0.0,0.0,0.0,0.0,0.0,0.0,0.0,0.0,0.0,0.0,0.0,0.0,0.0,0.0,0.0,0.0,0.0,0.0,0.0,0.0,0.0,0.0,0.0,0.0,0.0,0.0,0.0,0.0,0.0,0.0,0.0,0.0,0.0,0.0,0.0,0.0,0.0,0.0,0.0,0.0,0.0,0.0,0.0,0.0,0.0,0.0,0.0,0.0,0.0,0.0,0.0,0.0,0.0,0.0,0.0,0.0,0.0,0.0,0.0,0.0,0.0,0.0,0.0,0.0,0.0,0.0,0.0,0.0,0.0,0.0,0.0,0.0,0.0,0.0,0.0,0.0,0.0,0.0,0.0,0.0,0.0,0.0,0.0,0.0,0.0,0.0,0.0,0.0,0.0,0.0,0.0,0.0,0.0,0.0,0.0,0.0,0.0,0.0,0.0,0.0,0.0,0.0,0.0,0.0,0.0,0.0,0.0,0.0,0.0,0.0,0.0,0.0,0.0,0.0,0.0,0.0,0.0,0.0,0.0,0.0,0.0,0.0,0.0,0.0,0.0,0.0,0.0,0.0,0.0,0.0,0.0,0.0,0.0,0.0,0.0,0.0,0.0,0.0,0.0,0.0,0.0,0.0,0.0,0.0,0.0,0.0,0.0,0.0,0.0,0.0,0.0,0.0,0.0,0.0,0.0,0.0,0.0,0.0,0.0,0.0,0.0,0.0,0.0,0.0,0.0,0.0,0.0,0.0,0.0,0.0,0.0,0.0,0.0,0.0,0.0,0.0,0.0,0.0,0.0,0.0,0.0,0.0,0.0,0.0,0.0,0.0,-2.1099,0.0,0.0,0.0,0.0,0.0,0.0,0.0,0.0,0.0,0.0,0.0,0.0,0.0,0.0,0.0,0.0,0.0,0.0,0.0,0.0,0.0,0.0,0.0,0.0,0.0,0.0,0.0,0.0,0.0,0.0,0.0,0.0,0.0,0.0,0.0,0.0,0.0,0.0,0.0,0.0,0.0,0.0,0.0,0.0,0.0,0.0,0.0,0.0,0.0,0.0,0.0,0.0,0.0,0.0,0.0,0.0,0.0,0.0,0.0,0.0,0.0,0.0,0.0,0.0,0.0,0.0,0.0,0.0,0.0,0.0,0.0,0.0,0.0,0.0,0.0,0.0,0.0,0.0,0.0,0.0,0.0,0.0,0.0,0.0,0.0,0.0,0.0,0.0,0.0,0.0,0.0,0.0,0.0,0.0,0.0,0.0,0.0,0.0,0.0,0.0,0.0,0.0,0.0,0.0,0.0,0.0,0.0,0.0,0.0,0.0,-2.2408,-2.2778,-2.2408,-2.1959,-2.1388,0.0,0.0,0.0,0.0,0.0,0.0,0.0,0.0,0.0,0.0,0.0,0.0,0.0,0.0,0.0,0.0,0.0,0.0,0.0,0.0,0.0,0.0,0.0,0.0,0.0,0.0,0.0,0.0,0.0,0.0,0.0,0.0,0.0,0.0,0.0,0.0,0.0,0.0,0.0,0.0,0.0,0.0,0.0,0.0,0.0,0.0,0.0,0.0,0.0,0.0,0.0,0.0,0.0,0.0,0.0,0.0,0.0,0.0,0.0,0.0,0.0,0.0,0.0,0.0,0.0,0.0,0.0,0.0,0.0,0.0,0.0,0.0,0.0,0.0,0.0,0.0,0.0,0.0,0.0,0.0,0.0,0.0,0.0,0.0,0.0,0.0,0.0,0.0,0.0,0.0,0.0,0.0,0.0,0.0,0.0,0.0,0.0,0.0,0.0,0.0,0.0,0.0,0.0,0.0,0.0,0.0,0.0,0.0,0.0,0.0,0.0,0.0,-2.3466,-2.2786,-2.1567,0.0,0.0,0.0,0.0,0.0,0.0,0.0,0.0,0.0,0.0,0.0,0.0,0.0,0.0,0.0,0.0,0.0,0.0,0.0,0.0,0.0,0.0,0.0,0.0,0.0,0.0,0.0,0.0,0.0,0.0,0.0,0.0,0.0,0.0,0.0,0.0,0.0,0.0,0.0,0.0,0.0,0.0,0.0,0.0,0.0,0.0,0.0,0.0,0.0,0.0,0.0,0.0,0.0,0.0,0.0,0.0,0.0,0.0,0.0,0.0,0.0,0.0,0.0,0.0,0.0,0.0,0.0,0.0,0.0,0.0,0.0,0.0,0.0,0.0,0.0,0.0,0.0,0.0,0.0,0.0,0.0,0.0,0.0,0.0,0.0,0.0,0.0,0.0,0.0,0.0,0.0,0.0,0.0,0.0,0.0,0.0,0.0,0.0,0.0,0.0,0.0,0.0,0.0,0.0,0.0,0.0,0.0,0.0,0.0,0.0,-2.3908,-2.6159,-2.5462,0.0,-2.235,0.0,0.0,0.0,0.0,0.0,0.0,0.0,0.0,0.0,0.0,0.0,0.0,0.0,0.0,0.0,0.0,0.0,0.0,0.0,0.0,0.0,0.0,0.0,0.0,0.0,0.0,0.0,0.0,0.0,0.0,0.0,0.0,0.0,0.0,0.0,0.0,0.0,0.0,0.0,0.0,0.0,0.0,0.0,0.0,0.0,0.0,0.0,0.0,0.0,0.0,0.0,0.0,0.0,0.0,0.0,0.0,0.0,0.0,0.0,0.0,0.0,0.0,0.0,0.0,0.0,0.0,0.0,0.0,0.0,0.0,0.0,0.0,0.0,0.0,0.0,0.0,0.0,0.0,0.0,0.0,0.0,0.0,0.0,0.0,0.0,0.0,0.0,0.0,0.0,0.0,0.0,0.0,0.0,0.0,0.0,0.0,0.0,0.0,0.0,0.0,0.0,0.0,0.0,0.0,0.0,0.0,0.0,0.0,0.0,0.0,-2.5019,-2.6563,-2.5105,-2.3619,0.0,0.0,0.0,0.0,0.0,0.0,0.0,0.0,0.0,0.0,0.0,0.0,0.0,0.0,0.0,0.0,0.0,0.0,0.0,0.0,0.0,0.0,0.0,0.0,0.0,0.0,0.0,0.0,0.0,0.0,0.0,0.0,0.0,0.0,0.0,0.0,0.0,0.0,0.0,0.0,0.0,0.0,0.0,0.0,0.0,0.0,0.0,0.0,0.0,0.0,0.0,0.0,0.0,0.0,0.0,0.0,0.0,0.0,0.0,0.0,0.0,0.0,0.0,0.0,0.0,0.0,0.0,0.0,0.0,0.0,0.0,0.0,0.0,0.0,0.0,0.0,0.0,0.0,0.0,0.0,0.0,0.0,0.0,0.0,0.0,0.0,0.0,0.0,0.0,0.0,0.0,0.0,0.0,0.0,0.0,0.0,0.0,0.0,0.0,0.0,0.0,0.0,0.0,0.0,0.0,0.0,0.0,0.0,0.0,0.0,-2.4673,-2.5702,-2.6414,-2.5025,-2.3545,-2.2073,0.0,0.0,0.0,0.0,0.0,0.0,0.0,0.0,0.0,0.0,0.0,0.0,0.0,0.0,0.0,0.0,0.0,0.0,0.0,0.0,0.0,0.0,0.0,0.0,0.0,0.0,0.0,0.0,0.0,0.0,0.0,0.0,0.0,0.0,0.0,0.0,0.0,0.0,0.0,0.0,0.0,0.0,0.0,0.0,0.0,0.0,0.0,0.0,0.0,0.0,0.0,0.0,0.0,0.0,0.0,0.0,0.0,0.0,0.0,0.0,0.0,0.0,0.0,0.0,0.0,0.0,0.0,0.0,0.0,0.0,0.0,0.0,0.0,0.0,0.0,0.0,0.0,0.0,0.0,0.0,0.0,0.0,0.0,0.0,0.0,0.0,0.0,0.0,0.0,0.0,0.0,0.0,0.0,0.0,0.0,0.0,0.0,0.0,0.0,0.0,0.0,0.0,0.0,0.0,0.0,0.0,0.0,0.0,-2.5019,-2.5231,-2.566,-2.6414,-2.6003,-2.4632,0.0,0.0,0.0,0.0,0.0,0.0,0.0,0.0,0.0,0.0,0.0,0.0,0.0,0.0,0.0,0.0,0.0,0.0,0.0,0.0,0.0,0.0,0.0,0.0,0.0,0.0,0.0,0.0,0.0,0.0,0.0,0.0,0.0,0.0,0.0,0.0,0.0,0.0,0.0,0.0,0.0,0.0,0.0,0.0,0.0,0.0,0.0,0.0,0.0,0.0,0.0,0.0,0.0,0.0,0.0,0.0,0.0,0.0,0.0,0.0,0.0,0.0,0.0,0.0,0.0,0.0,0.0,0.0,0.0,0.0,0.0,0.0,0.0,0.0,0.0,0.0,0.0,0.0,0.0,0.0,0.0,0.0,0.0,0.0,0.0,0.0,0.0,0.0,0.0,0.0,0.0,0.0,0.0,0.0,0.0,0.0,0.0,0.0,0.0,0.0,0.0,0.0,0.0,0.0,0.0,0.0,0.0,0.0,0.0,-2.3658,-2.4755,-2.6143,-2.7764,-2.5129,-2.3295,0.0,0.0,0.0,0.0,0.0,0.0,0.0,0.0,0.0,0.0,0.0,0.0,0.0,0.0,0.0,0.0,0.0,0.0,0.0,0.0,0.0,0.0,0.0,0.0,0.0,0.0,0.0,0.0,0.0,0.0,0.0,0.0,0.0,0.0,0.0,0.0,0.0,0.0,0.0,0.0,0.0,0.0,0.0,0.0,0.0,0.0,0.0,0.0,0.0,0.0,0.0,0.0,0.0,0.0,0.0,0.0,0.0,0.0,0.0,0.0,0.0,0.0,0.0,0.0,0.0,0.0,0.0,0.0,0.0,0.0,0.0,0.0,0.0,0.0,0.0,0.0,0.0,0.0,0.0,0.0,0.0,0.0,0.0,0.0,0.0,0.0,0.0,0.0,0.0,0.0,0.0,0.0,0.0,0.0,0.0,0.0,0.0,0.0,0.0,0.0,0.0,0.0,0.0,0.0,0.0,0.0,0.0,0.0,0.0,-2.3985,0.0,-2.6611,-2.738,-2.4674,-2.2677,0.0,0.0,0.0,0.0,0.0,0.0,0.0,0.0,0.0,0.0,0.0,0.0,0.0,0.0,0.0,0.0,0.0,0.0,0.0,0.0,0.0,0.0,0.0,0.0,0.0,0.0,0.0,0.0,0.0,0.0,0.0,0.0,0.0,0.0,0.0,0.0,0.0,0.0,0.0,0.0,0.0,0.0,0.0,0.0,0.0,0.0,0.0,0.0,0.0,0.0,0.0,0.0,0.0,0.0,0.0,0.0,0.0,0.0,0.0,0.0,0.0,0.0,0.0,0.0,0.0,0.0,0.0,0.0,0.0,0.0,0.0,0.0,0.0,0.0,0.0,0.0,0.0,0.0,0.0,0.0,0.0,0.0,0.0,0.0,0.0,0.0,0.0,0.0,0.0,0.0,0.0,0.0,0.0,0.0,0.0,0.0,0.0,0.0,0.0,0.0,0.0,0.0,0.0,0.0,0.0,0.0,0.0,0.0,-2.3216,-2.639,-2.7332,-2.6933,-2.5074,-2.4821,-2.2955,0.0,0.0,0.0,0.0,0.0,0.0,0.0,0.0,0.0,0.0,0.0,0.0,0.0,0.0,0.0,0.0,0.0,0.0,0.0,0.0,0.0,0.0,0.0,0.0,0.0,0.0,0.0,0.0,0.0,0.0,0.0,0.0,0.0,0.0,0.0,0.0,0.0,0.0,0.0,0.0,0.0,0.0,0.0,0.0,0.0,0.0,0.0,0.0,0.0,0.0,0.0,0.0,0.0,0.0,0.0,0.0,0.0,0.0,0.0,0.0,0.0,0.0,0.0,0.0,0.0,0.0,0.0,0.0,0.0,0.0,0.0,0.0,0.0,0.0,0.0,0.0,0.0,0.0,0.0,0.0,0.0,0.0,0.0,0.0,0.0,0.0,0.0,0.0,0.0,0.0,0.0,0.0,0.0,0.0,0.0,0.0,0.0,0.0,0.0,0.0,0.0,0.0,0.0,0.0,0.0,0.0,0.0,0.0,0.0,-2.5692,-2.6366,-2.7262,-2.8232,-2.4795,-2.273,0.0,0.0,0.0,0.0,0.0,0.0,0.0,0.0,0.0,0.0,0.0,0.0,0.0,0.0,0.0,0.0,0.0,0.0,0.0,0.0,0.0,0.0,0.0,0.0,0.0,0.0,0.0,0.0,0.0,0.0,0.0,0.0,0.0,0.0,0.0,0.0,0.0,0.0,0.0,0.0,0.0,0.0,0.0,0.0,0.0,0.0,0.0,0.0,0.0,0.0,0.0,0.0,0.0,0.0,0.0,0.0,0.0,0.0,0.0,0.0,0.0,0.0,0.0,0.0,0.0,0.0,0.0,0.0,0.0,0.0,0.0,0.0,0.0,0.0,0.0,0.0,0.0,0.0,0.0,0.0,0.0,0.0,0.0,0.0,0.0,0.0,0.0,0.0,0.0,0.0,0.0,0.0,0.0,0.0,0.0,0.0,0.0,0.0,0.0,0.0,0.0,0.0,0.0,0.0,0.0,0.0,0.0,0.0,0.0,-2.705,-2.7719,-2.8375,-2.8996,-2.5535,-2.3262,-2.2349,0.0,0.0,0.0,0.0,0.0,0.0,0.0,0.0,0.0,0.0,0.0,0.0,0.0,0.0,0.0,0.0,0.0,0.0,0.0,0.0,0.0,0.0,0.0,0.0,0.0,0.0,0.0,0.0,0.0,0.0,0.0,0.0,0.0,0.0,0.0,0.0,0.0,0.0,0.0,0.0,0.0,0.0,0.0,0.0,0.0,0.0,0.0,0.0,0.0,0.0,0.0,0.0,0.0,0.0,0.0,0.0,0.0,0.0,0.0,0.0,0.0,0.0,0.0,0.0,0.0,0.0,0.0,0.0,0.0,0.0,0.0,0.0,0.0,0.0,0.0,0.0,0.0,0.0,0.0,0.0,0.0,0.0,0.0,0.0,0.0,0.0,0.0,0.0,0.0,0.0,0.0,0.0,0.0,0.0,0.0,0.0,0.0,0.0,0.0,0.0,0.0,0.0,0.0,0.0,0.0,0.0,0.0,0.0,-2.9946,-3.0977,-3.0292,-2.7777,-2.6944,-2.4488,0.0,0.0,0.0,0.0,0.0,0.0,0.0,0.0,0.0,0.0,0.0,0.0,0.0,0.0,0.0,0.0,0.0,0.0,0.0,0.0,0.0,0.0,0.0,0.0,0.0,0.0,0.0,0.0,0.0,0.0,0.0,0.0,0.0,0.0,0.0,0.0,0.0,0.0,0.0,0.0,0.0,0.0,0.0,0.0,0.0,0.0,0.0,0.0,0.0,0.0,0.0,0.0,0.0,0.0,0.0,0.0,0.0,0.0,0.0,0.0,0.0,0.0,0.0,0.0,0.0,0.0,0.0,0.0,0.0,0.0,0.0,0.0,0.0,0.0,0.0,0.0,0.0,0.0,0.0,0.0,0.0,0.0,0.0,0.0,0.0,0.0,0.0,0.0,0.0,0.0,0.0,0.0,0.0,0.0,0.0,0.0,0.0,0.0,0.0,0.0,0.0,0.0,0.0,0.0,0.0,0.0,0.0,0.0,0.0,-3.0877,-3.3123,-3.3429,-3.1518,-2.8647,-2.5934,0.0,0.0,0.0,0.0,0.0,0.0,0.0,0.0,0.0,0.0,0.0,0.0,0.0,0.0,0.0,0.0,0.0,0.0,0.0,0.0,0.0,0.0,0.0,0.0,0.0,0.0,0.0,0.0,0.0,0.0,0.0,0.0,0.0,0.0,0.0,0.0,0.0,0.0,0.0,0.0,0.0,0.0,0.0,0.0,0.0,0.0,0.0,0.0,0.0,0.0,0.0,0.0,0.0,0.0,0.0,0.0,0.0,0.0,0.0,0.0,0.0,0.0,0.0,0.0,0.0,0.0,0.0,0.0,0.0,0.0,0.0,0.0,0.0,0.0,0.0,0.0,0.0,0.0,0.0,0.0,0.0,0.0,0.0,0.0,0.0,0.0,0.0,0.0,0.0,0.0,0.0,0.0,0.0,0.0,0.0,0.0,0.0,0.0,0.0,0.0,0.0,0.0,0.0,0.0,0.0,0.0,0.0,0.0,-3.0611,-3.1921,-3.4785,-3.5412,-3.3626,-3.0667,-2.7632,0.0,0.0,0.0,0.0,0.0,0.0,0.0,0.0,0.0,0.0,0.0,0.0,0.0,0.0,0.0,0.0,0.0,0.0,0.0,0.0,0.0,0.0,0.0,0.0,0.0,0.0,0.0,0.0,0.0,0.0,0.0,0.0,0.0,0.0,0.0,0.0,0.0,0.0,0.0,0.0,0.0,0.0,0.0,0.0,0.0,0.0,0.0,0.0,0.0,0.0,0.0,0.0,0.0,0.0,0.0,0.0,0.0,0.0,0.0,0.0,0.0,0.0,0.0,0.0,0.0,0.0,0.0,0.0,0.0,0.0,0.0,0.0,0.0,0.0,0.0,0.0,0.0,0.0,0.0,0.0,0.0,0.0,0.0,0.0,0.0,0.0,0.0,0.0,0.0,0.0,0.0,0.0,0.0,0.0,0.0,0.0,0.0,0.0,0.0,0.0,0.0,0.0,0.0,0.0,0.0,0.0,0.0,0.0,-3.1396,-3.3029,-3.5947,-3.6562,-3.4584,-3.2585,-2.9339,0.0,0.0,0.0,0.0,0.0,0.0,0.0,0.0,0.0,0.0,0.0,0.0,0.0,0.0,0.0,0.0,0.0,0.0,0.0,0.0,0.0,0.0,0.0,0.0,0.0,0.0,0.0,0.0,0.0,0.0,0.0,0.0,0.0,0.0,0.0,0.0,0.0,0.0,0.0,0.0,0.0,0.0,0.0,0.0,0.0,0.0,0.0,0.0,0.0,0.0,0.0,0.0,0.0,0.0,0.0,0.0,0.0,0.0,0.0,0.0,0.0,0.0,0.0,0.0,0.0,0.0,0.0,0.0,0.0,0.0,0.0,0.0,0.0,0.0,0.0,0.0,0.0,0.0,0.0,0.0,0.0,0.0,0.0,0.0,0.0,0.0,0.0,0.0,0.0,0.0,0.0,0.0,0.0,0.0,0.0,0.0,0.0,0.0,0.0,0.0,0.0,0.0,0.0,0.0,0.0,0.0,0.0,0.0,-3.2065,-3.3814,-3.6242,-3.68,-3.5361,-3.2901,-2.95,0.0,0.0,0.0,0.0,0.0,0.0,0.0,0.0,0.0,0.0,0.0,0.0,0.0,0.0,0.0,0.0,0.0,0.0,0.0,0.0,0.0,0.0,0.0,0.0,0.0,0.0,0.0,0.0,0.0,0.0,0.0,0.0,0.0,0.0,0.0,0.0,0.0,0.0,0.0,0.0,0.0,0.0,0.0,0.0,0.0,0.0,0.0,0.0,-1.7904,0.0,0.0,0.0,0.0,0.0,0.0,0.0,0.0,0.0,0.0,0.0,0.0,0.0,0.0,0.0,0.0,0.0,0.0,0.0,0.0,0.0,0.0,0.0,0.0,0.0,0.0,0.0,0.0,0.0,0.0,0.0,0.0,0.0,0.0,0.0,0.0,0.0,0.0,0.0,0.0,0.0,0.0,0.0,0.0,0.0,0.0,0.0,0.0,0.0,0.0,0.0,0.0,0.0,0.0,0.0,0.0,0.0,0.0,0.0,-3.2461,-3.4169,-3.5895,-3.6209,-3.4924,-3.2537,-2.9567,0.0,0.0,0.0,0.0,0.0,0.0,0.0,0.0,0.0,0.0,0.0,0.0,0.0,0.0,0.0,0.0,0.0,0.0,0.0,0.0,0.0,0.0,0.0,0.0,0.0,0.0,0.0,0.0,0.0,0.0,0.0,0.0,0.0,0.0,0.0,0.0,0.0,0.0,0.0,0.0,0.0,0.0,0.0,0.0,0.0,0.0,0.0,0.0,0.0,0.0,0.0,0.0,0.0,0.0,0.0,0.0,0.0,0.0,0.0,0.0,0.0,0.0,0.0,0.0,0.0,0.0,0.0,0.0,0.0,0.0,0.0,0.0,0.0,0.0,0.0,0.0,0.0,0.0,0.0,0.0,0.0,0.0,0.0,0.0,0.0,0.0,0.0,0.0,0.0,0.0,0.0,0.0,0.0,0.0,0.0,0.0,0.0,0.0,0.0,0.0,0.0,0.0,0.0,0.0,0.0,0.0,0.0,-3.0076,-3.2478,-3.4163,-3.526,-3.5237,-3.405,-3.174,-2.9282,-2.6657,0.0,0.0,0.0,0.0,0.0,0.0,0.0,0.0,0.0,0.0,0.0,0.0,0.0,0.0,0.0,0.0,0.0,0.0,0.0,0.0,0.0,0.0,0.0,0.0,0.0,0.0,0.0,0.0,0.0,0.0,0.0,0.0,0.0,0.0,0.0,0.0,0.0,0.0,-1.5426,-1.7257,0.0,0.0,0.0,0.0,0.0,0.0,0.0,0.0,-1.8253,0.0,0.0,0.0,0.0,0.0,0.0,0.0,0.0,0.0,0.0,0.0,0.0,0.0,0.0,0.0,0.0,0.0,0.0,0.0,0.0,0.0,0.0,0.0,0.0,0.0,0.0,0.0,0.0,0.0,0.0,0.0,0.0,0.0,0.0,0.0,0.0,0.0,0.0,0.0,0.0,0.0,0.0,0.0,0.0,0.0,0.0,0.0,0.0,0.0,0.0,0.0,0.0,0.0,0.0,0.0,0.0,-2.9037,-3.0008,-3.1551,-3.375,-3.457,-3.4427,-3.3253,-3.0639,-2.8089,-2.5679,0.0,0.0,0.0,0.0,0.0,0.0,0.0,0.0,0.0,0.0,0.0,0.0,0.0,0.0,0.0,0.0,0.0,0.0,0.0,0.0,0.0,0.0,0.0,0.0,0.0,0.0,0.0,0.0,0.0,0.0,0.0,0.0,0.0,0.0,0.0,0.0,0.0,0.0,0.0,-1.8876,-1.9509,0.0,0.0,0.0,0.0,0.0,0.0,0.0,0.0,-1.7444,0.0,0.0,0.0,0.0,0.0,0.0,0.0,0.0,0.0,0.0,0.0,0.0,0.0,0.0,0.0,0.0,0.0,0.0,0.0,0.0,0.0,0.0,0.0,0.0,0.0,0.0,0.0,0.0,0.0,0.0,0.0,0.0,0.0,0.0,0.0,0.0,0.0,0.0,0.0,0.0,0.0,0.0,0.0,0.0,0.0,0.0,0.0,0.0,0.0,0.0,0.0,0.0,0.0,0.0,0.0,-2.8712,-2.9909,-3.134,-3.3265,-3.3446,-3.3235,-3.2642,-2.9497,-2.7035,0.0,0.0,0.0,0.0,0.0,0.0,0.0,0.0,0.0,0.0,0.0,0.0,0.0,0.0,0.0,0.0,0.0,0.0,0.0,0.0,0.0,0.0,0.0,0.0,0.0,0.0,0.0,0.0,0.0,0.0,0.0,0.0,0.0,0.0,0.0,0.0,0.0,0.0,0.0,0.0,-1.9446,-1.9779,-1.993,0.0,0.0,0.0,0.0,0.0,0.0,-1.789,-1.7194,0.0,0.0,0.0,0.0,0.0,0.0,0.0,0.0,0.0,0.0,0.0,0.0,0.0,0.0,0.0,0.0,0.0,0.0,0.0,0.0,0.0,0.0,0.0,0.0,0.0,0.0,0.0,0.0,0.0,0.0,0.0,0.0,0.0,0.0,0.0,0.0,0.0,0.0,0.0,0.0,0.0,0.0,0.0,0.0,0.0,0.0,0.0,0.0,0.0,0.0,0.0,0.0,0.0,0.0,0.0,-2.7999,-2.953,-3.1057,-3.254,-3.2292,-3.1978,-3.1625,-2.8275,-2.5944,0.0,0.0,0.0,0.0,0.0,0.0,0.0,0.0,0.0,0.0,0.0,0.0,0.0,0.0,0.0,0.0,0.0,0.0,0.0,0.0,0.0,0.0,0.0,0.0,0.0,0.0,0.0,0.0,0.0,0.0,0.0,0.0,0.0,0.0,0.0,0.0,0.0,0.0,0.0,0.0,0.0,-2.0124,-2.0184,-1.9546,0.0,0.0,0.0,0.0,-1.8812,-1.8073,0.0,0.0,0.0,0.0,0.0,0.0,0.0,0.0,0.0,0.0,0.0,0.0,0.0,0.0,0.0,0.0,0.0,0.0,0.0,0.0,0.0,0.0,0.0,0.0,0.0,0.0,0.0,0.0,0.0,0.0,0.0,0.0,0.0,0.0,0.0,0.0,0.0,0.0,0.0,0.0,0.0,0.0,0.0,0.0,0.0,0.0,0.0,0.0,0.0,0.0,0.0,0.0,0.0,0.0,0.0,0.0,-2.7213,-2.8545,-2.9914,-3.1336,-3.1475,-3.0903,-2.9665,-2.7057,-2.4795,0.0,0.0,0.0,0.0,0.0,0.0,0.0,0.0,0.0,0.0,0.0,0.0,0.0,0.0,0.0,0.0,0.0,0.0,0.0,0.0,0.0,0.0,0.0,0.0,0.0,0.0,0.0,0.0,0.0,0.0,0.0,0.0,0.0,0.0,0.0,0.0,0.0,0.0,0.0,0.0,0.0,-2.0897,-1.9307,-1.9506,-1.9364,0.0,0.0,-1.8194,-1.8827,-1.8727,0.0,0.0,0.0,0.0,0.0,0.0,0.0,0.0,0.0,0.0,0.0,0.0,0.0,0.0,0.0,0.0,0.0,0.0,0.0,0.0,0.0,0.0,0.0,0.0,0.0,0.0,0.0,0.0,0.0,0.0,0.0,0.0,0.0,0.0,0.0,0.0,0.0,0.0,0.0,0.0,0.0,0.0,0.0,0.0,0.0,0.0,0.0,0.0,0.0,0.0,0.0,0.0,0.0,0.0,0.0,-2.3173,-2.6471,-2.7854,-2.9212,-3.0612,-3.0402,-2.9778,-2.8814,-2.6146,-2.4064,0.0,0.0,0.0,0.0,0.0,0.0,0.0,0.0,0.0,0.0,0.0,0.0,0.0,0.0,0.0,0.0,0.0,0.0,0.0,0.0,0.0,0.0,0.0,0.0,0.0,0.0,0.0,0.0,0.0,0.0,0.0,0.0,0.0,0.0,0.0,0.0,0.0,0.0,0.0,0.0,0.0,0.0,-1.942,-1.9371,0.0,0.0,0.0,-1.8296,-1.888,0.0,0.0,0.0,0.0,0.0,0.0,0.0,0.0,0.0,0.0,0.0,0.0,0.0,0.0,0.0,0.0,0.0,0.0,0.0,0.0,0.0,0.0,0.0,0.0,0.0,0.0,0.0,0.0,0.0,0.0,0.0,0.0,0.0,0.0,0.0,0.0,0.0,0.0,0.0,0.0,0.0,0.0,0.0,0.0,0.0,0.0,0.0,0.0,0.0,0.0,0.0,0.0,0.0,0.0,0.0,0.0,0.0,-2.5454,-2.6919,-2.8265,-2.9513,-2.9165,-2.8526,-2.7668,-2.5124,0.0,0.0,0.0,0.0,0.0,0.0,0.0,0.0,0.0,0.0,0.0,0.0,0.0,0.0,0.0,0.0,0.0,0.0,0.0,0.0,0.0,0.0,0.0,0.0,0.0,0.0,0.0,-0.8604,0.0,0.0,0.0,0.0,0.0,0.0,0.0,0.0,0.0,0.0,0.0,0.0,0.0,0.0,-1.9635,-1.9438,-1.938,-1.9288,0.0,0.0,-1.8494,-1.875,-1.8106,-1.7047,0.0,0.0,0.0,0.0,0.0,0.0,0.0,0.0,0.0,0.0,0.0,0.0,0.0,0.0,0.0,0.0,0.0,0.0,0.0,0.0,0.0,0.0,0.0,0.0,0.0,0.0,0.0,0.0,0.0,0.0,0.0,0.0,0.0,0.0,0.0,0.0,0.0,0.0,0.0,0.0,0.0,0.0,0.0,0.0,0.0,0.0,0.0,0.0,0.0,0.0,0.0,0.0,0.0,0.0,-2.0968,-2.3786,-2.5554,-2.6808,-2.7557,-2.7627,-2.6996,-2.571,-2.3813,-2.1888,0.0,0.0,0.0,0.0,0.0,0.0,0.0,0.0,0.0,0.0,0.0,0.0,0.0,0.0,0.0,0.0,0.0,0.0,0.0,0.0,0.0,0.0,0.0,0.0,0.0,0.0,0.0,0.0,0.0,0.0,0.0,0.0,0.0,0.0,0.0,0.0,0.0,0.0,0.0,0.0,0.0,-1.9474,-1.8927,-1.9476,-1.9872,0.0,-1.9287,-1.8811,-1.835,-1.8169,-1.7195,-1.4626,0.0,0.0,0.0,0.0,0.0,0.0,0.0,0.0,0.0,0.0,0.0,0.0,0.0,0.0,0.0,0.0,0.0,0.0,0.0,0.0,0.0,0.0,0.0,0.0,0.0,0.0,0.0,0.0,0.0,0.0,0.0,0.0,0.0,0.0,0.0,0.0,0.0,0.0,0.0,0.0,0.0,0.0,0.0,0.0,0.0,0.0,0.0,0.0,0.0,0.0,0.0,0.0,0.0,-1.9984,-2.2965,-2.4401,-2.568,-2.6786,-2.6511,-2.588,-2.4969,-2.3468,-2.1759,0.0,0.0,0.0,0.0,0.0,0.0,0.0,0.0,0.0,0.0,0.0,0.0,0.0,0.0,0.0,0.0,0.0,0.0,0.0,0.0,0.0,0.0,0.0,0.0,0.0,0.0,0.0,0.0,-1.0799,-1.0988,-1.0745,0.0,0.0,0.0,0.0,0.0,0.0,0.0,0.0,0.0,0.0,-1.8704,-1.8897,-1.9193,0.0,0.0,-1.9345,-1.9044,-1.9162,-1.8619,-1.7578,-1.5816,-1.4632,0.0,0.0,0.0,0.0,0.0,0.0,0.0,0.0,0.0,0.0,0.0,0.0,0.0,0.0,0.0,0.0,0.0,0.0,0.0,0.0,0.0,0.0,0.0,0.0,0.0,0.0,0.0,0.0,0.0,0.0,0.0,0.0,0.0,0.0,0.0,0.0,0.0,0.0,0.0,0.0,0.0,0.0,0.0,0.0,0.0,0.0,0.0,0.0,0.0,0.0,0.0,0.0,-1.8851,-2.1843,-2.321,-2.446,-2.5619,-2.541,-2.4889,-2.4059,-2.2966,-2.1471,0.0,0.0,0.0,0.0,0.0,0.0,0.0,0.0,0.0,0.0,0.0,0.0,0.0,0.0,0.0,0.0,0.0,0.0,0.0,0.0,0.0,0.0,0.0,0.0,0.0,0.0,0.0,0.0,-1.0952,-1.082,-1.0535,0.0,0.0,0.0,0.0,0.0,0.0,0.0,0.0,0.0,0.0,-1.7865,-1.84,-1.8577,-1.8771,-1.9019,-1.8722,-1.8499,-1.8509,-1.7873,-1.7072,-1.6073,0.0,0.0,0.0,0.0,0.0,0.0,0.0,0.0,0.0,0.0,0.0,0.0,0.0,0.0,0.0,0.0,0.0,0.0,0.0,0.0,0.0,0.0,0.0,0.0,0.0,0.0,0.0,-1.5319,0.0,0.0,-1.38,0.0,0.0,0.0,0.0,0.0,0.0,0.0,0.0,0.0,0.0,0.0,0.0,0.0,0.0,0.0,0.0,0.0,0.0,0.0,0.0,0.0,0.0,-1.7515,-2.021,-2.189,-2.3023,-2.3668,-2.4261,-2.3977,-2.2757,-2.2069,-2.0818,-1.893,0.0,0.0,0.0,0.0,0.0,0.0,0.0,0.0,0.0,0.0,0.0,0.0,0.0,0.0,0.0,0.0,0.0,0.0,0.0,0.0,0.0,0.0,0.0,0.0,0.0,0.0,-1.1638,-1.0448,-0.9667,0.0,0.0,0.0,0.0,0.0,0.0,0.0,0.0,0.0,0.0,-1.62,-1.6977,-1.7215,-1.7618,-1.7812,-1.7483,-1.7363,-1.6953,-1.5918,-1.5649,-1.5382,0.0,0.0,0.0,0.0,0.0,0.0,0.0,0.0,0.0,0.0,0.0,0.0,0.0,0.0,0.0,0.0,0.0,0.0,0.0,0.0,0.0,0.0,0.0,0.0,0.0,0.0,0.0,-1.738,-1.6274,0.0,0.0,0.0,0.0,0.0,0.0,0.0,0.0,0.0,0.0,0.0,-1.7779,-1.8431,0.0,0.0,0.0,0.0,0.0,0.0,0.0,0.0,0.0,0.0,0.0,0.0,-1.7091,-1.9467,-2.0744,-2.168,-2.2308,-2.2199,-2.1949,-2.1509,-2.0526,-1.9041,-1.7093,0.0,0.0,0.0,0.0,0.0,0.0,0.0,0.0,0.0,0.0,0.0,0.0,0.0,0.0,0.0,0.0,0.0,0.0,0.0,0.0,0.0,0.0,0.0,0.0,0.0,-1.1282,0.0,0.0,0.0,0.0,0.0,0.0,0.0,0.0,0.0,0.0,0.0,-1.46,-1.525,-1.5706,-1.6139,-1.6626,-1.7031,-1.7421,0.0,0.0,0.0,0.0,0.0,0.0,0.0,0.0,0.0,0.0,0.0,0.0,0.0,0.0,-1.3483,-1.1355,-1.0599,-1.0407,-1.0737,0.0,0.0,0.0,0.0,0.0,0.0,0.0,0.0,0.0,0.0,0.0,0.0,0.0,0.0,-1.8207,0.0,-1.7145,0.0,0.0,0.0,0.0,0.0,0.0,0.0,0.0,-1.9358,-1.9649,-1.8841,-1.9472,-1.9146,0.0,-1.716,-1.6231,0.0,0.0,0.0,0.0,0.0,0.0,0.0,0.0,-1.7196,-1.9314,-2.0068,-2.0735,-2.1355,-2.0885,-2.052,-2.0271,-1.9121,-1.7779,-1.6283,-1.5269,-1.4392,0.0,0.0,0.0,0.0,0.0,0.0,0.0,0.0,0.0,0.0,0.0,0.0,0.0,0.0,0.0,0.0,0.0,0.0,0.0,0.0,0.0,0.0,0.0,-1.0966,0.0,0.0,0.0,0.0,0.0,0.0,0.0,0.0,0.0,-1.2414,-1.3521,-1.4529,-1.5327,-1.5441,-1.5662,-1.6265,0.0,0.0,0.0,0.0,0.0,0.0,0.0,-1.5654,-1.5221,-1.5044,-1.4784,-1.431,-1.4498,-1.4716,-1.4573,0.0,0.0,-1.2315,-1.183,-1.1781,-1.1932,-1.2073,-1.2305,-1.2712,-1.2829,-1.2954,0.0,0.0,0.0,0.0,0.0,0.0,0.0,0.0,-1.8912,-1.8862,0.0,-1.8112,0.0,0.0,0.0,0.0,0.0,-1.8777,0.0,0.0,-2.171,-2.1969,-2.0724,-2.018,-1.9883,-1.9746,-1.871,-1.7794,-1.6959,-1.5215,0.0,0.0,0.0,0.0,0.0,0.0,-1.765,-1.9483,-1.9749,-2.0166,-2.0742,-2.026,-1.969,-1.901,-1.7894,-1.7041,-1.6507,-1.5979,-1.523,-1.4179,-1.2533,0.0,0.0,0.0,0.0,0.0,0.0,0.0,0.0,0.0,0.0,0.0,0.0,0.0,0.0,0.0,0.0,0.0,0.0,0.0,0.0,-1.047,0.0,0.0,0.0,0.0,0.0,0.0,0.0,0.0,0.0,0.0,-1.2487,-1.3295,-1.4295,-1.5315,0.0,0.0,0.0,0.0,-1.5778,-1.5253,-1.5159,-1.4933,-1.433,-1.4718,-1.5112,-1.5086,0.0,0.0,-1.4608,-1.4278,-1.4082,-1.3652,-1.3965,-1.4357,-1.4924,-1.4088,-1.36,-1.3926,-1.3672,-1.3672,-1.3997,-1.4033,-1.4075,-2.1884,0.0,0.0,0.0,0.0,-2.1066,-2.1565,-2.1595,-2.2009,-2.141,-2.0117,-1.9923,0.0,0.0,0.0,0.0,0.0,0.0,-2.0662,-2.1152,-2.1727,-2.1787,-2.1399,-2.0812,-2.0344,-1.992,-1.9143,-1.8448,-1.7846,-1.694,-1.5408,-1.3337,0.0,0.0,0.0,0.0,-1.6803,-1.7805,-1.8343,-1.8725,-1.8893,-1.8365,-1.7826,-1.726,-1.6914,-1.6668,-1.6502,-1.5976,-1.5555,-1.5223,-1.3641,0.0,0.0,0.0,0.0,0.0,0.0,0.0,0.0,0.0,0.0,0.0,0.0,0.0,0.0,0.0,0.0,0.0,0.0,0.0,-1.0407,-1.0242,-1.0201,0.0,0.0,0.0,0.0,0.0,0.0,0.0,0.0,0.0,-1.2696,-1.3635,-1.4363,0.0,0.0,-1.4558,-1.4882,-1.5044,-1.528,-1.562,-1.5474,0.0,-1.5365,-1.509,-1.4902,-1.4892,-1.528,-1.5459,-1.5171,-1.5064,-1.501,-1.4873,-1.4933,-1.5096,-1.5208,-1.458,-1.4016,-1.4075,-1.4007,-1.4075,-1.4492,-1.46,-1.4687,-2.4328,-2.2587,-2.2063,-2.1859,-2.1964,-2.2996,-2.3445,-2.3475,-2.3533,-2.3062,-2.2185,-2.1389,-1.9852,-1.7873,-1.7903,0.0,0.0,0.0,-2.1695,-2.2093,-2.2098,-2.1963,-2.1685,-2.1086,-2.0501,-1.9891,-1.9281,-1.8832,-1.8481,-1.7752,-1.6477,-1.4686,0.0,0.0,-1.5421,-1.6136,-1.6829,-1.7477,-1.7676,-1.7787,-1.7787,-1.725,-1.6837,-1.6509,-1.6287,-1.6183,-1.6183,-1.5688,-1.5387,-1.5374,-1.4224,-1.317,0.0,0.0,0.0,0.0,0.0,0.0,0.0,0.0,0.0,0.0,0.0,-0.8383,-0.7144,0.0,0.0,0.0,-0.877,-0.9657,-1.1023,-1.0701,0.0,0.0,0.0,0.0,0.0,0.0,0.0,-1.2108,-1.2176,-1.2436,-1.3262,-1.3896,-1.4466,-1.4924,-1.4721,-1.4655,-1.5164,0.0,-1.5308,-1.5644,-1.5511,-1.5467,-1.566,-1.5321,-1.5029,-1.5029,-1.5234,-1.541,-1.542,-1.542,-1.542,-1.542,-1.542,-1.542,-1.542,-1.498,-1.4611,-1.4611,-1.4611,-1.4708,-1.499,-1.5029,-1.5107,-2.6303,-2.5674,-2.4433,-2.3849,-2.3819,-2.447,-2.4739,-2.4634,-2.401,-2.4095,-2.4446,-2.2607,-2.136,-2.0662,-2.0069,0.0,-2.0824,-2.2123,-2.2679,-2.2688,-2.2606,-2.2253,-2.1687,-2.1015,-2.0421,-1.985,-1.9321,-1.9058,-1.902,-1.799,-1.7187,-1.6647,-1.6425,-1.6553,-1.6981,-1.7022,-1.7361,-1.7953,-1.7483,-1.7242,-1.7209,-1.6752,-1.6475,-1.6425,-1.5969,-1.5668,-1.5618,-1.5123,-1.4865,-1.4871,-1.4349,-1.3778,-1.3185,0.0,0.0,0.0,0.0,0.0,0.0,0.0,0.0,0.0,0.0,0.0,0.0,0.0,0.0,0.0,-1.0504,0.0,-1.1692,-1.1571,0.0,0.0,0.0,-1.0837,-1.0862,-1.1351,-1.1809,-1.2213,0.0,0.0,-1.4007,-1.4133,-1.4579,-1.5689,-1.5435,-1.5487,-1.6409,-1.6085,-1.5707,-1.5687,-1.5604,-1.5546,-1.5593,-1.5458,-1.5371,-1.5371,-1.542,-1.542,-1.542,-1.542,-1.542,-1.542,-1.542,-1.542,-1.542,-1.5371,-1.541,-1.5371,-1.5381,-1.5391,-1.5381,-1.5381,-1.5381,-2.727,-2.7106,-2.6776,-2.6072,-2.5196,-2.5839,-2.5839,-2.5412,-2.5732,-2.5427,-2.4626,-2.364,-2.2319,-2.0776,-2.0667,-2.0915,-2.1499,-2.2323,-2.2716,-2.2649,-2.1706,-2.1403,-2.1625,-2.057,-2.0232,-2.0522,-1.9927,-1.9623,-1.956,-1.853,-1.794,-1.7752,-1.6898,-1.6316,-1.605,-1.6414,-1.6717,-1.6879,-1.6765,-1.6701,-1.6667,-1.6573,-1.6321,-1.5906,-1.5768,-1.5512,-1.511,-1.4576,-1.4475,-1.4846,-1.3948,-1.3336,-1.3185,-1.1623,0.0,0.0,0.0,0.0,0.0,0.0,0.0,0.0,0.0,-0.9312,-0.7599,0.0,-0.9782,0.0,-1.0699,-1.1561,-1.209,-1.149,0.0,0.0,-1.1582,-1.1279,-1.224,-1.2171,-1.2246,-1.2676,-1.3096,-1.3555,-1.4046,-1.4397,-1.4869,-1.5443,-1.5413,-1.5708,-1.6683,-1.6577,-1.6497,-1.6918,-1.6985,-1.6884,-1.6283,-1.5748,-1.542,-1.542,-1.542,-1.542,-1.542,-1.542,-1.542,-1.542,-1.542,-1.542,-1.542,-1.542,-1.542,-1.542,-1.542,-1.542,-1.542,-1.542,-1.542,-2.7126,-2.7074,-2.6759,-2.6182,-2.56,-2.6609,-2.6664,-2.6006,-2.605,-2.5512,-2.4484,-2.3286,-2.2021,-2.0788,-2.0812,-2.1021,-2.1375,-2.2286,-2.2535,-2.223,-2.151,-2.1234,-2.1269,-2.0283,-2.0156,-2.0771,-2.0118,-1.9952,-2.0155,-1.8864,-1.8204,-1.8179,-1.7074,-1.635,-1.6082,-1.635,-1.6513,-1.6513,-1.6513,-1.6513,-1.6488,-1.6262,-1.6099,-1.6057,-1.5593,-1.5184,-1.4869,-1.4368,-1.41,-1.409,-1.3552,-1.3135,-1.2873,-1.1825,-1.0869,0.0,0.0,0.0,0.0,0.0,0.0,0.0,0.0,0.0,0.0,0.0,-1.0258,-1.0175,-1.1166,-1.193,-1.2216,-1.1985,-1.2108,-1.2885,-1.2262,-1.2103,-1.2827,-1.2666,-1.2686,-1.313,-1.3359,-1.373,-1.4336,-1.4629,-1.5213,-1.6211,-1.6112,-1.6115,-1.6594,-1.6353,-1.6283,-1.6978,-1.6838,-1.65,-1.6065,-1.5671,-1.542,-1.542,-1.542,-1.542,-1.542,-1.542,-1.542,-1.542,-1.542,-1.542,-1.542,-1.542,-1.542,-1.542,-1.542,-1.542,-1.542,-1.542,-1.542,-2.6582,-2.6431,-2.5701,-2.5398,-2.5522,-2.6785,-2.6956,-2.6324,-2.5673,-2.5011,-2.431,-2.2577,-2.1458,-2.0853,-2.0962,-2.0999,-2.0993,-2.2151,-2.2369,-2.1852,-2.1663,-2.1307,-2.0771,-2.0105,-2.0105,-2.0622,-2.008,-2.0105,-2.062,-1.9009,-1.8204,-1.813,-1.7039,-1.6513,-1.6513,-1.6513,-1.6513,-1.6513,-1.6513,-1.6513,-1.65,-1.5961,-1.589,-1.6218,-1.5306,-1.4679,-1.4476,-1.414,-1.366,-1.3061,-1.3157,-1.3026,-1.2513,-1.2084,-1.1497,0.0,-1.0203,0.0,0.0,0.0,0.0,0.0,0.0,0.0,0.0,-1.1214,-1.1144,-1.1066,-1.1814,-1.2291,-1.2291,-1.2656,-1.2915,-1.2915,-1.2915,-1.2915,-1.2915,-1.2954,-1.3096,-1.3467,-1.3603,-1.3975,-1.4648,-1.4852,-1.5553,-1.677,-1.6613,-1.6312,-1.6454,-1.613,-1.6112,-1.6641,-1.6065,-1.5777,-1.5661,-1.5497,-1.542,-1.542,-1.542,-1.542,-1.542,-1.542,-1.542,-1.542,-1.542,-1.542,-1.542,-1.542,-1.542,-1.542,-1.542,-1.542,-1.542,-1.542,-1.542,-2.6998,-2.6431,-2.5701,-2.5398,-2.5425,-2.5701,-2.5728,-2.5591,-2.5453,-2.5011,-2.4338,-2.3446,-2.247,-2.1511,-2.2017,-2.2013,-2.1582,-2.236,-2.2626,-2.2475,-2.1465,-2.0906,-2.0759,-2.0105,-1.9875,-1.9978,-1.9875,-1.985,-1.9965,-1.8792,-1.8204,-1.8179,-1.7052,-1.6513,-1.6513,0.0,0.0,0.0,-1.6513,-1.6513,-1.65,-1.5932,-1.5454,-1.5123,-1.4452,0.0,-1.2915,-1.3082,-1.3014,-1.2594,-1.2861,0.0,0.0,0.0,0.0,0.0,0.0,0.0,0.0,0.0,0.0,0.0,-1.0616,-1.0674,-1.0825,-1.1515,-1.1984,-1.1992,-1.2451,-1.2778,-1.2788,-1.2856,-1.2915,-1.2915,-1.2915,-1.2915,-1.2915,-1.3184,-1.3418,-1.3496,-1.4111,-1.459,-1.4803,-1.5078,-1.5399,-1.5833,-1.569,-1.5864,-1.6454,-1.6838,-1.7401,-1.8031,-1.6968,-1.6293,-1.6293,-1.5748,-1.542,-1.542,-1.542,-1.542,-1.542,-1.542,-1.542,-1.542,-1.542,-1.542,-1.542,-1.542,-1.542,-1.542,-1.542,-1.542,-1.542,-1.542,-1.542,-2.6255,0.0,-2.4753,-2.4266,0.0,-2.4266,-2.4266,-2.4295,-2.4696,-2.445,-2.3734,-2.3132,-2.2508,-2.1942,-2.1747,-2.1495,-2.1217,-2.1588,-2.1595,-2.1259,-2.093,-2.0608,-2.0308,-1.994,-1.9978,-2.0283,-1.9952,-1.9978,-2.0194,-1.8901,-1.8204,-1.8191,-1.7052,-1.6513,-1.6513,-1.6513,-1.6513,-1.6513,-1.6513,-1.6513,-1.6466,-1.5644,-1.51,-1.4893,-1.4032,0.0,0.0,0.0,0.0,0.0,0.0,0.0,0.0,0.0,0.0,-1.0688,-1.0793,-1.0715,-1.0351,-1.089,-1.1307,-1.1521,-1.1736,-1.1765,-1.148,-1.2119,-1.2559,-1.2535,-1.2754,-1.2915,-1.2915,-1.2915,-1.2915,-1.2915,-1.2915,-1.2959,-1.3164,-1.3379,-1.3682,-1.4092,-1.4549,-1.4853,-1.5078,-1.5264,-1.5575,-1.5864,-1.595,-1.6179,-1.6838,-1.6687,-1.6687,-1.7013,-1.6518,-1.5979,-1.595,-1.569,-1.542,-1.542,-1.542,-1.542,-1.542,-1.542,-1.542,-1.542,-1.542,-1.542,-1.542,-1.542,-1.542,-1.542,-1.542,-1.542,-1.542,-1.542,-1.542,-2.5411,-2.5091,-2.3679,-2.3095,-2.3095,-2.3095,-2.3095,-2.3138,0.0,0.0,0.0,-2.2631,-2.2397,-2.2246,-2.1494,-2.1056,-2.0894,-2.1052,-2.075,-2.0156,-2.0597,-2.0497,-1.9978,-1.985,-2.008,-2.0572,-2.0055,-2.008,-2.0544,-1.8972,-1.8204,-1.808,-1.7052,-1.6513,-1.6513,-1.6513,-1.6445,-1.6346,-1.6337,-1.6324,-1.6312,-1.5217,-1.4681,-1.4787,-1.3722,-1.2925,-1.2487,-1.2904,-1.2861,-1.2212,-1.2231,-1.2067,-1.1582,-1.1284,-1.1103,-1.1055,-1.1526,-1.178,-1.1721,-1.2445,-1.2725,-1.234,-1.2676,-1.2725,-1.234,-1.2676,-1.2915,-1.2915,-1.2915,-1.2915,-1.2915,-1.2983,-1.3023,-1.3023,-1.3057,-1.3252,-1.3574,-1.3701,-1.4033,-1.4648,-1.4844,-1.501,-1.5342,-1.54,-1.5613,-1.6122,-1.6179,-1.65,-1.6912,-1.633,-1.5748,-1.5642,-1.5584,-1.5439,-1.541,-1.541,-1.542,-1.542,-1.542,-1.542,-1.542,-1.542,-1.542,-1.542,-1.542,-1.542,-1.542,-1.542,-1.542,-1.542,-1.542,-1.542,-1.542,-1.542,-1.542,-2.5555,-2.4366,-2.3471,-2.3095,-2.3095,-2.3095,-2.3095,-2.3095,-2.3228,-2.3185,-2.3095,-2.3032,-2.2719,-2.2338,-2.2762,-2.24,-2.1524,-2.2082,-2.2016,-2.1424,-2.0991,-2.0759,-2.0635,-2.008,-1.985,-1.9927,-1.9824,-1.985,-1.9813,-1.8767,-1.8204,-1.8078,-1.7074,-1.6513,-1.6513,-1.6513,-1.6238,-1.5754,-1.5742,-1.572,-1.571,-1.4551,-1.3954,-1.3943,-1.3303,-1.2712,-1.2263,-1.2682,-1.2556,-1.1743,-1.2004,-1.1847,-1.11,-1.1653,-1.1875,-1.1575,-1.2259,-1.2529,-1.2145,-1.2607,-1.2876,-1.2827,-1.2842,-1.2886,-1.2803,-1.2876,-1.2915,-1.2915,-1.2915,-1.2915,-1.2925,-1.3203,-1.3398,-1.3437,-1.3714,-1.3958,-1.4026,-1.4346,-1.4637,-1.4795,-1.5117,-1.5312,-1.5391,-1.542,-1.5439,-1.5555,-1.5671,-1.5642,-1.5853,-1.6083,-1.6036,-1.5584,-1.542,-1.542,-1.542,-1.542,-1.542,-1.542,-1.542,-1.542,-1.542,-1.542,-1.542,-1.542,-1.542,-1.542,-1.542,-1.542,-1.542,-1.542,-1.542,-1.542,-1.542,-1.542,-1.542,-2.4893,-2.4247,-2.3454,-2.3095,-2.3095,-2.3095,-2.3095,-2.3095,-2.3095,-2.3095,-2.3095,-2.3095,-2.297,-2.2736,-2.277,-2.249,-2.1964,-2.1694,-2.1419,-2.1104,-2.0526,-2.0245,-2.022,-1.9952,-1.9798,-1.9798,-1.9798,-1.9798,-1.9723,-1.902,-1.8632,-1.8556,-1.7539,-1.6669,-1.6042,-1.6008,-1.571,-1.5152,-1.5432,-1.5454,-1.5107,-1.426,-1.3676,-1.3424,-1.2829,-1.2314,-1.1895,-1.2285,-1.2334,-1.1934,-1.2344,-1.2295,-1.1667,-1.1989,-1.2031,-1.1655,-1.2168,-1.2418,-1.22,-1.2637,-1.2915,-1.2915,-1.2915,-1.2915,-1.2915,-1.2915,-1.2915,-1.2915,-1.2915,-1.3003,-1.3193,-1.3398,-1.3568,-1.3802,-1.3997,-1.4202,-1.4453,-1.4648,-1.4873,-1.5088,-1.5293,-1.541,-1.542,-1.542,-1.542,-1.542,-1.542,-1.542,-1.542,-1.5661,-1.5816,-1.5468,-1.542,-1.542,-1.542,-1.542,-1.542,-1.542,-1.542,-1.542,-1.542,-1.542,-1.542,-1.542,-1.542,-1.542,-1.542,-1.542,-1.542,-1.542,-1.542,-1.542,-1.542,-1.542,-1.542,-2.4176,-2.3972,-2.3365,-2.3095,-2.3095,-2.3095,-2.3095,-2.3095,-2.3095,-2.3095,-2.3095,-2.3095,-2.3095,-2.3058,-2.2644,-2.2406,-2.2196,-2.132,-2.0817,-2.0654,-2.0101,-1.9798,-1.9798,-1.9798,-1.9798,-1.9798,-1.9798,-1.9798,-1.9748,-1.9259,-1.887,-1.8569,-1.7661,-1.6647,-1.561,-1.5454,-1.5096,-1.456,-1.4949,-1.496,-1.4491,-1.3897,-1.3434,-1.3047,-1.2619,-1.2207,-1.1917,-1.2187,-1.2311,-1.2233,-1.2559,-1.2529,-1.2106,-1.2155,-1.2057,-1.1819,-1.2129,-1.235,-1.2369,-1.2686,-1.2915,-1.2915,-1.2915,-1.292,-1.3032,-1.3018,-1.3018,-1.3052,-1.3071,-1.3203,-1.3584,-1.3769,-1.3926,-1.4221,-1.4348,-1.4562,-1.4863,-1.4932,-1.5039,-1.5361,-1.542,-1.542,-1.542,-1.542,-1.542,-1.542,-1.542,-1.542,-1.542,-1.542,-1.542,-1.542,-1.542,-1.542,-1.542,-1.542,-1.542,-1.542,-1.542,-1.542,-1.542,-1.542,-1.542,-1.542,-1.542,-1.542,-1.542,-1.542,-1.542,-1.542,-1.542,-1.542,-1.542,-1.542,-1.542,-2.3897,-2.3245,-2.3125,-2.3095,-2.3095,-2.3095,-2.3095,-2.3095,-2.3095,-2.3095,-2.3095,-2.3095,-2.3095,-2.3095,-2.3032,-2.2744,-2.2255,-2.1694,-2.1169,-2.0666,-2.0062,-1.9798,-1.9798,-1.9798,-1.9798,-1.9798,-1.9798,-1.9773,-1.9709,-1.9221,-1.8519,-1.7593,-1.6838,-1.6191,-1.558,-1.5028,-1.4502,-1.3886,-1.3933,-1.3944,-1.3873,-1.3286,-1.2983,-1.2919,-1.2861,-1.2803,-1.2729,-1.2827,-1.2637,-1.2252,-1.2262,-1.21,-1.177,-1.1999,-1.2194,-1.2164,-1.2568,-1.2837,-1.2837,-1.2886,-1.2915,-1.2915,-1.2935,-1.3066,-1.3408,-1.3447,-1.3457,-1.3467,-1.3457,-1.3633,-1.4007,-1.4394,-1.4609,-1.4717,-1.5019,-1.5322,-1.5312,-1.5323,-1.5381,-1.54,-1.542,-1.542,-1.542,-1.542,-1.542,-1.542,-1.542,-1.542,-1.542,-1.542,-1.542,-1.542,-1.542,-1.542,-1.542,-1.542,-1.542,-1.542,-1.542,-1.542,-1.542,-1.542,-1.542,-1.542,-1.542,-1.542,-1.542,-1.542,-1.542,-1.542,-1.542,-1.542,-1.542,-1.542,-1.542,-2.3395,-2.3095,-2.3095,-2.3095,-2.3095,-2.3095,-2.3095,-2.3095,-2.3095,-2.3095,-2.3095,-2.3095,-2.3095,-2.3095,-2.3095,-2.2807,-2.2255,-2.1732,-2.1219,-2.0666,-2.0075,-1.9798,-1.9798,-1.9798,-1.9798,-1.9798,-1.9798,-1.9579,-1.9099,-1.8501,-1.7894,-1.7315,-1.6632,-1.5711,-1.4628,-1.4295,-1.3873,-1.3286,-1.3262,-1.3262,-1.3238,-1.3031,-1.2915,-1.2915,-1.2915,-1.2915,-1.2915,-1.2915,-1.2817,-1.2627,-1.2593,-1.2529,-1.2377,-1.252,-1.2607,-1.2617,-1.2798,-1.2915,-1.2915,-1.2915,-1.2988,-1.3232,-1.3252,-1.3428,-1.3828,-1.3851,-1.3948,-1.4189,-1.4033,-1.4026,-1.4463,-1.4705,-1.4911,-1.5117,-1.5322,-1.542,-1.542,-1.542,-1.542,-1.542,-1.542,-1.542,-1.542,-1.542,-1.542,-1.542,-1.542,-1.542,-1.542,-1.542,-1.542,-1.542,-1.542,-1.542,-1.542,-1.542,-1.542,-1.542,-1.542,-1.542,-1.542,-1.542,-1.542,-1.542,-1.542,-1.542,-1.542,-1.542,-1.542,-1.542,-1.542,-1.542,-1.542,-1.542,-1.542,-2.3095,-2.3095,-2.3095,-2.3095,-2.3095,-2.3095,-2.3095,-2.3095,-2.3095,-2.3095,-2.3095,-2.3095,-2.3095,-2.3083,-2.2945,-2.2656,-2.223,-2.1622,-2.1081,-2.0654,-2.0075,-1.9798,-1.9798,-1.9798,-1.9695,-1.9501,-1.9501,-1.9097,-1.8421,-1.7868,-1.7436,-1.7089,-1.6469,-1.5401,-1.41,-1.3824,-1.3446,-1.2964,-1.2915,-1.2915,-1.2905,-1.2915,-1.2915,-1.2915,-1.2915,-1.2915,-1.2915,-1.2915,-1.2915,-1.2905,-1.2915,-1.2915,-1.2915,-1.2915,-1.2915,-1.2915,-1.2915,-1.2964,-1.3047,-1.3071,-1.3232,-1.3613,-1.3656,-1.3831,-1.4182,-1.4289,-1.4512,-1.4863,-1.4658,-1.4621,-1.4883,-1.4951,-1.5098,-1.5381,-1.542,-1.542,-1.542,-1.542,-1.542,-1.542,-1.542,-1.542,-1.542,-1.542,-1.542,-1.542,-1.542,-1.542,-1.542,-1.542,-1.542,-1.542,-1.542,-1.542,-1.542,-1.542,-1.542,-1.542,-1.542,-1.542,-1.542,-1.542,-1.542,-1.542,-1.542,-1.542,-1.542,-1.542,-1.542,-1.542,-1.542,-1.542,-1.542,-1.542,-1.542,-2.3095,-2.3095,-2.3095,-2.3095,-2.3095,-2.3095,-2.3095,-2.3095,-2.3095,-2.3095,-2.3095,-2.3095,-2.3095,-2.3032,-2.2543,-2.2305,-2.2146,-2.127,-2.0754,-2.0591,-2.0075,-1.9798,-1.9798,-1.9798,-1.9437,-1.8886,-1.878,-1.8394,-1.7704,-1.7567,-1.731,-1.6803,-1.6192,-1.5374,-1.4385,-1.3781,-1.3322,-1.2993,-1.2925,-1.2915,-1.2915,-1.2915,-1.2915,-1.2915,-1.2915,-1.2915,-1.2915,-1.2915,-1.2915,-1.2915,-1.2915,-1.2915,-1.2915,-1.2915,-1.2915,-1.2915,-1.2925,-1.3066,-1.3389,-1.3467,-1.3636,-1.3997,-1.4085,-1.427,-1.4687,-1.4756,-1.4922,-1.5293,-1.5273,-1.5293,-1.5322,-1.5303,-1.5342,-1.54,-1.542,-1.542,-1.542,-1.542,-1.542,-1.542,-1.542,-1.542,-1.542,-1.542,-1.542,-1.542,-1.542,-1.542,-1.542,-1.542,-1.542,-1.542,-1.542,-1.542,-1.542,-1.542,-1.542,-1.542,-1.542,-1.542,-1.542,-1.542,-1.542,-1.542,-1.542,-1.542,-1.542,-1.542,-1.542,-1.542,-1.542,-1.542,-1.542,-1.542,-1.542,-2.3095,-2.3095,-2.3095,-2.3095,-2.3095,-2.3095,-2.3095,-2.3095,-2.3095,-2.3095,-2.3095,-2.3095,-2.2907,-2.2543,-2.2033,-2.1782,-2.1744,-2.1355,-2.0842,-2.0162,-1.9886,-1.9798,-1.9747,-1.9345,-1.8992,-1.87,-1.8232,-1.7868,-1.7523,-1.6687,-1.6231,-1.6126,-1.5519,-1.4844,-1.4224,-1.3726,-1.3428,-1.3271,-1.3052,-1.2915,-1.2915,-1.2915,-1.2915,-1.2915,-1.2915,-1.2915,-1.2915,-1.2915,-1.2915,-1.2915,-1.2915,-1.2915,-1.2915,-1.2915,-1.2915,-1.2935,-1.3135,-1.335,-1.349,-1.3734,-1.4092,-1.4492,-1.4551,-1.4699,-1.5078,-1.5186,-1.5254,-1.5381,-1.542,-1.542,-1.542,-1.542,-1.542,-1.542,-1.542,-1.542,-1.542,-1.542,-1.542,-1.542,-1.542,-1.542,-1.542,-1.542,-1.542,-1.542,-1.542,-1.542,-1.542,-1.542,-1.542,-1.542,-1.542,-1.542,-1.542,-1.542,-1.542,-1.542,-1.542,-1.542,-1.542,-1.542,-1.542,-1.542,-1.542,-1.542,-1.542,-1.542,-1.542,-1.542,-1.542,-1.542,-1.542,-1.542,-1.542,-2.3095,-2.3095,-2.3095,-2.3095,-2.3095,-2.3095,-2.3095,-2.3095,-2.3095,-2.3095,-2.3095,-2.3095,-2.2794,-2.2293,-2.192,-2.1378,-2.094,-2.0907,-2.0526,-1.9823,-1.9553,-1.9449,-1.9333,-1.8688,-1.8232,-1.7907,-1.7235,-1.6884,-1.68,-1.5882,-1.556,-1.5672,-1.5225,-1.4775,-1.4328,-1.4053,-1.3828,-1.3525,-1.3223,-1.3062,-1.2944,-1.2915,-1.2915,-1.2915,-1.2915,-1.2915,-1.2915,-1.2915,-1.2915,-1.2915,-1.2915,-1.2915,-1.2915,-1.2915,-1.2915,-1.2954,-1.3281,-1.3539,-1.3714,-1.4075,-1.4504,-1.4941,-1.5019,-1.5127,-1.5391,-1.542,-1.542,-1.542,-1.542,-1.542,-1.542,-1.542,-1.542,-1.542,-1.542,-1.542,-1.542,-1.542,-1.542,-1.542,-1.542,-1.542,-1.542,-1.542,-1.542,-1.542,-1.542,-1.542,-1.542,-1.542,-1.542,-1.542,-1.542,-1.542,-1.542,-1.542,-1.542,-1.542,-1.542,-1.542,-1.542,-1.542,-1.542,-1.542,-1.542,-1.542,-1.542,-1.542,-1.542,-1.542,-1.542,-1.542,-1.542,-1.542,-1.5449,-2.3095,-2.3095,-2.3095,-2.3095,-2.3095,-2.3095,-2.3095,-2.3095,-2.3095,-2.3095,-2.3095,-2.307,-2.2706,-2.2293,-2.1984,-2.121,-1.9915,-1.9814,-1.9739,-1.9514,-1.9001,-1.8724,-1.8635,-1.7922,-1.7246,-1.6595,-1.5835,-1.5497,-1.5584,-1.5468,-1.541,-1.542,-1.5409,-1.5146,-1.4813,-1.4705,-1.4307,-1.3721,-1.3496,-1.3271,-1.2964,-1.2915,-1.2915,-1.2915,-1.2915,-1.2915,-1.2915,-1.2915,-1.2915,-1.2915,-1.2915,-1.2915,-1.2915,-1.2915,-1.2915,-1.3013,-1.3301,-1.3675,-1.4104,-1.4541,-1.4961,-1.5264,-1.5352,-1.5361,-1.5391,-1.542,-1.542,-1.542,-1.542,-1.542,-1.542,-1.542,-1.542,-1.542,-1.542,-1.542,-1.542,-1.542,-1.542,-1.542,-1.542,-1.542,-1.542,-1.542,-1.542,-1.542,-1.542,-1.542,-1.542,-1.542,-1.542,-1.542,-1.542,-1.542,-1.542,-1.542,-1.542,-1.542,-1.542,-1.542,-1.542,-1.542,-1.542,-1.542,-1.542,-1.542,-1.542,-1.542,-1.542,-1.542,-1.542,-1.542,-1.543,-1.5449,-1.5518,-2.3095,-2.3095,-2.3095,-2.3095,-2.3095,-2.3095,-2.3095,-2.3095,-2.3095,-2.3095,-2.3032,-2.2706,-2.223,-2.1618,-2.0867,-1.9904,-1.9012,-1.883,-1.8596,-1.8325,-1.8359,-1.8214,-1.7843,-1.7202,-1.6454,-1.5796,-1.5526,-1.542,-1.542,-1.542,-1.542,-1.542,-1.542,-1.5352,-1.5195,-1.4932,-1.4482,-1.3958,-1.3627,-1.3301,-1.2954,-1.2915,-1.2915,-1.2915,-1.2915,-1.2915,-1.2915,-1.2915,-1.2915,-1.2915,-1.2915,-1.2915,-1.2915,-1.2915,-1.3018,-1.332,-1.3685,-1.4104,-1.4551,-1.4971,-1.5254,-1.5391,-1.542,-1.542,-1.542,-1.542,-1.542,-1.542,-1.542,-1.542,-1.542,-1.542,-1.542,-1.542,-1.542,-1.542,-1.542,-1.542,-1.542,-1.542,-1.542,-1.542,-1.542,-1.542,-1.542,-1.542,-1.542,-1.542,-1.542,-1.542,-1.542,-1.542,-1.542,-1.542,-1.542,-1.542,-1.542,-1.542,-1.542,-1.542,-1.542,-1.542,-1.542,-1.542,-1.542,-1.542,-1.542,-1.542,-1.542,-1.542,-1.542,-1.543,-1.5439,-1.5537,-1.5664,-2.3095,-2.3095,-2.3095,-2.3095,-2.3095,-2.3095,-2.3095,-2.307,-2.2882,-2.2794,-2.2652,-2.1944,-2.1272,-2.0652,-1.9666,-1.873,-1.7943,-1.7876,-1.7489,-1.7012,-1.7618,-1.7621,-1.7145,-1.6425,-1.5892,-1.5497,-1.542,-1.542,-1.542,-1.542,-1.542,-1.542,-1.542,-1.541,-1.5391,-1.5146,-1.4756,-1.4172,-1.4033,-1.3623,-1.3101,-1.3037,-1.3062,-1.2935,-1.2915,-1.2915,-1.2915,-1.2915,-1.2915,-1.2915,-1.2915,-1.2915,-1.2915,-1.3052,-1.3242,-1.3535,-1.4007,-1.4502,-1.4795,-1.5146,-1.542,-1.542,-1.542,-1.542,-1.542,-1.542,-1.542,-1.542,-1.542,-1.542,-1.542,-1.542,-1.542,-1.542,-1.542,-1.542,-1.542,-1.542,-1.542,-1.542,-1.542,-1.542,-1.542,-1.542,-1.542,-1.542,-1.542,-1.542,-1.542,-1.542,-1.542,-1.542,-1.542,-1.542,-1.542,-1.542,-1.542,-1.542,-1.542,-1.542,-1.542,-1.542,-1.542,-1.542,-1.542,-1.542,-1.542,-1.542,-1.542,-1.542,-1.5459,-1.542,-1.5478,-1.5781,-1.5968,-2.3095,-2.3095,-2.3095,-2.3047,-2.2975,-2.2944,-2.2834,-2.2722,-2.2325,-2.203,-2.177,-2.08,-2.0039,-1.945,-1.8697,-1.7698,-1.6782,-1.6963,-1.6581,-1.6114,-1.6581,-1.6903,-1.6392,-1.5806,-1.5497,-1.542,-1.542,-1.542,-1.542,-1.542,-1.542,-1.542,-1.542,-1.542,-1.54,-1.54,-1.498,-1.4348,-1.4551,-1.4121,-1.313,-1.3281,-1.332,-1.2993,-1.2935,-1.2915,-1.2915,-1.2915,-1.2915,-1.2915,-1.2954,-1.2983,-1.2993,-1.3291,-1.3539,-1.3633,-1.4336,-1.4707,-1.4893,-1.5195,-1.541,-1.542,-1.542,-1.542,-1.542,-1.542,-1.542,-1.542,-1.542,-1.542,-1.542,-1.542,-1.542,-1.542,-1.542,-1.542,-1.542,-1.542,-1.542,-1.542,-1.542,-1.542,-1.542,-1.542,-1.542,-1.542,-1.542,-1.542,-1.542,-1.542,-1.542,-1.542,-1.542,-1.542,-1.542,-1.542,-1.542,-1.542,-1.542,-1.542,-1.542,-1.542,-1.542,-1.542,-1.542,-1.542,-1.5459,-1.5488,-1.5537,-1.5605,-1.5566,-1.5469,-1.5703,-1.6113,-1.6305,-2.3095,-2.3095,-2.3095,-2.2763,-2.2249,-2.223,-2.1628,-2.0796,-2.0633,-2.0439,-1.9994,-1.9333,-1.8908,-1.8674,-1.7551,-1.6786,-1.6532,-1.6395,-1.6089,-1.5596,-1.6069,-1.6098,-1.577,-1.5526,-1.542,-1.542,-1.542,-1.542,-1.542,-1.542,-1.542,-1.542,-1.542,-1.542,-1.542,-1.542,-1.5146,-1.4697,-1.4707,-1.4465,-1.3798,-1.3481,-1.3457,-1.335,-1.3032,-1.2886,-1.2891,-1.2915,-1.2915,-1.2935,-1.3193,-1.3193,-1.2973,-1.3549,-1.3922,-1.3983,-1.4436,-1.4941,-1.5195,-1.5332,-1.541,-1.542,-1.5381,-1.542,-1.542,-1.5381,-1.541,-1.542,-1.542,-1.5391,-1.5391,-1.542,-1.542,-1.542,-1.542,-1.542,-1.542,-1.542,-1.542,-1.542,-1.542,-1.542,-1.542,-1.542,-1.542,-1.542,-1.542,-1.542,-1.542,-1.542,-1.542,-1.542,-1.542,-1.542,-1.542,-1.542,-1.542,-1.542,-1.542,-1.542,-1.542,-1.542,-1.542,-1.542,-1.542,-1.542,-1.5557,-1.5654,-1.5723,-1.5821,-1.6045,-1.6112,-1.6385,-1.6736,-1.6773,-2.194,-2.2206,-2.2091,-2.1803,-2.133,-2.1164,-2.0607,-1.9918,-1.9482,-1.9178,-1.88,-1.8008,-1.7656,-1.7538,-1.6522,-1.6036,-1.6019,-1.5871,-1.5664,-1.5498,-1.5694,-1.5654,-1.5449,-1.542,-1.542,-1.542,-1.542,-1.542,-1.542,-1.542,-1.542,-1.542,-1.542,-1.542,-1.542,-1.54,-1.5004,-1.4459,-1.4393,-1.4129,-1.315,-1.3077,-1.2905,-1.2742,-1.2413,-1.2175,-1.2045,-1.2024,-1.2255,-1.2802,-1.3252,-1.3237,-1.2824,-1.3787,-1.4221,-1.4004,-1.4599,-1.5176,-1.5342,-1.542,-1.5235,-1.5059,-1.5138,-1.4991,-1.4628,-1.4658,-1.4903,-1.4874,-1.4903,-1.505,-1.5352,-1.542,-1.542,-1.542,-1.542,-1.542,-1.542,-1.542,-1.542,-1.542,-1.542,-1.542,-1.542,-1.542,-1.542,-1.542,-1.542,-1.542,-1.542,-1.542,-1.542,-1.542,-1.542,-1.542,-1.542,-1.542,-1.542,-1.542,-1.5508,-1.5488,-1.5488,-1.5478,-1.5459,-1.5459,-1.543,-1.5478,-1.5664,-1.582,-1.5938,-1.6134,-1.6494,-1.6475,-1.6459,-1.6543,-1.6699,-2.0232,-2.0781,-2.0557,-2.0413,-2.0238,-1.987,-1.951,-1.9279,-1.8537,-1.8158,-1.7838,-1.6871,-1.6498,-1.6361,-1.5836,-1.5439,-1.5439,-1.5488,-1.5439,-1.542,-1.5469,-1.543,-1.543,-1.542,-1.542,-1.542,-1.542,-1.542,-1.542,-1.542,-1.5323,-1.5196,-1.5206,-1.5147,-1.4903,-1.4991,-1.4521,-1.3823,-1.3868,-1.3415,-1.2515,-1.2438,-1.2357,-1.1977,-1.156,-1.1258,-1.1065,-1.0998,-1.1426,-1.2645,-1.3112,-1.2865,-1.2502,-1.3755,-1.4082,-1.3758,-1.4264,-1.4924,-1.505,-1.4903,-1.4785,-1.4302,-1.4688,-1.4599,-1.3644,-1.3765,-1.4085,-1.4094,-1.4085,-1.4353,-1.4785,-1.5118,-1.505,-1.4962,-1.505,-1.5264,-1.5294,-1.5352,-1.542,-1.542,-1.542,-1.542,-1.542,-1.542,-1.542,-1.542,-1.542,-1.542,-1.542,-1.542,-1.542,-1.542,-1.542,-1.542,-1.542,-1.542,-1.542,-1.543,-1.5586,-1.5635,-1.5635,-1.5615,-1.5557,-1.5566,-1.5791,-1.582,-1.582,-1.5977,-1.6059,-1.6059,-1.6155,-1.5881,-1.5662,-1.5862,-1.6002,-1.9531,-1.965,-1.9603,-1.9174,-1.86,-1.8442,-1.7871,-1.7002,-1.6739,-1.6542,-1.6113,-1.5759,-1.5671,-1.5671,-1.5497,-1.542,-1.542,-1.542,-1.542,-1.542,-1.542,-1.542,-1.542,-1.542,-1.542,-1.542,-1.542,-1.542,-1.542,-1.5323,-1.5079,-1.456,-1.4451,-1.4145,-1.3674,-1.3726,-1.3438,-1.3151,-1.3218,-1.303,-1.2576,-1.2263,-1.206,-1.1691,-1.1149,-1.0885,-1.0821,-1.0813,-1.1081,-1.16,-1.1985,-1.2062,-1.2086,-1.2871,-1.3185,-1.302,-1.3199,-1.3606,-1.3554,-1.3636,-1.3485,-1.3364,-1.3485,-1.3373,-1.3161,-1.31,-1.3243,-1.3282,-1.3282,-1.3364,-1.3704,-1.4154,-1.4181,-1.3971,-1.4189,-1.4497,-1.4588,-1.503,-1.5381,-1.542,-1.542,-1.542,-1.542,-1.542,-1.542,-1.542,-1.542,-1.542,-1.542,-1.542,-1.542,-1.542,-1.542,-1.542,-1.5449,-1.5449,-1.5496,-1.5435,-1.554,-1.552,-1.552,-1.5653,-1.556,-1.5848,-1.6289,-1.6208,-1.5948,-1.591,-1.5965,-1.5891,-1.571,-1.5418,-1.524,-1.5297,-1.5027,-1.8008,-1.8278,-1.8134,-1.7822,-1.7389,-1.7185,-1.6718,-1.6136,-1.586,-1.5635,-1.5459,-1.542,-1.542,-1.542,-1.542,-1.542,-1.542,-1.542,-1.542,-1.542,-1.542,-1.542,-1.542,-1.542,-1.542,-1.542,-1.542,-1.542,-1.5352,-1.5021,-1.4599,-1.4174,-1.3855,-1.3494,-1.307,-1.2948,-1.2818,-1.2465,-1.2412,-1.2234,-1.1692,-1.1421,-1.1195,-1.085,-1.0357,-1.0098,-1.0243,-1.012,-1.0302,-1.0666,-1.0977,-1.1212,-1.16,-1.2381,-1.2649,-1.2337,-1.2687,-1.297,-1.3009,-1.2978,-1.2887,-1.2481,-1.2765,-1.2458,-1.2274,-1.2182,-1.2451,-1.2451,-1.2451,-1.2543,-1.2948,-1.3274,-1.3354,-1.3386,-1.3535,-1.3881,-1.4162,-1.4849,-1.542,-1.542,-1.542,-1.542,-1.542,-1.5264,-1.5294,-1.5264,-1.5294,-1.5294,-1.5381,-1.5381,-1.542,-1.542,-1.542,-1.543,-1.5469,-1.5507,-1.5616,-1.5524,-1.5442,-1.5241,-1.5062,-1.5285,-1.5474,-1.5871,-1.623,-1.611,-1.592,-1.5878,-1.5595,-1.5282,-1.506,-1.4882,-1.4684,-1.4451,-1.4007,-1.6367,-1.6913,-1.6614,-1.6502,-1.6443,-1.6153,-1.6017,-1.5919,-1.5576,-1.5449,-1.542,-1.542,-1.542,-1.542,-1.542,-1.542,-1.542,-1.542,-1.542,-1.542,-1.542,-1.542,-1.5381,-1.5235,-1.5118,-1.5196,-1.5138,-1.5138,-1.4932,-1.4451,-1.3846,-1.3696,-1.3174,-1.2634,-1.2612,-1.2581,-1.2212,-1.1686,-1.1586,-1.1327,-1.0561,-1.0343,-1.0139,-0.9875,-0.9671,-0.9589,-0.9726,-0.9622,-0.9632,-1.0037,-1.012,-1.0437,-1.1104,-1.1859,-1.2397,-1.164,-1.2112,-1.2328,-1.2336,-1.2397,-1.2205,-1.1648,-1.2143,-1.1973,-1.1178,-1.1233,-1.1531,-1.1679,-1.1772,-1.2058,-1.2614,-1.2855,-1.2923,-1.3004,-1.314,-1.3421,-1.3819,-1.4577,-1.5014,-1.5252,-1.5211,-1.5191,-1.4999,-1.4844,-1.4962,-1.5079,-1.5079,-1.5079,-1.5108,-1.505,-1.4844,-1.4697,-1.451,-1.4565,-1.462,-1.5108,-1.5251,-1.5133,-1.5077,-1.4911,-1.4681,-1.4865,-1.5169,-1.5709,-1.5984,-1.5816,-1.5545,-1.5223,-1.4922,-1.4586,-1.4202,-1.385,-1.3665,-1.3491,-1.3135,-1.5576,-1.5693,-1.5635,-1.5605,-1.5595,-1.5547,-1.5547,-1.5508,-1.5449,-1.542,-1.542,-1.542,-1.542,-1.542,-1.542,-1.542,-1.542,-1.542,-1.542,-1.5391,-1.5352,-1.5294,-1.5206,-1.4658,-1.4421,-1.4392,-1.4332,-1.4293,-1.4213,-1.3606,-1.2962,-1.2358,-1.2074,-1.1741,-1.1296,-1.1021,-1.117,-1.1007,-1.0892,-1.0666,-1.0467,-1.0174,-0.9987,-0.9762,-0.9619,-0.9653,-0.9715,-0.9673,-0.9766,-1.0037,-1.0083,-1.0346,-1.0681,-1.101,-1.1045,-1.1021,-1.1083,-1.1327,-1.1264,-1.1108,-1.0989,-1.0832,-1.1083,-1.1108,-1.0713,-1.0719,-1.0947,-1.1087,-1.1401,-1.1703,-1.137,-1.1998,-1.2087,-1.2066,-1.239,-1.2837,-1.3076,-1.3679,-1.4354,-1.4626,-1.4776,-1.4827,-1.452,-1.4186,-1.4064,-1.4025,-1.3995,-1.3965,-1.3936,-1.3825,-1.3631,-1.3472,-1.3334,-1.3462,-1.3609,-1.4276,-1.4647,-1.4413,-1.4338,-1.4477,-1.4368,-1.4507,-1.4798,-1.4875,-1.524,-1.5377,-1.5063,-1.4649,-1.4206,-1.3851,-1.3331,-1.2835,-1.2879,-1.2915,-1.2776,-1.542,-1.542,-1.542,-1.542,-1.542,-1.542,-1.542,-1.542,-1.542,-1.542,-1.542,-1.542,-1.542,-1.542,-1.542,-1.542,-1.541,-1.542,-1.542,-1.5352,-1.4982,-1.4785,-1.4688,-1.3936,-1.3666,-1.3455,-1.3205,-1.3235,-1.3455,-1.2757,-1.2174,-1.1834,-1.1437,-1.0951,-1.0681,-1.0649,-1.0586,-1.0573,-1.0466,-1.0378,-1.0352,-1.006,-0.988,-0.99,-0.98,-0.9846,-1.011,-0.996,-1.0053,-1.0287,-1.0354,-1.0459,-1.0539,-1.0586,-1.0586,-1.0586,-1.0586,-1.0586,-1.0586,-1.0586,-1.0618,-1.0618,-1.0586,-1.0586,-1.0586,-1.0631,-1.0653,-1.087,-1.1014,-1.1337,-1.1283,-1.1631,-1.1689,-1.1778,-1.2068,-1.2312,-1.2621,-1.3279,-1.3658,-1.3933,-1.3944,-1.3947,-1.3845,-1.3506,-1.3141,-1.3009,-1.2948,-1.2887,-1.2826,-1.2821,-1.2739,-1.2963,-1.2964,-1.3148,-1.3306,-1.3686,-1.3978,-1.3738,-1.3661,-1.3785,-1.3674,-1.3615,-1.3476,-1.3364,-1.3835,-1.4657,-1.447,-1.4014,-1.3534,-1.3135,-1.2806,-1.2519,-1.2415,-1.2305,-1.2305,-1.542,-1.542,-1.542,-1.542,-1.542,-1.542,-1.542,-1.542,-1.542,-1.542,-1.542,-1.542,-1.542,-1.542,-1.542,-1.541,-1.5381,-1.5264,-1.5089,-1.4932,-1.4323,-1.3974,-1.3726,-1.3243,-1.2757,-1.2626,-1.202,-1.1989,-1.2481,-1.1934,-1.1617,-1.1351,-1.0832,-1.0586,-1.0586,-1.0586,-1.0586,-1.0512,-1.0378,-1.0207,-1.0074,-0.9973,-0.9913,-1.0114,-0.997,-1.0137,-1.0452,-1.0345,-1.0345,-1.0492,-1.0566,-1.0579,-1.0586,-1.0586,-1.0586,-1.0586,-1.0586,-1.0586,-1.0586,-1.0586,-1.0586,-1.0586,-1.0586,-1.0586,-1.0586,-1.0613,-1.07,-1.0922,-1.1022,-1.1209,-1.143,-1.1551,-1.1698,-1.1899,-1.2,-1.2089,-1.2406,-1.2796,-1.3028,-1.3177,-1.3112,-1.3089,-1.306,-1.2546,-1.2131,-1.1981,-1.1911,-1.1965,-1.1957,-1.2195,-1.2285,-1.2687,-1.2879,-1.3071,-1.321,-1.3305,-1.3359,-1.3077,-1.3035,-1.3129,-1.2831,-1.2545,-1.2478,-1.2663,-1.315,-1.3839,-1.3593,-1.3419,-1.3025,-1.2666,-1.2415,-1.2305,-1.2305,-1.2305,-1.2305,-1.542,-1.542,-1.542,-1.542,-1.542,-1.542,-1.542,-1.542,-1.542,-1.542,-1.542,-1.542,-1.542,-1.5391,-1.5352,-1.5352,-1.5167,-1.4628,-1.4332,-1.4213,-1.3545,-1.3152,-1.3031,-1.2328,-1.1989,-1.1834,-1.1163,-1.1257,-1.1624,-1.1163,-1.08,-1.0776,-1.0744,-1.0586,-1.0586,-1.0586,-1.0586,-1.0579,-1.0546,-1.0405,-1.0194,-1.0325,-1.0318,-1.0241,-1.0301,-1.0459,-1.0573,-1.0506,-1.0539,-1.0559,-1.0586,-1.0586,-1.0586,-1.0586,-1.0586,-1.0586,-1.0586,-1.0586,-1.0586,-1.0586,-1.0586,-1.0586,-1.0586,-1.0586,-1.0633,-1.066,-1.0767,-1.0955,-1.1029,-1.1296,-1.1739,-1.1846,-1.2007,-1.2098,-1.2191,-1.2211,-1.2378,-1.2445,-1.267,-1.2601,-1.2648,-1.2482,-1.2387,-1.171,-1.1115,-1.1008,-1.0933,-1.1042,-1.1249,-1.1639,-1.1858,-1.226,-1.2535,-1.2723,-1.2838,-1.2977,-1.2906,-1.2535,-1.2554,-1.2586,-1.2445,-1.2305,-1.2305,-1.2542,-1.2945,-1.3055,-1.2915,-1.2703,-1.2445,-1.2378,-1.2305,-1.2305,-1.2305,-1.2305,-1.2305,-1.542,-1.542,-1.542,-1.542,-1.542,-1.542,-1.542,-1.542,-1.542,-1.542,-1.542,-1.542,-1.542,-1.5264,-1.4991,-1.4697,-1.454,-1.3876,-1.3515,-1.3334,-1.2757,-1.2336,-1.212,-1.1538,-1.1139,-1.1076,-1.0832,-1.0769,-1.0919,-1.0863,-1.0586,-1.0586,-1.0586,-1.0586,-1.0586,-1.0586,-1.0586,-1.0586,-1.0559,-1.0432,-1.0267,-1.0405,-1.0526,-1.0374,-1.0526,-1.0573,-1.0586,-1.0586,-1.0586,-1.0586,-1.0586,-1.0586,-1.0586,-1.0586,-1.0586,-1.0586,-1.0586,-1.0586,-1.0586,-1.0586,-1.0586,-1.0593,-1.0606,-1.066,-1.078,-1.0861,-1.1048,-1.1491,-1.149,-1.1725,-1.1991,-1.2098,-1.2171,-1.2258,-1.2305,-1.2305,-1.2305,-1.2305,-1.2352,-1.2275,-1.2201,-1.2178,-1.2037,-1.1564,-1.1162,-1.1032,-1.0968,-1.096,-1.1231,-1.156,-1.1731,-1.1846,-1.2126,-1.2315,-1.2408,-1.249,-1.2592,-1.2398,-1.2398,-1.2415,-1.2378,-1.2305,-1.2305,-1.2305,-1.2519,-1.2519,-1.2305,-1.2305,-1.2342,-1.2342,-1.2305,-1.2305,-1.2305,-1.2305,-1.2331,-1.542,-1.542,-1.542,-1.542,-1.542,-1.542,-1.542,-1.542,-1.542,-1.542,-1.5323,-1.5177,-1.4991,-1.4717,-1.4183,-1.3885,-1.3846,-1.3061,-1.2757,-1.242,-1.1965,-1.1562,-1.1351,-1.0863,-1.0649,-1.0586,-1.0649,-1.0649,-1.0618,-1.0586,-1.0586,-1.0586,-1.0586,-1.0586,-1.0586,-1.0586,-1.0586,-1.0586,-1.0586,-1.0479,-1.0358,-1.0479,-1.0566,-1.0579,-1.0586,-1.0586,-1.0586,-1.0586,-1.0586,-1.0586,-1.0586,-1.0586,-1.0586,-1.0586,-1.0586,-1.0586,-1.0586,-1.0586,-1.0586,-1.0586,-1.0586,-1.0613,-1.0693,-1.0814,-1.0929,-1.1042,-1.1303,-1.1799,-1.1832,-1.2007,-1.2218,-1.2285,-1.2285,-1.2285,-1.2305,-1.2305,-1.2305,-1.2305,-1.2305,-1.2278,-1.2238,-1.2191,-1.2007,-1.1579,-1.1263,-1.1109,-1.1009,-1.0975,-1.1256,-1.1645,-1.1812,-1.1911,-1.2051,-1.2238,-1.2258,-1.2285,-1.2305,-1.2305,-1.2305,-1.2305,-1.2305,-1.2305,-1.2305,-1.2305,-1.2305,-1.2305,-1.2305,-1.2305,-1.2305,-1.2305,-1.2305,-1.2305,-1.2305,-1.2311,-1.2331,-1.542,-1.542,-1.5381,-1.5352,-1.542,-1.542,-1.542,-1.5381,-1.5381,-1.5294,-1.5089,-1.4628,-1.3914,-1.3403,-1.3243,-1.3092,-1.3039,-1.2235,-1.1958,-1.1624,-1.1139,-1.0863,-1.0737,-1.0713,-1.0586,-1.0586,-1.0586,-1.0586,-1.0586,-1.0586,-1.0586,-1.0586,-1.0586,-1.0586,-1.0586,-1.0586,-1.0586,-1.0586,-1.0586,-1.0586,-1.0526,-1.0566,-1.0579,-1.0586,-1.0586,-1.0586,-1.0586,-1.0586,-1.0586,-1.0586,-1.0586,-1.0586,-1.0586,-1.0586,-1.0586,-1.0586,-1.0586,-1.0586,-1.0586,-1.0593,-1.06,-1.0667,-1.0827,-1.1002,-1.1142,-1.1303,-1.1557,-1.1893,-1.1986,-1.208,-1.2218,-1.2305,-1.2305,-1.2305,-1.2305,-1.2305,-1.2305,-1.2305,-1.2305,-1.2305,-1.2278,-1.2238,-1.2198,-1.1837,-1.1583,-1.143,-1.139,-1.1357,-1.1544,-1.1873,-1.204,-1.2131,-1.2211,-1.2291,-1.2291,-1.2305,-1.2305,-1.2305,-1.2305,-1.2305,-1.2305,-1.2305,-1.2305,-1.2305,-1.2305,-1.2305,-1.2331,-1.2385,-1.2405,-1.2331,-1.2305,-1.2305,-1.2345,-1.2385,-1.2378,-1.3944,-1.3906,-1.3906,-1.4481,-1.542,-1.542,-1.542,-1.5323,-1.4894,-1.4362,-1.3944,-1.3584,-1.3312,-1.2909,-1.2412,-1.2258,-1.2143,-1.1445,-1.1163,-1.0982,-1.0744,-1.0618,-1.0586,-1.0586,-1.0586,-1.0586,-1.0586,-1.0586,-1.0586,-1.0586,-1.0586,-1.0586,-1.0586,-1.0586,-1.0586,-1.0586,-1.0586,-1.0586,-1.0586,-1.0586,-1.0586,-1.0586,-1.0586,-1.0586,-1.0586,-1.0586,-1.0586,-1.0586,-1.0586,-1.0586,-1.0586,-1.0586,-1.0586,-1.0586,-1.0586,-1.0586,-1.0586,-1.0586,-1.06,-1.0613,-1.0667,-1.0868,-1.1089,-1.1323,-1.1443,-1.1637,-1.1837,-1.2031,-1.2118,-1.2191,-1.2258,-1.2305,-1.2305,-1.2305,-1.2305,-1.2305,-1.2305,-1.2305,-1.2305,-1.2305,-1.2305,-1.2291,-1.2258,-1.2191,-1.1957,-1.1764,-1.1737,-1.1744,-1.1919,-1.204,-1.2144,-1.2225,-1.2285,-1.2305,-1.2305,-1.2305,-1.2305,-1.2305,-1.2305,-1.2305,-1.2305,-1.2305,-1.2305,-1.2305,-1.2305,-1.2305,-1.2365,-1.2522,-1.2536,-1.2418,-1.2351,-1.2305,-1.2365,-1.2485,-1.2532,-1.3009,-1.3009,-1.3009,-1.3644,-1.4628,-1.4688,-1.4688,-1.4599,-1.4094,-1.3394,-1.2665,-1.2634,-1.2481,-1.2182,-1.1748,-1.1437,-1.132,-1.0919,-1.0713,-1.0618,-1.0618,-1.0586,-1.0586,-1.0586,-1.0586,-1.0586,-1.0586,-1.0586,-1.0586,-1.0586,-1.0586,-1.0586,-1.0586,-1.0586,-1.0586,-1.0586,-1.0586,-1.0586,-1.0586,-1.0586,-1.0586,-1.0586,-1.0586,-1.0586,-1.0586,-1.0586,-1.0586,-1.0586,-1.0586,-1.0586,-1.0586,-1.0586,-1.0586,-1.0586,-1.0586,-1.0586,-1.0586,-1.0586,-1.0606,-1.0707,-1.0847,-1.1102,-1.139,-1.1637,-1.1852,-1.1973,-1.2111,-1.2225,-1.2291,-1.2305,-1.2305,-1.2305,-1.2305,-1.2305,-1.2305,-1.2305,-1.2305,-1.2305,-1.2305,-1.2305,-1.2305,-1.2305,-1.2291,-1.2265,-1.2178,-1.2024,-1.2024,-1.2011,-1.2058,-1.2158,-1.2231,-1.2285,-1.2298,-1.2305,-1.2305,-1.2305,-1.2305,-1.2305,-1.2305,-1.2305,-1.2305,-1.2305,-1.2305,-1.2305,-1.2305,-1.2305,-1.2398,-1.2569,-1.2569,-1.2492,-1.2518,-1.2612,-1.2705,-1.2839,-1.2859,-1.2948,-1.3009,-1.2917,-1.2948,-1.3061,-1.31,-1.3152,-1.3304,-1.3061,-1.2573,-1.1865,-1.1834,-1.1437,-1.0958,-1.0863,-1.0832,-1.08,-1.0681,-1.0586,-1.0586,-1.0586,-1.0586,-1.0586,-1.0586,-1.0586,-1.0586,-1.0586,-1.0586,-1.0586,-1.0586,-1.0586,-1.0586,-1.0586,-1.0586,-1.0586,-1.0586,-1.0586,-1.0586,-1.0586,-1.0586,-1.0586,-1.0586,-1.0586,-1.0586,-1.0586,-1.0586,-1.0333,-1.0333,-1.0269,-1.0072,-1.0136,-1.0136,-1.0136,-1.0333,-1.0428,-1.0428,-1.0555,-1.06,-1.064,-1.0874,-1.1136,-1.1375,-1.169,-1.1919,-1.1986,-1.2098,-1.2251,-1.2305,-1.2305,-1.2305,-1.2305,-1.2305,-1.2305,-1.2305,-1.2305,-1.2305,-1.2305,-1.2305,-1.2305,-1.2305,-1.2305,-1.2305,-1.2305,-1.2305,-1.2298,-1.2265,-1.2291,-1.2285,-1.2245,-1.2251,-1.2298,-1.2305,-1.2305,-1.2305,-1.2305,-1.2305,-1.2305,-1.2305,-1.2305,-1.2305,-1.2305,-1.2305,-1.2305,-1.2311,-1.2378,-1.2445,-1.2505,-1.261,-1.2804,-1.2993,-1.2993,-1.3066,-1.314,-1.3173,-1.3186,-1.1421,-1.1421,-1.1421,-1.1389,-1.1577,-1.2551,-1.3009,-1.2909,-1.242,-1.1748,-1.1108,-1.0989,-1.0895,-1.0649,-1.0586,-1.0586,-1.0586,-1.0586,-1.0586,-1.0586,-1.0586,-1.0586,-1.0586,-1.0586,-1.0586,-1.0586,-1.0586,-1.0586,-1.0586,-1.0586,-1.0586,-1.0586,-1.046,-1.0586,-1.0586,-1.0586,-1.0586,-1.0586,-1.0586,-1.0586,-1.0586,-1.0555,-1.0586,-1.0555,-1.0555,-1.0364,-0.9881,-0.9856,-0.962,-0.9192,-0.9128,-0.9064,-0.916,-0.9358,-0.9754,-0.9913,-1.0117,-1.0801,-1.1062,-1.1396,-1.1638,-1.1748,-1.1944,-1.2118,-1.2184,-1.2231,-1.2291,-1.2305,-1.2305,-1.2305,-1.2305,-1.2305,-1.2305,-1.2305,-1.2305,-1.2305,-1.2305,-1.2305,-1.2305,-1.2305,-1.2305,-1.2305,-1.2305,-1.2305,-1.2305,-1.2305,-1.2305,-1.2305,-1.2278,-1.2278,-1.2305,-1.2305,-1.2305,-1.2305,-1.2305,-1.2305,-1.2305,-1.2305,-1.2305,-1.2305,-1.2305,-1.2305,-1.2338,-1.2358,-1.2522,-1.2643,-1.2797,-1.2959,-1.3353,-1.3567,-1.3474,-1.3353,-1.332,-1.34,-1.3453,-1.0586,-1.0586,-1.0586,-1.0586,-1.0776,-1.1725,-1.2182,-1.2058,-1.1593,-1.1076,-1.0681,-1.0586,-1.0586,-1.0586,-1.0586,-1.0586,-1.0586,-1.0586,-1.0586,-1.0586,-1.0586,-1.0586,-1.0586,-1.0586,-1.0586,-1.0586,-1.0586,-1.0586,-1.0586,-1.0586,-1.0396,-1.0136,-1.0136,-0.9811,-0.9875,-1.0002,-1.0586,-1.0586,-1.0586,-1.0396,-1.0333,-1.0301,-1.0428,-1.0301,-1.0238,-1.0238,-0.9594,-0.9172,-0.8877,-0.8221,-0.7962,-0.7962,-0.8156,-0.8452,-0.8844,-0.9102,-0.9297,-0.9894,-1.0216,-1.0909,-1.1057,-1.142,-1.1948,-1.2248,-1.2305,-1.2298,-1.2298,-1.2305,-1.2305,-1.2305,-1.2305,-1.2305,-1.2305,-1.2305,-1.2305,-1.2305,-1.2305,-1.2305,-1.2305,-1.2305,-1.2305,-1.2305,-1.2305,-1.2305,-1.2305,-1.2305,-1.2305,-1.2305,-1.2305,-1.2305,-1.2305,-1.2305,-1.2305,-1.2305,-1.2305,-1.2305,-1.2305,-1.2305,-1.2305,-1.2305,-1.2305,-1.2311,-1.2358,-1.2476,-1.263,-1.2831,-1.3086,-1.3367,-1.3634,-1.3774,-1.3768,-1.3647,-1.3527,-1.3607,-1.37,-1.0586,-1.0586,-1.0586,-1.0586,-1.0618,-1.0744,-1.0719,-1.0649,-1.0649,-1.0624,-1.0586,-1.0586,-1.0586,-1.0586,-1.0586,-1.0586,-1.0586,-1.0586,-1.0586,-1.0586,-1.0586,-1.0586,-1.0586,-1.0586,-1.0586,-1.0586,-1.0586,-1.0586,-1.0586,-1.0333,-0.9945,-0.9524,-0.9332,-0.9005,-0.9,-0.9384,-1.0034,-1.0002,-0.997,-0.9684,-0.946,-0.9849,-0.9716,-0.9588,-0.9652,-0.9518,-0.9069,-0.8748,-0.8355,-0.7962,-0.7735,-0.7767,-0.7864,-0.7929,-0.7962,-0.8064,-0.8166,-0.857,-0.9,-0.9845,-1.0258,-1.0703,-1.1434,-1.1966,-1.2305,-1.2305,-1.2305,-1.2305,-1.2305,-1.2305,-1.2305,-1.2305,-1.2305,-1.2305,-1.2305,-1.2305,-1.2305,-1.2305,-1.2305,-1.2305,-1.2305,-1.2305,-1.2305,-1.2305,-1.2305,-1.2305,-1.2305,-1.2305,-1.2305,-1.2305,-1.2305,-1.2305,-1.2305,-1.2305,-1.2305,-1.2305,-1.2305,-1.2305,-1.2305,-1.2305,-1.2305,-1.2371,-1.2516,-1.2636,-1.2777,-1.3038,-1.3414,-1.3634,-1.3726,-1.3868,-1.3921,-1.3921,-1.3788,-1.3861,-1.3975,-1.0586,-1.0586,-1.0586,-1.0586,-1.0586,-1.0586,-1.0586,-1.0586,-1.0586,-1.0586,-1.0586,-1.0586,-1.0586,-1.0586,-1.0586,-1.0586,-1.0586,-1.0586,-1.0586,-1.0555,-1.046,-1.0555,-1.0523,-1.0428,-1.0523,-1.0523,-1.0491,-1.0358,-1.0326,-1.0072,-0.9626,-0.93,-0.8613,-0.8188,-0.8156,-0.8511,-0.864,-0.8839,-0.8865,-0.8742,-0.8549,-0.8775,-0.8646,-0.8646,-0.8742,-0.8479,-0.7924,-0.7665,-0.7181,-0.647,-0.6243,-0.6178,-0.6141,-0.6724,-0.7214,-0.7975,-0.8253,-0.8528,-0.8689,-0.9176,-0.9596,-0.9686,-1.0158,-1.1062,-1.1706,-1.2157,-1.2157,-1.2268,-1.2268,-1.2305,-1.2305,-1.2305,-1.2305,-1.2305,-1.2305,-1.2305,-1.2305,-1.2305,-1.2305,-1.2305,-1.2305,-1.2305,-1.2305,-1.2305,-1.2305,-1.2305,-1.2305,-1.2305,-1.2305,-1.2305,-1.2305,-1.2305,-1.2305,-1.2305,-1.2305,-1.2305,-1.2305,-1.2305,-1.2345,-1.2392,-1.2452,-1.2532,-1.2677,-1.2871,-1.3125,-1.3447,-1.3854,-1.3968,-1.3941,-1.3988,-1.4035,-1.4062,-1.4088,-1.4088,-1.4088,-1.0586,-1.0586,-1.0586,-1.0586,-1.0586,-1.0586,-1.0586,-1.0586,-1.0586,-1.0586,-1.0586,-1.0586,-1.0586,-1.0586,-1.0586,-1.0586,-1.0586,-1.0561,-1.0434,-1.0009,-1.0079,-0.9716,-0.9684,-0.9614,-0.9454,-0.9582,-0.9614,-0.9358,-0.9486,-0.9166,-0.8683,-0.8124,-0.7632,-0.734,-0.7051,-0.6924,-0.6924,-0.7246,-0.754,-0.7665,-0.7702,-0.7735,-0.78,-0.7572,-0.7702,-0.7409,-0.6822,-0.6687,-0.6235,-0.5557,-0.5428,-0.5395,-0.5458,-0.5976,-0.6268,-0.6878,-0.703,-0.7194,-0.7375,-0.8125,-0.851,-0.8779,-0.9036,-0.99,-1.0683,-1.1205,-1.1737,-1.215,-1.2231,-1.2305,-1.2305,-1.2305,-1.2305,-1.2305,-1.2305,-1.2305,-1.2305,-1.2305,-1.2305,-1.2305,-1.2305,-1.2305,-1.2305,-1.2305,-1.2305,-1.2305,-1.2305,-1.2305,-1.2305,-1.2305,-1.2305,-1.2305,-1.2305,-1.2305,-1.2311,-1.2338,-1.2398,-1.2452,-1.2569,-1.2616,-1.2619,-1.2779,-1.2973,-1.3233,-1.3514,-1.3808,-1.4041,-1.4062,-1.4055,-1.4088,-1.4088,-1.4088,-1.4088,-1.4088,-1.4088,-1.0586,-1.0586,-1.0586,-1.0586,-1.0586,-1.0586,-1.053,-1.0523,-1.0396,-1.053,-1.0561,-1.0586,-1.0523,-1.0333,-1.0301,-1.0199,-1.0034,-0.997,-0.9652,-0.9204,-0.9204,-0.8909,-0.8479,-0.8059,-0.8479,-0.8221,-0.8156,-0.8544,-0.8156,-0.7929,-0.7535,-0.6719,-0.6621,-0.6367,-0.5914,-0.5818,-0.5918,-0.6079,-0.6728,-0.7149,-0.692,-0.7149,-0.7474,-0.6887,-0.7079,-0.7307,-0.6756,-0.6433,-0.6239,-0.5686,-0.5395,-0.5395,-0.5425,-0.5458,-0.5557,-0.5665,-0.6005,-0.6137,-0.6471,-0.7069,-0.7447,-0.7922,-0.8499,-0.8917,-0.9442,-1.0602,-1.1354,-1.1848,-1.1922,-1.2231,-1.2305,-1.2305,-1.2305,-1.2305,-1.2305,-1.2305,-1.2305,-1.2305,-1.2305,-1.2305,-1.2305,-1.2305,-1.2305,-1.2305,-1.2305,-1.2305,-1.2305,-1.2305,-1.2305,-1.2305,-1.2318,-1.2318,-1.2305,-1.2311,-1.2338,-1.2392,-1.2556,-1.2636,-1.2757,-1.2871,-1.2926,-1.312,-1.334,-1.3574,-1.3794,-1.3921,-1.4082,-1.4088,-1.4088,-1.4088,-1.4088,-1.4088,-1.4095,-1.4115,-1.4195,-1.0586,-1.0586,-1.0586,-1.0586,-1.0586,-1.0586,-1.0168,-0.9626,-0.9594,-0.9945,-1.0498,-1.0491,-1.0168,-0.9658,-0.9594,-0.939,-0.8871,-0.9,-0.8544,-0.8388,-0.8323,-0.8091,-0.7929,-0.7665,-0.7832,-0.7994,-0.7994,-0.7767,-0.7637,-0.7279,-0.6948,-0.6588,-0.6203,-0.562,-0.5425,-0.5395,-0.5425,-0.5458,-0.5818,-0.6239,-0.6046,-0.5851,-0.5851,-0.5785,-0.6046,-0.6141,-0.5815,-0.5752,-0.562,-0.5395,-0.5395,-0.5395,-0.5395,-0.5395,-0.5395,-0.544,-0.5634,-0.5735,-0.5937,-0.6362,-0.6679,-0.6723,-0.7096,-0.7514,-0.8385,-0.9884,-1.0858,-1.1279,-1.1694,-1.2003,-1.2231,-1.2231,-1.2305,-1.2305,-1.2305,-1.2305,-1.2305,-1.2305,-1.2305,-1.2305,-1.2305,-1.2305,-1.2305,-1.2305,-1.2305,-1.2305,-1.2305,-1.2305,-1.2305,-1.2311,-1.2351,-1.2351,-1.2311,-1.2318,-1.2371,-1.2498,-1.2697,-1.2884,-1.3032,-1.3106,-1.3233,-1.3427,-1.3627,-1.3841,-1.4035,-1.4082,-1.4088,-1.4088,-1.4088,-1.4088,-1.4088,-1.4088,-1.4175,-1.4222,-1.4335,-1.0015,-0.9983,-0.9614,-0.9684,-0.9919,-0.962,-0.916,-0.8775,-0.8716,-0.9005,-0.9384,-0.9422,-0.9166,-0.8716,-0.871,-0.8517,-0.7962,-0.8027,-0.7795,-0.7572,-0.7377,-0.7083,-0.7051,-0.6953,-0.6728,-0.6826,-0.6826,-0.6728,-0.6859,-0.6498,-0.6075,-0.6075,-0.5591,-0.5395,-0.5395,-0.5395,-0.5395,-0.5395,-0.5395,-0.5395,-0.5395,-0.5395,-0.5395,-0.5395,-0.5395,-0.5395,-0.5395,-0.5395,-0.5395,-0.5395,-0.5395,-0.5395,-0.5395,-0.5395,-0.5436,-0.5539,-0.5664,-0.583,-0.5945,-0.6129,-0.6289,-0.63,-0.6296,-0.6945,-0.7138,-0.8533,-0.9508,-1.0002,-1.0975,-1.1428,-1.1694,-1.1768,-1.215,-1.2305,-1.2305,-1.2305,-1.2305,-1.2305,-1.2305,-1.2305,-1.2305,-1.2305,-1.2305,-1.2305,-1.2305,-1.2305,-1.2305,-1.222,-1.2251,-1.2276,-1.2326,-1.2452,-1.2458,-1.2478,-1.2596,-1.2737,-1.2884,-1.3039,-1.326,-1.346,-1.3627,-1.3754,-1.3915,-1.4015,-1.4075,-1.4082,-1.4088,-1.4088,-1.4088,-1.4088,-1.4088,-1.4088,-1.4202,-1.4349,-1.4522,-0.9139,-0.9011,-0.8355,-0.8452,-0.8979,-0.835,-0.7962,-0.7827,-0.7832,-0.7762,-0.767,-0.767,-0.7702,-0.7827,-0.7827,-0.7767,-0.7572,-0.7214,-0.6953,-0.6691,-0.6527,-0.6301,-0.5947,-0.5591,-0.5719,-0.5719,-0.5719,-0.5686,-0.5719,-0.5554,-0.5554,-0.5428,-0.5395,-0.5395,-0.5395,-0.5395,-0.5395,-0.5395,-0.5395,-0.5395,-0.5395,-0.5395,-0.5395,-0.5395,-0.5395,-0.5395,-0.5395,-0.5395,-0.5395,-0.5395,-0.5395,-0.5395,-0.5395,-0.5399,-0.5491,-0.5559,-0.5701,-0.5861,-0.6006,-0.6152,-0.6269,-0.63,-0.63,-0.6374,-0.6606,-0.7138,-0.8118,-0.8874,-0.9884,-1.0634,-1.0901,-1.1168,-1.1589,-1.1818,-1.1818,-1.1966,-1.2003,-1.2003,-1.204,-1.204,-1.204,-1.204,-1.2194,-1.2231,-1.2077,-1.2114,-1.2153,-1.2129,-1.2114,-1.2151,-1.2177,-1.2496,-1.2732,-1.2759,-1.2844,-1.2998,-1.3133,-1.3327,-1.3561,-1.3801,-1.3975,-1.3975,-1.3995,-1.4041,-1.4088,-1.4088,-1.4088,-1.4088,-1.4088,-1.4088,-1.4088,-1.4115,-1.4315,-1.4482,-1.4723,-0.8221,-0.8221,-0.8059,-0.8091,-0.8188,-0.8032,-0.7605,-0.7013,-0.6915,-0.6593,-0.6141,-0.6017,-0.6239,-0.6948,-0.6948,-0.6789,-0.6338,-0.621,-0.598,-0.5653,-0.5815,-0.562,-0.5458,-0.5395,-0.5395,-0.5395,-0.5395,-0.5395,-0.5395,-0.5395,-0.5395,-0.5395,-0.5395,-0.5395,-0.5395,-0.5395,-0.5395,-0.5395,-0.5395,-0.5395,-0.5395,-0.5395,-0.5395,-0.5395,-0.5395,-0.5395,-0.5395,-0.5395,-0.5395,-0.5395,-0.5395,-0.5395,-0.5395,-0.5405,-0.5494,-0.5606,-0.5745,-0.5891,-0.6044,-0.6183,-0.6286,-0.63,-0.63,-0.6296,-0.6412,-0.6451,-0.7134,-0.7326,-0.8271,-0.9286,-0.9707,-0.9895,-1.0201,-1.0201,-1.0201,-1.0645,-1.0907,-1.0981,-1.1056,-1.1056,-1.1056,-1.1397,-1.1892,-1.1626,-1.1093,-1.1104,-1.1179,-1.1202,-1.1333,-1.1656,-1.199,-1.242,-1.2824,-1.3073,-1.3133,-1.3307,-1.348,-1.3626,-1.3808,-1.3948,-1.4041,-1.4062,-1.4088,-1.4088,-1.4088,-1.4088,-1.4088,-1.4088,-1.4088,-1.4088,-1.4088,-1.4155,-1.4376,-1.4656,-1.493]},{"header":{"parameterUnit":"m.s-1","parameterCategory":1,"la1":31.0,"la2":29.5877,"lo1":-88.7671,"lo2":-86.6584,"dy":0.0162,"dx":0.0185,"nx":115,"ny":88,"refTime":"2026-03-24T00:00:00:Z","depth":0,"parameterNumber":3,"parameterNumberName":"V-component_of_WINDS"},"data":[0.0,0.0,0.0,0.0,0.0,0.0,0.0,0.0,0.0,0.0,0.0,0.0,0.0,0.0,0.0,0.0,0.0,0.0,0.0,0.0,0.0,0.0,0.0,0.0,0.0,0.0,0.0,0.0,0.0,0.0,0.0,0.0,0.0,0.0,0.0,0.0,0.0,0.0,0.0,0.0,0.0,0.0,0.0,0.0,0.0,0.0,0.0,0.0,0.0,0.0,0.0,0.0,0.0,0.0,0.0,0.0,0.0,0.0,0.0,0.0,0.0,0.0,0.0,0.0,0.0,0.0,0.0,0.0,0.0,0.0,0.0,0.0,0.0,0.0,0.0,0.0,0.0,0.0,0.0,0.0,0.0,0.0,0.0,0.0,0.0,0.0,0.0,0.0,0.0,0.0,0.0,0.0,0.0,0.0,0.0,0.0,0.0,0.0,0.0,0.0,0.0,0.0,0.0,0.0,0.0,0.0,0.0,0.0,0.0,0.0,0.0,0.0,0.0,0.0,0.0,0.0,0.0,0.0,0.0,0.0,0.0,0.0,0.0,0.0,0.0,0.0,0.0,0.0,0.0,0.0,0.0,0.0,0.0,0.0,0.0,0.0,0.0,0.0,0.0,0.0,0.0,0.0,0.0,0.0,0.0,0.0,0.0,0.0,0.0,0.0,0.0,0.0,0.0,0.0,0.0,0.0,0.0,0.0,0.0,0.0,0.0,0.0,0.0,0.0,0.0,0.0,0.0,0.0,0.0,0.0,0.0,0.0,0.0,0.0,0.0,0.0,0.0,0.0,0.0,0.0,0.0,0.0,0.0,0.0,0.0,0.0,0.0,0.0,0.0,0.0,0.0,0.0,0.0,0.0,0.0,0.0,0.0,0.0,0.0,0.0,0.0,0.0,0.0,0.0,0.0,0.0,0.0,0.0,0.0,0.0,0.0,0.0,0.0,0.0,0.0,0.0,0.0,0.0,0.0,0.0,0.0,0.0,0.0,0.0,0.0,0.0,0.0,0.0,0.0,0.0,0.0,0.0,0.0,0.0,0.0,0.0,0.0,0.0,0.0,0.0,0.0,0.0,0.0,0.0,0.0,0.0,0.0,0.0,0.0,0.0,0.0,0.0,0.0,0.0,0.0,0.0,0.0,0.0,0.0,0.0,0.0,0.0,0.0,0.0,0.0,0.0,0.0,0.0,0.0,0.0,0.0,0.0,0.0,0.0,0.0,0.0,0.0,0.0,0.0,0.0,0.0,0.0,0.0,0.0,0.0,0.0,0.0,0.0,0.0,0.0,0.0,0.0,0.0,0.0,0.0,0.0,0.0,0.0,0.0,0.0,0.0,0.0,0.0,0.0,0.0,0.0,0.0,0.0,0.0,0.0,0.0,0.0,0.0,0.0,0.0,0.0,0.0,0.0,0.0,0.0,0.0,0.0,0.0,0.0,0.0,0.0,0.0,0.0,0.0,0.0,0.0,0.0,0.0,0.0,0.0,0.0,0.0,0.0,0.0,0.0,0.0,0.0,0.0,0.0,0.0,0.0,0.0,0.0,0.0,0.0,0.0,0.0,0.0,0.0,0.0,0.0,0.0,0.0,0.0,0.0,0.0,0.0,0.0,0.0,0.0,0.0,0.0,0.0,0.0,0.0,0.0,0.0,0.0,0.0,0.0,0.0,0.0,0.0,0.0,0.0,0.0,0.0,0.0,0.0,0.0,0.0,0.0,0.0,0.0,0.0,0.0,0.0,0.0,0.0,0.0,0.0,0.0,0.0,0.0,0.0,0.0,0.0,0.0,0.0,0.0,0.0,0.0,0.0,0.0,0.0,0.0,0.0,0.0,0.0,0.0,0.0,0.0,0.0,0.0,0.0,0.0,0.0,0.0,0.0,0.0,0.0,0.0,0.0,0.0,0.0,0.0,0.0,0.0,0.0,0.0,0.0,0.0,0.0,0.0,0.0,0.0,0.0,0.0,0.0,0.0,0.0,0.0,0.0,0.0,0.0,0.0,0.0,0.0,0.0,0.0,0.0,0.0,0.0,0.0,0.0,0.0,0.0,0.0,0.0,0.0,0.0,0.0,0.0,0.0,0.0,0.0,0.0,0.0,0.0,0.0,0.0,0.0,0.0,0.0,0.0,0.0,0.0,0.0,0.0,0.0,0.0,0.0,0.0,0.0,0.0,0.0,0.0,0.0,0.0,0.0,0.0,0.0,0.0,0.0,0.0,0.0,0.0,0.0,0.0,0.0,0.0,0.0,0.0,0.0,0.0,0.0,0.0,0.0,0.0,0.0,0.0,0.0,0.0,0.0,0.0,0.0,0.0,0.0,0.0,0.0,0.0,0.0,0.0,0.0,0.0,0.0,0.0,0.0,0.0,0.0,0.0,0.0,0.0,0.0,0.0,0.0,0.0,0.0,0.0,0.0,0.0,0.0,0.0,0.0,0.0,0.0,0.0,0.0,0.0,0.0,0.0,0.0,0.0,0.0,0.0,0.0,0.0,0.0,0.0,0.0,0.0,0.0,0.0,0.0,0.0,0.0,0.0,0.0,0.0,0.0,0.0,0.0,0.0,0.0,0.0,0.0,0.0,0.0,0.0,0.0,0.0,0.0,0.0,0.0,0.0,0.0,0.0,0.0,0.0,0.0,0.0,0.0,0.0,0.0,0.0,0.0,0.0,0.0,0.0,0.0,0.0,0.0,0.0,0.0,0.0,0.0,0.0,0.0,0.0,0.0,0.0,0.0,0.0,0.0,0.0,0.0,0.0,0.0,0.0,0.0,0.0,0.0,0.0,0.0,0.0,0.0,0.0,0.0,0.0,0.0,0.0,0.0,0.0,0.0,0.0,0.0,0.0,0.0,0.0,0.0,0.0,0.0,0.0,0.0,0.0,0.0,0.0,0.0,0.0,0.0,0.0,0.0,0.0,0.0,0.0,0.0,0.0,0.0,0.0,0.0,0.0,0.0,0.0,0.0,0.0,0.0,0.0,0.0,0.0,0.0,0.0,0.0,0.0,0.0,0.0,0.0,0.0,0.0,0.0,0.0,0.0,0.0,0.0,0.0,0.0,0.0,0.0,0.0,0.0,0.0,0.0,0.0,0.0,0.0,0.0,0.0,0.0,0.0,0.0,0.0,0.0,0.0,0.0,0.0,0.0,0.0,0.0,0.0,0.0,0.0,0.0,0.0,0.0,0.0,0.0,0.0,0.0,0.0,0.0,0.0,0.0,0.0,0.0,0.0,0.0,0.0,0.0,0.0,0.0,0.0,0.0,0.0,0.0,0.0,0.0,0.0,0.0,0.0,0.0,0.0,0.0,0.0,0.0,0.0,0.0,0.0,0.0,0.0,0.0,0.0,0.0,0.0,0.0,0.0,0.0,0.0,0.0,0.0,0.0,0.0,0.0,0.0,0.0,0.0,0.0,0.0,0.0,0.0,0.0,0.0,0.0,0.0,0.0,0.0,0.0,0.0,0.0,0.0,0.0,0.0,0.0,0.0,0.0,0.0,0.0,0.0,0.0,0.0,0.0,0.0,0.0,0.0,0.0,0.0,0.0,0.0,0.0,0.0,0.0,0.0,0.0,0.0,0.0,0.0,0.0,0.0,0.0,0.0,0.0,0.0,0.0,0.0,0.0,0.0,0.0,0.0,0.0,0.0,0.0,0.0,0.0,0.0,0.0,0.0,0.0,0.0,0.0,0.0,0.0,0.0,0.0,0.0,0.0,0.0,0.0,0.0,0.0,0.0,0.0,0.0,0.0,0.0,0.0,0.0,0.0,0.0,0.0,0.0,0.0,0.0,0.0,0.0,0.0,0.0,0.0,0.0,0.0,0.0,0.0,0.0,0.0,0.0,0.0,0.0,0.0,0.0,0.0,0.0,0.0,0.0,0.0,0.0,0.0,0.0,0.0,0.0,0.0,0.0,0.0,0.0,0.0,0.0,0.0,0.0,0.0,0.0,0.0,0.0,0.0,0.0,0.0,0.0,0.0,0.0,0.0,0.0,0.0,0.0,0.0,0.0,0.0,0.0,0.0,0.0,0.0,0.0,0.0,0.0,0.0,0.0,0.0,0.0,0.0,0.0,0.0,0.0,0.0,0.0,0.0,0.0,0.0,0.0,0.0,0.0,0.0,0.0,0.0,0.0,0.0,0.0,0.0,0.0,0.0,0.0,0.0,0.0,0.0,0.0,0.0,0.0,0.0,0.0,0.0,0.0,0.0,0.0,0.0,0.0,0.0,0.0,0.0,0.0,0.0,0.0,0.0,0.0,0.0,0.0,0.0,0.0,0.0,0.3839,0.0,0.0,0.0,0.0,0.0,0.0,0.0,0.0,0.0,0.0,0.0,0.0,0.0,0.0,0.0,0.0,0.0,0.0,0.0,0.0,0.0,0.0,0.0,0.0,0.0,0.0,0.0,0.0,0.0,0.0,0.0,0.0,0.0,0.0,0.0,0.0,0.0,0.0,0.0,0.0,0.0,0.0,0.0,0.0,0.0,0.0,0.0,0.0,0.0,0.0,0.0,0.0,0.0,0.0,0.0,0.0,0.0,0.0,0.0,0.0,0.0,0.0,0.0,0.0,0.0,0.0,0.0,0.0,0.0,0.0,0.0,0.0,0.0,0.0,0.0,0.0,0.0,0.0,0.0,0.0,0.0,0.0,0.0,0.0,0.0,0.0,0.0,0.0,0.0,0.0,0.0,0.0,0.0,0.0,0.0,0.0,0.0,0.0,0.0,0.0,0.0,0.0,0.0,0.0,0.0,0.0,0.0,0.0,0.0,0.0,0.3951,0.3991,0.3951,0.402,0.4303,0.0,0.0,0.0,0.0,0.0,0.0,0.0,0.0,0.0,0.0,0.0,0.0,0.0,0.0,0.0,0.0,0.0,0.0,0.0,0.0,0.0,0.0,0.0,0.0,0.0,0.0,0.0,0.0,0.0,0.0,0.0,0.0,0.0,0.0,0.0,0.0,0.0,0.0,0.0,0.0,0.0,0.0,0.0,0.0,0.0,0.0,0.0,0.0,0.0,0.0,0.0,0.0,0.0,0.0,0.0,0.0,0.0,0.0,0.0,0.0,0.0,0.0,0.0,0.0,0.0,0.0,0.0,0.0,0.0,0.0,0.0,0.0,0.0,0.0,0.0,0.0,0.0,0.0,0.0,0.0,0.0,0.0,0.0,0.0,0.0,0.0,0.0,0.0,0.0,0.0,0.0,0.0,0.0,0.0,0.0,0.0,0.0,0.0,0.0,0.0,0.0,0.0,0.0,0.0,0.0,0.0,0.0,0.0,0.0,0.0,0.0,0.0,0.4138,0.4378,0.4954,0.0,0.0,0.0,0.0,0.0,0.0,0.0,0.0,0.0,0.0,0.0,0.0,0.0,0.0,0.0,0.0,0.0,0.0,0.0,0.0,0.0,0.0,0.0,0.0,0.0,0.0,0.0,0.0,0.0,0.0,0.0,0.0,0.0,0.0,0.0,0.0,0.0,0.0,0.0,0.0,0.0,0.0,0.0,0.0,0.0,0.0,0.0,0.0,0.0,0.0,0.0,0.0,0.0,0.0,0.0,0.0,0.0,0.0,0.0,0.0,0.0,0.0,0.0,0.0,0.0,0.0,0.0,0.0,0.0,0.0,0.0,0.0,0.0,0.0,0.0,0.0,0.0,0.0,0.0,0.0,0.0,0.0,0.0,0.0,0.0,0.0,0.0,0.0,0.0,0.0,0.0,0.0,0.0,0.0,0.0,0.0,0.0,0.0,0.0,0.0,0.0,0.0,0.0,0.0,0.0,0.0,0.0,0.0,0.0,0.0,0.4216,0.4613,0.4518,0.0,0.5702,0.0,0.0,0.0,0.0,0.0,0.0,0.0,0.0,0.0,0.0,0.0,0.0,0.0,0.0,0.0,0.0,0.0,0.0,0.0,0.0,0.0,0.0,0.0,0.0,0.0,0.0,0.0,0.0,0.0,0.0,0.0,0.0,0.0,0.0,0.0,0.0,0.0,0.0,0.0,0.0,0.0,0.0,0.0,0.0,0.0,0.0,0.0,0.0,0.0,0.0,0.0,0.0,0.0,0.0,0.0,0.0,0.0,0.0,0.0,0.0,0.0,0.0,0.0,0.0,0.0,0.0,0.0,0.0,0.0,0.0,0.0,0.0,0.0,0.0,0.0,0.0,0.0,0.0,0.0,0.0,0.0,0.0,0.0,0.0,0.0,0.0,0.0,0.0,0.0,0.0,0.0,0.0,0.0,0.0,0.0,0.0,0.0,0.0,0.0,0.0,0.0,0.0,0.0,0.0,0.0,0.0,0.0,0.0,0.0,0.0,0.444,0.4684,0.5136,0.578,0.0,0.0,0.0,0.0,0.0,0.0,0.0,0.0,0.0,0.0,0.0,0.0,0.0,0.0,0.0,0.0,0.0,0.0,0.0,0.0,0.0,0.0,0.0,0.0,0.0,0.0,0.0,0.0,0.0,0.0,0.0,0.0,0.0,0.0,0.0,0.0,0.0,0.0,0.0,0.0,0.0,0.0,0.0,0.0,0.0,0.0,0.0,0.0,0.0,0.0,0.0,0.0,0.0,0.0,0.0,0.0,0.0,0.0,0.0,0.0,0.0,0.0,0.0,0.0,0.0,0.0,0.0,0.0,0.0,0.0,0.0,0.0,0.0,0.0,0.0,0.0,0.0,0.0,0.0,0.0,0.0,0.0,0.0,0.0,0.0,0.0,0.0,0.0,0.0,0.0,0.0,0.0,0.0,0.0,0.0,0.0,0.0,0.0,0.0,0.0,0.0,0.0,0.0,0.0,0.0,0.0,0.0,0.0,0.0,0.0,0.4378,0.4619,0.4955,0.5864,0.653,0.696,0.0,0.0,0.0,0.0,0.0,0.0,0.0,0.0,0.0,0.0,0.0,0.0,0.0,0.0,0.0,0.0,0.0,0.0,0.0,0.0,0.0,0.0,0.0,0.0,0.0,0.0,0.0,0.0,0.0,0.0,0.0,0.0,0.0,0.0,0.0,0.0,0.0,0.0,0.0,0.0,0.0,0.0,0.0,0.0,0.0,0.0,0.0,0.0,0.0,0.0,0.0,0.0,0.0,0.0,0.0,0.0,0.0,0.0,0.0,0.0,0.0,0.0,0.0,0.0,0.0,0.0,0.0,0.0,0.0,0.0,0.0,0.0,0.0,0.0,0.0,0.0,0.0,0.0,0.0,0.0,0.0,0.0,0.0,0.0,0.0,0.0,0.0,0.0,0.0,0.0,0.0,0.0,0.0,0.0,0.0,0.0,0.0,0.0,0.0,0.0,0.0,0.0,0.0,0.0,0.0,0.0,0.0,0.0,0.444,0.4477,0.4843,0.5554,0.6634,0.7063,0.0,0.0,0.0,0.0,0.0,0.0,0.0,0.0,0.0,0.0,0.0,0.0,0.0,0.0,0.0,0.0,0.0,0.0,0.0,0.0,0.0,0.0,0.0,0.0,0.0,0.0,0.0,0.0,0.0,0.0,0.0,0.0,0.0,0.0,0.0,0.0,0.0,0.0,0.0,0.0,0.0,0.0,0.0,0.0,0.0,0.0,0.0,0.0,0.0,0.0,0.0,0.0,0.0,0.0,0.0,0.0,0.0,0.0,0.0,0.0,0.0,0.0,0.0,0.0,0.0,0.0,0.0,0.0,0.0,0.0,0.0,0.0,0.0,0.0,0.0,0.0,0.0,0.0,0.0,0.0,0.0,0.0,0.0,0.0,0.0,0.0,0.0,0.0,0.0,0.0,0.0,0.0,0.0,0.0,0.0,0.0,0.0,0.0,0.0,0.0,0.0,0.0,0.0,0.0,0.0,0.0,0.0,0.0,0.0,0.4172,0.4365,0.5023,0.606,0.6265,0.6625,0.0,0.0,0.0,0.0,0.0,0.0,0.0,0.0,0.0,0.0,0.0,0.0,0.0,0.0,0.0,0.0,0.0,0.0,0.0,0.0,0.0,0.0,0.0,0.0,0.0,0.0,0.0,0.0,0.0,0.0,0.0,0.0,0.0,0.0,0.0,0.0,0.0,0.0,0.0,0.0,0.0,0.0,0.0,0.0,0.0,0.0,0.0,0.0,0.0,0.0,0.0,0.0,0.0,0.0,0.0,0.0,0.0,0.0,0.0,0.0,0.0,0.0,0.0,0.0,0.0,0.0,0.0,0.0,0.0,0.0,0.0,0.0,0.0,0.0,0.0,0.0,0.0,0.0,0.0,0.0,0.0,0.0,0.0,0.0,0.0,0.0,0.0,0.0,0.0,0.0,0.0,0.0,0.0,0.0,0.0,0.0,0.0,0.0,0.0,0.0,0.0,0.0,0.0,0.0,0.0,0.0,0.0,0.0,0.0,0.4229,0.0,0.5173,0.6258,0.6152,0.6583,0.0,0.0,0.0,0.0,0.0,0.0,0.0,0.0,0.0,0.0,0.0,0.0,0.0,0.0,0.0,0.0,0.0,0.0,0.0,0.0,0.0,0.0,0.0,0.0,0.0,0.0,0.0,0.0,0.0,0.0,0.0,0.0,0.0,0.0,0.0,0.0,0.0,0.0,0.0,0.0,0.0,0.0,0.0,0.0,0.0,0.0,0.0,0.0,0.0,0.0,0.0,0.0,0.0,0.0,0.0,0.0,0.0,0.0,0.0,0.0,0.0,0.0,0.0,0.0,0.0,0.0,0.0,0.0,0.0,0.0,0.0,0.0,0.0,0.0,0.0,0.0,0.0,0.0,0.0,0.0,0.0,0.0,0.0,0.0,0.0,0.0,0.0,0.0,0.0,0.0,0.0,0.0,0.0,0.0,0.0,0.0,0.0,0.0,0.0,0.0,0.0,0.0,0.0,0.0,0.0,0.0,0.0,0.0,0.4094,0.4653,0.4819,0.5357,0.6164,0.6448,0.7018,0.0,0.0,0.0,0.0,0.0,0.0,0.0,0.0,0.0,0.0,0.0,0.0,0.0,0.0,0.0,0.0,0.0,0.0,0.0,0.0,0.0,0.0,0.0,0.0,0.0,0.0,0.0,0.0,0.0,0.0,0.0,0.0,0.0,0.0,0.0,0.0,0.0,0.0,0.0,0.0,0.0,0.0,0.0,0.0,0.0,0.0,0.0,0.0,0.0,0.0,0.0,0.0,0.0,0.0,0.0,0.0,0.0,0.0,0.0,0.0,0.0,0.0,0.0,0.0,0.0,0.0,0.0,0.0,0.0,0.0,0.0,0.0,0.0,0.0,0.0,0.0,0.0,0.0,0.0,0.0,0.0,0.0,0.0,0.0,0.0,0.0,0.0,0.0,0.0,0.0,0.0,0.0,0.0,0.0,0.0,0.0,0.0,0.0,0.0,0.0,0.0,0.0,0.0,0.0,0.0,0.0,0.0,0.0,0.0,0.4559,0.5304,0.5981,0.6648,0.6847,0.7468,0.0,0.0,0.0,0.0,0.0,0.0,0.0,0.0,0.0,0.0,0.0,0.0,0.0,0.0,0.0,0.0,0.0,0.0,0.0,0.0,0.0,0.0,0.0,0.0,0.0,0.0,0.0,0.0,0.0,0.0,0.0,0.0,0.0,0.0,0.0,0.0,0.0,0.0,0.0,0.0,0.0,0.0,0.0,0.0,0.0,0.0,0.0,0.0,0.0,0.0,0.0,0.0,0.0,0.0,0.0,0.0,0.0,0.0,0.0,0.0,0.0,0.0,0.0,0.0,0.0,0.0,0.0,0.0,0.0,0.0,0.0,0.0,0.0,0.0,0.0,0.0,0.0,0.0,0.0,0.0,0.0,0.0,0.0,0.0,0.0,0.0,0.0,0.0,0.0,0.0,0.0,0.0,0.0,0.0,0.0,0.0,0.0,0.0,0.0,0.0,0.0,0.0,0.0,0.0,0.0,0.0,0.0,0.0,0.0,0.5473,0.6082,0.6551,0.6895,0.7594,0.8266,0.8917,0.0,0.0,0.0,0.0,0.0,0.0,0.0,0.0,0.0,0.0,0.0,0.0,0.0,0.0,0.0,0.0,0.0,0.0,0.0,0.0,0.0,0.0,0.0,0.0,0.0,0.0,0.0,0.0,0.0,0.0,0.0,0.0,0.0,0.0,0.0,0.0,0.0,0.0,0.0,0.0,0.0,0.0,0.0,0.0,0.0,0.0,0.0,0.0,0.0,0.0,0.0,0.0,0.0,0.0,0.0,0.0,0.0,0.0,0.0,0.0,0.0,0.0,0.0,0.0,0.0,0.0,0.0,0.0,0.0,0.0,0.0,0.0,0.0,0.0,0.0,0.0,0.0,0.0,0.0,0.0,0.0,0.0,0.0,0.0,0.0,0.0,0.0,0.0,0.0,0.0,0.0,0.0,0.0,0.0,0.0,0.0,0.0,0.0,0.0,0.0,0.0,0.0,0.0,0.0,0.0,0.0,0.0,0.0,0.712,0.7259,0.7272,0.7184,0.8657,0.94,0.0,0.0,0.0,0.0,0.0,0.0,0.0,0.0,0.0,0.0,0.0,0.0,0.0,0.0,0.0,0.0,0.0,0.0,0.0,0.0,0.0,0.0,0.0,0.0,0.0,0.0,0.0,0.0,0.0,0.0,0.0,0.0,0.0,0.0,0.0,0.0,0.0,0.0,0.0,0.0,0.0,0.0,0.0,0.0,0.0,0.0,0.0,0.0,0.0,0.0,0.0,0.0,0.0,0.0,0.0,0.0,0.0,0.0,0.0,0.0,0.0,0.0,0.0,0.0,0.0,0.0,0.0,0.0,0.0,0.0,0.0,0.0,0.0,0.0,0.0,0.0,0.0,0.0,0.0,0.0,0.0,0.0,0.0,0.0,0.0,0.0,0.0,0.0,0.0,0.0,0.0,0.0,0.0,0.0,0.0,0.0,0.0,0.0,0.0,0.0,0.0,0.0,0.0,0.0,0.0,0.0,0.0,0.0,0.0,0.7342,0.9264,1.0101,0.9673,1.0321,1.0577,0.0,0.0,0.0,0.0,0.0,0.0,0.0,0.0,0.0,0.0,0.0,0.0,0.0,0.0,0.0,0.0,0.0,0.0,0.0,0.0,0.0,0.0,0.0,0.0,0.0,0.0,0.0,0.0,0.0,0.0,0.0,0.0,0.0,0.0,0.0,0.0,0.0,0.0,0.0,0.0,0.0,0.0,0.0,0.0,0.0,0.0,0.0,0.0,0.0,0.0,0.0,0.0,0.0,0.0,0.0,0.0,0.0,0.0,0.0,0.0,0.0,0.0,0.0,0.0,0.0,0.0,0.0,0.0,0.0,0.0,0.0,0.0,0.0,0.0,0.0,0.0,0.0,0.0,0.0,0.0,0.0,0.0,0.0,0.0,0.0,0.0,0.0,0.0,0.0,0.0,0.0,0.0,0.0,0.0,0.0,0.0,0.0,0.0,0.0,0.0,0.0,0.0,0.0,0.0,0.0,0.0,0.0,0.0,0.8886,0.8777,1.1135,1.228,1.2115,1.2313,1.1979,0.0,0.0,0.0,0.0,0.0,0.0,0.0,0.0,0.0,0.0,0.0,0.0,0.0,0.0,0.0,0.0,0.0,0.0,0.0,0.0,0.0,0.0,0.0,0.0,0.0,0.0,0.0,0.0,0.0,0.0,0.0,0.0,0.0,0.0,0.0,0.0,0.0,0.0,0.0,0.0,0.0,0.0,0.0,0.0,0.0,0.0,0.0,0.0,0.0,0.0,0.0,0.0,0.0,0.0,0.0,0.0,0.0,0.0,0.0,0.0,0.0,0.0,0.0,0.0,0.0,0.0,0.0,0.0,0.0,0.0,0.0,0.0,0.0,0.0,0.0,0.0,0.0,0.0,0.0,0.0,0.0,0.0,0.0,0.0,0.0,0.0,0.0,0.0,0.0,0.0,0.0,0.0,0.0,0.0,0.0,0.0,0.0,0.0,0.0,0.0,0.0,0.0,0.0,0.0,0.0,0.0,0.0,0.0,1.0315,1.0851,1.2641,1.3807,1.4193,1.4253,1.3332,0.0,0.0,0.0,0.0,0.0,0.0,0.0,0.0,0.0,0.0,0.0,0.0,0.0,0.0,0.0,0.0,0.0,0.0,0.0,0.0,0.0,0.0,0.0,0.0,0.0,0.0,0.0,0.0,0.0,0.0,0.0,0.0,0.0,0.0,0.0,0.0,0.0,0.0,0.0,0.0,0.0,0.0,0.0,0.0,0.0,0.0,0.0,0.0,0.0,0.0,0.0,0.0,0.0,0.0,0.0,0.0,0.0,0.0,0.0,0.0,0.0,0.0,0.0,0.0,0.0,0.0,0.0,0.0,0.0,0.0,0.0,0.0,0.0,0.0,0.0,0.0,0.0,0.0,0.0,0.0,0.0,0.0,0.0,0.0,0.0,0.0,0.0,0.0,0.0,0.0,0.0,0.0,0.0,0.0,0.0,0.0,0.0,0.0,0.0,0.0,0.0,0.0,0.0,0.0,0.0,0.0,0.0,0.0,1.108,1.115,1.2745,1.3896,1.4512,1.4263,1.3639,0.0,0.0,0.0,0.0,0.0,0.0,0.0,0.0,0.0,0.0,0.0,0.0,0.0,0.0,0.0,0.0,0.0,0.0,0.0,0.0,0.0,0.0,0.0,0.0,0.0,0.0,0.0,0.0,0.0,0.0,0.0,0.0,0.0,0.0,0.0,0.0,0.0,0.0,0.0,0.0,0.0,0.0,0.0,0.0,0.0,0.0,0.0,0.0,1.3038,0.0,0.0,0.0,0.0,0.0,0.0,0.0,0.0,0.0,0.0,0.0,0.0,0.0,0.0,0.0,0.0,0.0,0.0,0.0,0.0,0.0,0.0,0.0,0.0,0.0,0.0,0.0,0.0,0.0,0.0,0.0,0.0,0.0,0.0,0.0,0.0,0.0,0.0,0.0,0.0,0.0,0.0,0.0,0.0,0.0,0.0,0.0,0.0,0.0,0.0,0.0,0.0,0.0,0.0,0.0,0.0,0.0,0.0,0.0,1.2501,1.2733,1.423,1.537,1.6008,1.5259,1.4541,0.0,0.0,0.0,0.0,0.0,0.0,0.0,0.0,0.0,0.0,0.0,0.0,0.0,0.0,0.0,0.0,0.0,0.0,0.0,0.0,0.0,0.0,0.0,0.0,0.0,0.0,0.0,0.0,0.0,0.0,0.0,0.0,0.0,0.0,0.0,0.0,0.0,0.0,0.0,0.0,0.0,0.0,0.0,0.0,0.0,0.0,0.0,0.0,0.0,0.0,0.0,0.0,0.0,0.0,0.0,0.0,0.0,0.0,0.0,0.0,0.0,0.0,0.0,0.0,0.0,0.0,0.0,0.0,0.0,0.0,0.0,0.0,0.0,0.0,0.0,0.0,0.0,0.0,0.0,0.0,0.0,0.0,0.0,0.0,0.0,0.0,0.0,0.0,0.0,0.0,0.0,0.0,0.0,0.0,0.0,0.0,0.0,0.0,0.0,0.0,0.0,0.0,0.0,0.0,0.0,0.0,0.0,1.2419,1.3912,1.459,1.593,1.6949,1.7537,1.6435,1.5611,1.5274,0.0,0.0,0.0,0.0,0.0,0.0,0.0,0.0,0.0,0.0,0.0,0.0,0.0,0.0,0.0,0.0,0.0,0.0,0.0,0.0,0.0,0.0,0.0,0.0,0.0,0.0,0.0,0.0,0.0,0.0,0.0,0.0,0.0,0.0,0.0,0.0,0.0,0.0,1.2944,1.3758,0.0,0.0,0.0,0.0,0.0,0.0,0.0,0.0,1.4357,0.0,0.0,0.0,0.0,0.0,0.0,0.0,0.0,0.0,0.0,0.0,0.0,0.0,0.0,0.0,0.0,0.0,0.0,0.0,0.0,0.0,0.0,0.0,0.0,0.0,0.0,0.0,0.0,0.0,0.0,0.0,0.0,0.0,0.0,0.0,0.0,0.0,0.0,0.0,0.0,0.0,0.0,0.0,0.0,0.0,0.0,0.0,0.0,0.0,0.0,0.0,0.0,0.0,0.0,0.0,0.0,1.1916,1.3321,1.4462,1.5381,1.5983,1.656,1.708,1.6593,1.6463,1.6796,0.0,0.0,0.0,0.0,0.0,0.0,0.0,0.0,0.0,0.0,0.0,0.0,0.0,0.0,0.0,0.0,0.0,0.0,0.0,0.0,0.0,0.0,0.0,0.0,0.0,0.0,0.0,0.0,0.0,0.0,0.0,0.0,0.0,0.0,0.0,0.0,0.0,0.0,0.0,1.5699,1.6189,0.0,0.0,0.0,0.0,0.0,0.0,0.0,0.0,1.5915,0.0,0.0,0.0,0.0,0.0,0.0,0.0,0.0,0.0,0.0,0.0,0.0,0.0,0.0,0.0,0.0,0.0,0.0,0.0,0.0,0.0,0.0,0.0,0.0,0.0,0.0,0.0,0.0,0.0,0.0,0.0,0.0,0.0,0.0,0.0,0.0,0.0,0.0,0.0,0.0,0.0,0.0,0.0,0.0,0.0,0.0,0.0,0.0,0.0,0.0,0.0,0.0,0.0,0.0,0.0,1.2187,1.4146,1.5583,1.6404,1.7088,1.7579,1.7816,1.6561,1.6325,0.0,0.0,0.0,0.0,0.0,0.0,0.0,0.0,0.0,0.0,0.0,0.0,0.0,0.0,0.0,0.0,0.0,0.0,0.0,0.0,0.0,0.0,0.0,0.0,0.0,0.0,0.0,0.0,0.0,0.0,0.0,0.0,0.0,0.0,0.0,0.0,0.0,0.0,0.0,0.0,1.5959,1.6597,1.6872,0.0,0.0,0.0,0.0,0.0,0.0,1.6756,1.675,0.0,0.0,0.0,0.0,0.0,0.0,0.0,0.0,0.0,0.0,0.0,0.0,0.0,0.0,0.0,0.0,0.0,0.0,0.0,0.0,0.0,0.0,0.0,0.0,0.0,0.0,0.0,0.0,0.0,0.0,0.0,0.0,0.0,0.0,0.0,0.0,0.0,0.0,0.0,0.0,0.0,0.0,0.0,0.0,0.0,0.0,0.0,0.0,0.0,0.0,0.0,0.0,0.0,0.0,0.0,1.2503,1.4965,1.66,1.7347,1.8363,1.879,1.8582,1.7031,1.6528,0.0,0.0,0.0,0.0,0.0,0.0,0.0,0.0,0.0,0.0,0.0,0.0,0.0,0.0,0.0,0.0,0.0,0.0,0.0,0.0,0.0,0.0,0.0,0.0,0.0,0.0,0.0,0.0,0.0,0.0,0.0,0.0,0.0,0.0,0.0,0.0,0.0,0.0,0.0,0.0,0.0,1.7036,1.7507,1.7522,0.0,0.0,0.0,0.0,1.7428,1.7722,0.0,0.0,0.0,0.0,0.0,0.0,0.0,0.0,0.0,0.0,0.0,0.0,0.0,0.0,0.0,0.0,0.0,0.0,0.0,0.0,0.0,0.0,0.0,0.0,0.0,0.0,0.0,0.0,0.0,0.0,0.0,0.0,0.0,0.0,0.0,0.0,0.0,0.0,0.0,0.0,0.0,0.0,0.0,0.0,0.0,0.0,0.0,0.0,0.0,0.0,0.0,0.0,0.0,0.0,0.0,0.0,1.4091,1.5782,1.7054,1.791,1.9099,1.9357,1.8537,1.877,1.8306,0.0,0.0,0.0,0.0,0.0,0.0,0.0,0.0,0.0,0.0,0.0,0.0,0.0,0.0,0.0,0.0,0.0,0.0,0.0,0.0,0.0,0.0,0.0,0.0,0.0,0.0,0.0,0.0,0.0,0.0,0.0,0.0,0.0,0.0,0.0,0.0,0.0,0.0,0.0,0.0,0.0,1.8205,1.8808,1.843,1.8097,0.0,0.0,1.9299,1.7556,1.914,0.0,0.0,0.0,0.0,0.0,0.0,0.0,0.0,0.0,0.0,0.0,0.0,0.0,0.0,0.0,0.0,0.0,0.0,0.0,0.0,0.0,0.0,0.0,0.0,0.0,0.0,0.0,0.0,0.0,0.0,0.0,0.0,0.0,0.0,0.0,0.0,0.0,0.0,0.0,0.0,0.0,0.0,0.0,0.0,0.0,0.0,0.0,0.0,0.0,0.0,0.0,0.0,0.0,0.0,0.0,1.2289,1.4075,1.6285,1.7858,1.8713,1.9743,1.9944,1.9207,1.8436,1.7685,0.0,0.0,0.0,0.0,0.0,0.0,0.0,0.0,0.0,0.0,0.0,0.0,0.0,0.0,0.0,0.0,0.0,0.0,0.0,0.0,0.0,0.0,0.0,0.0,0.0,0.0,0.0,0.0,0.0,0.0,0.0,0.0,0.0,0.0,0.0,0.0,0.0,0.0,0.0,0.0,0.0,0.0,1.855,1.916,0.0,0.0,0.0,2.0635,1.9508,0.0,0.0,0.0,0.0,0.0,0.0,0.0,0.0,0.0,0.0,0.0,0.0,0.0,0.0,0.0,0.0,0.0,0.0,0.0,0.0,0.0,0.0,0.0,0.0,0.0,0.0,0.0,0.0,0.0,0.0,0.0,0.0,0.0,0.0,0.0,0.0,0.0,0.0,0.0,0.0,0.0,0.0,0.0,0.0,0.0,0.0,0.0,0.0,0.0,0.0,0.0,0.0,0.0,0.0,0.0,0.0,0.0,1.4146,1.6739,1.8443,1.9212,2.0185,2.0347,1.9599,1.8253,0.0,0.0,0.0,0.0,0.0,0.0,0.0,0.0,0.0,0.0,0.0,0.0,0.0,0.0,0.0,0.0,0.0,0.0,0.0,0.0,0.0,0.0,0.0,0.0,0.0,0.0,0.0,0.7187,0.0,0.0,0.0,0.0,0.0,0.0,0.0,0.0,0.0,0.0,0.0,0.0,0.0,0.0,1.835,1.8446,1.9894,2.1003,0.0,0.0,2.1654,2.0779,2.106,2.0726,0.0,0.0,0.0,0.0,0.0,0.0,0.0,0.0,0.0,0.0,0.0,0.0,0.0,0.0,0.0,0.0,0.0,0.0,0.0,0.0,0.0,0.0,0.0,0.0,0.0,0.0,0.0,0.0,0.0,0.0,0.0,0.0,0.0,0.0,0.0,0.0,0.0,0.0,0.0,0.0,0.0,0.0,0.0,0.0,0.0,0.0,0.0,0.0,0.0,0.0,0.0,0.0,0.0,0.0,1.3326,1.5117,1.7196,1.8511,1.8939,2.0257,2.0482,1.9462,1.907,1.8124,0.0,0.0,0.0,0.0,0.0,0.0,0.0,0.0,0.0,0.0,0.0,0.0,0.0,0.0,0.0,0.0,0.0,0.0,0.0,0.0,0.0,0.0,0.0,0.0,0.0,0.0,0.0,0.0,0.0,0.0,0.0,0.0,0.0,0.0,0.0,0.0,0.0,0.0,0.0,0.0,0.0,1.8521,1.9135,2.0614,2.1686,0.0,2.2285,2.2025,2.0246,2.1749,2.2009,1.8762,0.0,0.0,0.0,0.0,0.0,0.0,0.0,0.0,0.0,0.0,0.0,0.0,0.0,0.0,0.0,0.0,0.0,0.0,0.0,0.0,0.0,0.0,0.0,0.0,0.0,0.0,0.0,0.0,0.0,0.0,0.0,0.0,0.0,0.0,0.0,0.0,0.0,0.0,0.0,0.0,0.0,0.0,0.0,0.0,0.0,0.0,0.0,0.0,0.0,0.0,0.0,0.0,0.0,1.3227,1.4842,1.7285,1.8916,1.9686,2.0759,2.0957,2.0219,1.9432,1.8218,0.0,0.0,0.0,0.0,0.0,0.0,0.0,0.0,0.0,0.0,0.0,0.0,0.0,0.0,0.0,0.0,0.0,0.0,0.0,0.0,0.0,0.0,0.0,0.0,0.0,0.0,0.0,0.0,1.0635,1.0916,1.0467,0.0,0.0,0.0,0.0,0.0,0.0,0.0,0.0,0.0,0.0,1.9624,2.022,2.1457,0.0,0.0,2.2801,2.2596,2.2239,2.2239,2.1805,2.0335,1.9373,0.0,0.0,0.0,0.0,0.0,0.0,0.0,0.0,0.0,0.0,0.0,0.0,0.0,0.0,0.0,0.0,0.0,0.0,0.0,0.0,0.0,0.0,0.0,0.0,0.0,0.0,0.0,0.0,0.0,0.0,0.0,0.0,0.0,0.0,0.0,0.0,0.0,0.0,0.0,0.0,0.0,0.0,0.0,0.0,0.0,0.0,0.0,0.0,0.0,0.0,0.0,0.0,1.3292,1.4942,1.749,1.9197,2.0061,2.0853,2.093,2.0188,1.9271,1.8136,0.0,0.0,0.0,0.0,0.0,0.0,0.0,0.0,0.0,0.0,0.0,0.0,0.0,0.0,0.0,0.0,0.0,0.0,0.0,0.0,0.0,0.0,0.0,0.0,0.0,0.0,0.0,0.0,1.1416,1.1327,1.0814,0.0,0.0,0.0,0.0,0.0,0.0,0.0,0.0,0.0,0.0,2.0416,2.0752,2.1993,2.2975,2.3175,2.2863,2.2692,2.3061,2.2369,2.1559,2.0852,0.0,0.0,0.0,0.0,0.0,0.0,0.0,0.0,0.0,0.0,0.0,0.0,0.0,0.0,0.0,0.0,0.0,0.0,0.0,0.0,0.0,0.0,0.0,0.0,0.0,0.0,0.0,1.1702,0.0,0.0,1.1477,0.0,0.0,0.0,0.0,0.0,0.0,0.0,0.0,0.0,0.0,0.0,0.0,0.0,0.0,0.0,0.0,0.0,0.0,0.0,0.0,0.0,0.0,1.3684,1.5754,1.7845,1.9233,1.9772,2.0402,2.0163,1.9095,1.8518,1.7938,1.7271,0.0,0.0,0.0,0.0,0.0,0.0,0.0,0.0,0.0,0.0,0.0,0.0,0.0,0.0,0.0,0.0,0.0,0.0,0.0,0.0,0.0,0.0,0.0,0.0,0.0,0.0,1.1894,1.1034,1.048,0.0,0.0,0.0,0.0,0.0,0.0,0.0,0.0,0.0,0.0,1.9221,2.0733,2.0561,2.2148,2.3161,2.2478,2.2374,2.2294,2.2112,2.2041,2.1416,0.0,0.0,0.0,0.0,0.0,0.0,0.0,0.0,0.0,0.0,0.0,0.0,0.0,0.0,0.0,0.0,0.0,0.0,0.0,0.0,0.0,0.0,0.0,0.0,0.0,0.0,0.0,1.398,1.3297,0.0,0.0,0.0,0.0,0.0,0.0,0.0,0.0,0.0,0.0,0.0,1.5421,1.6307,0.0,0.0,0.0,0.0,0.0,0.0,0.0,0.0,0.0,0.0,0.0,0.0,1.3778,1.5278,1.7024,1.8191,1.8719,1.9297,1.9376,1.8988,1.8767,1.8069,1.6797,0.0,0.0,0.0,0.0,0.0,0.0,0.0,0.0,0.0,0.0,0.0,0.0,0.0,0.0,0.0,0.0,0.0,0.0,0.0,0.0,0.0,0.0,0.0,0.0,0.0,1.2259,0.0,0.0,0.0,0.0,0.0,0.0,0.0,0.0,0.0,0.0,0.0,1.7171,1.8054,2.0148,2.1465,2.109,2.2652,2.3651,0.0,0.0,0.0,0.0,0.0,0.0,0.0,0.0,0.0,0.0,0.0,0.0,0.0,0.0,2.0517,1.7823,1.6799,1.6574,1.7266,0.0,0.0,0.0,0.0,0.0,0.0,0.0,0.0,0.0,0.0,0.0,0.0,0.0,0.0,1.5311,0.0,1.445,0.0,0.0,0.0,0.0,0.0,0.0,0.0,0.0,1.6279,1.7081,1.7569,1.8438,1.8692,0.0,1.7965,1.6196,0.0,0.0,0.0,0.0,0.0,0.0,0.0,0.0,1.4175,1.5501,1.6951,1.7945,1.8482,1.9012,1.9177,1.8986,1.8913,1.8291,1.7047,1.6446,1.574,0.0,0.0,0.0,0.0,0.0,0.0,0.0,0.0,0.0,0.0,0.0,0.0,0.0,0.0,0.0,0.0,0.0,0.0,0.0,0.0,0.0,0.0,0.0,1.2954,0.0,0.0,0.0,0.0,0.0,0.0,0.0,0.0,0.0,1.5606,1.7345,1.8935,1.975,2.1107,2.2008,2.1931,0.0,0.0,0.0,0.0,0.0,0.0,0.0,2.3483,2.372,2.3276,2.3095,2.3757,2.4009,2.4014,2.3781,0.0,0.0,2.0445,1.9688,1.9558,1.9809,2.0043,2.0428,2.1209,2.1888,2.2494,0.0,0.0,0.0,0.0,0.0,0.0,0.0,0.0,1.5869,1.5897,0.0,1.5333,0.0,0.0,0.0,0.0,0.0,1.5756,0.0,0.0,1.8216,1.9056,1.9158,1.9702,2.0057,2.0137,2.002,1.9165,1.7562,1.5825,0.0,0.0,0.0,0.0,0.0,0.0,1.4942,1.6494,1.7588,1.8438,1.8965,1.9479,1.9476,1.8969,1.8938,1.8638,1.8014,1.8381,1.8071,1.6786,1.4903,0.0,0.0,0.0,0.0,0.0,0.0,0.0,0.0,0.0,0.0,0.0,0.0,0.0,0.0,0.0,0.0,0.0,0.0,0.0,0.0,1.3925,0.0,0.0,0.0,0.0,0.0,0.0,0.0,0.0,0.0,0.0,1.8127,1.9254,2.0558,2.1822,0.0,0.0,0.0,0.0,2.3447,2.3885,2.3968,2.4132,2.445,2.4195,2.3951,2.3968,0.0,0.0,2.293,2.3822,2.4391,2.3646,2.4188,2.4434,2.4,2.3504,2.3496,2.412,2.368,2.368,2.4305,2.4306,2.444,1.8404,0.0,0.0,0.0,0.0,1.7677,1.8055,1.808,1.8468,1.8448,1.8114,1.7978,0.0,0.0,0.0,0.0,0.0,0.0,1.7338,1.7788,1.9096,1.9703,1.9781,2.1225,2.1674,2.1269,2.1685,2.141,2.0484,1.9487,1.7113,1.3483,0.0,0.0,0.0,0.0,1.6227,1.7045,1.7753,1.8201,1.8365,1.8893,1.9242,1.9466,1.9457,1.9386,1.9194,1.8872,1.8538,1.8102,1.6293,0.0,0.0,0.0,0.0,0.0,0.0,0.0,0.0,0.0,0.0,0.0,0.0,0.0,0.0,0.0,0.0,0.0,0.0,0.0,1.3874,1.4526,1.4602,0.0,0.0,0.0,0.0,0.0,0.0,0.0,0.0,0.0,2.0922,2.1558,2.2065,0.0,0.0,2.3583,2.2916,2.4017,2.4813,2.4577,2.5313,0.0,2.483,2.4929,2.511,2.5093,2.543,2.5665,2.5564,2.5831,2.5998,2.5761,2.5929,2.6015,2.5882,2.4937,2.4338,2.444,2.4321,2.444,2.5101,2.5287,2.5439,2.0413,1.8994,1.8554,1.8342,1.843,1.9296,1.9673,1.9698,2.0322,2.0269,1.9757,2.0077,1.9255,1.7564,1.7027,0.0,0.0,0.0,1.8204,1.858,1.9766,2.0436,2.0759,2.2075,2.2619,2.2483,2.2625,2.2493,2.2074,2.1156,1.9164,1.6239,0.0,0.0,1.5761,1.6456,1.7088,1.763,1.8145,1.8419,1.8419,1.8949,1.9369,1.9675,1.9453,1.9286,1.9286,1.8655,1.8296,1.8281,1.6952,1.5695,0.0,0.0,0.0,0.0,0.0,0.0,0.0,0.0,0.0,0.0,0.0,1.0124,0.8942,0.0,0.0,0.0,1.2671,1.4453,1.5815,1.6245,0.0,0.0,0.0,0.0,0.0,0.0,0.0,1.9953,2.0619,2.1485,2.297,2.33,2.3434,2.3539,2.3964,2.4211,2.4034,0.0,2.5414,2.5529,2.6202,2.6455,2.568,2.5816,2.6031,2.6031,2.6387,2.6691,2.6708,2.6708,2.6708,2.6708,2.6708,2.6708,2.6708,2.5947,2.5371,2.5371,2.5371,2.554,2.5964,2.6031,2.6167,2.2071,2.1543,2.0501,2.0012,1.9987,2.0578,2.0805,2.0808,2.1524,2.1459,2.0879,2.1547,2.0899,1.9225,1.8715,0.0,1.9165,1.9147,1.9157,1.9207,2.0399,2.121,2.1734,2.2438,2.3031,2.35,2.3026,2.2763,2.2718,2.144,2.0483,1.9839,1.877,1.7946,1.7432,1.7474,1.7744,1.823,1.8708,1.8983,1.8987,1.9442,1.9678,1.9618,1.9031,1.8672,1.8612,1.7983,1.7637,1.7684,1.7025,1.6383,1.5784,0.0,0.0,0.0,0.0,0.0,0.0,0.0,0.0,0.0,0.0,0.0,0.0,0.0,0.0,0.0,1.5907,0.0,1.8442,1.8518,0.0,0.0,0.0,1.764,1.7945,1.9223,2.0403,2.1207,0.0,0.0,2.4321,2.4541,2.4689,2.4926,2.4463,2.4546,2.5696,2.537,2.5445,2.6302,2.6556,2.659,2.6471,2.6573,2.6623,2.6623,2.6708,2.6708,2.6708,2.6708,2.6708,2.6708,2.6708,2.6708,2.6708,2.6623,2.6691,2.6623,2.664,2.6657,2.664,2.664,2.664,2.2832,2.2694,2.2418,2.1829,2.1142,2.1681,2.1681,2.137,2.1929,2.2103,2.1979,2.1758,2.1226,2.0461,2.0265,2.0066,1.9787,2.0188,2.0364,2.0438,2.1659,2.2067,2.1767,2.2846,2.3224,2.2942,2.3229,2.3385,2.331,2.2084,2.138,2.1156,1.996,1.9019,1.8423,1.8882,1.9189,1.9332,1.9457,1.9512,1.9515,1.9621,1.945,1.8957,1.8792,1.8446,1.7968,1.7294,1.7174,1.7654,1.6623,1.5963,1.5784,1.3882,0.0,0.0,0.0,0.0,0.0,0.0,0.0,0.0,0.0,1.3054,1.0629,0.0,1.4675,0.0,1.6875,1.8501,1.9161,1.8981,0.0,0.0,1.9039,1.9243,2.0988,2.1028,2.1211,2.1955,2.2682,2.3477,2.4389,2.4998,2.556,2.6152,2.6101,2.5696,2.4792,2.5285,2.5709,2.5621,2.5601,2.5691,2.6122,2.647,2.6708,2.6708,2.6708,2.6708,2.6708,2.6708,2.6708,2.6708,2.6708,2.6708,2.6708,2.6708,2.6708,2.6708,2.6708,2.6708,2.6708,2.6708,2.6708,2.3632,2.3691,2.3989,2.3782,2.3203,2.2827,2.2673,2.2807,2.3404,2.3531,2.3286,2.2784,2.2556,2.2489,2.1931,2.1485,2.1189,2.0919,2.0968,2.1234,2.1936,2.223,2.217,2.3128,2.329,2.2717,2.3297,2.3465,2.3135,2.2185,2.1695,2.1665,2.0348,1.9528,1.9166,1.9528,1.9723,1.9723,1.9723,1.9723,1.9693,1.9423,1.9228,1.9136,1.8583,1.8338,1.8444,1.7315,1.6954,1.7517,1.6847,1.633,1.6039,1.5101,1.4358,0.0,0.0,0.0,0.0,0.0,0.0,0.0,0.0,0.0,0.0,0.0,1.6298,1.6809,1.8583,1.9855,2.0231,2.0346,2.0658,2.1287,2.0817,2.091,2.2161,2.1938,2.1972,2.2685,2.3139,2.3782,2.4831,2.5338,2.5698,2.6006,2.6228,2.6042,2.525,2.5731,2.6122,2.5652,2.5744,2.5962,2.6279,2.6539,2.6708,2.6708,2.6708,2.6708,2.6708,2.6708,2.6708,2.6708,2.6708,2.6708,2.6708,2.6708,2.6708,2.6708,2.6708,2.6708,2.6708,2.6708,2.6708,2.4358,2.4379,2.5091,2.5398,2.53,2.3959,2.3796,2.4494,2.5119,2.5066,2.4469,2.4105,2.4148,2.4416,2.3229,2.2666,2.2512,2.1345,2.1088,2.1568,2.1758,2.2161,2.2717,2.3334,2.3334,2.2852,2.3355,2.3334,2.2801,2.2061,2.1695,2.1655,2.0352,1.9723,1.9723,1.9723,1.9723,1.9723,1.9723,1.9723,1.9708,1.9191,1.9148,1.9587,1.8567,1.8371,1.9123,1.7777,1.7135,1.7451,1.75,1.7208,1.6567,1.6786,1.6651,0.0,1.5451,0.0,0.0,0.0,0.0,0.0,0.0,0.0,0.0,1.7519,1.8185,1.9118,2.0513,2.1343,2.1343,2.1921,2.2313,2.2313,2.2313,2.2313,2.2313,2.2381,2.2682,2.3325,2.3562,2.4205,2.5372,2.566,2.5631,2.5579,2.589,2.6104,2.6015,2.6193,2.6228,2.5872,2.6279,2.6453,2.6522,2.6641,2.6708,2.6708,2.6708,2.6708,2.6708,2.6708,2.6708,2.6708,2.6708,2.6708,2.6708,2.6708,2.6708,2.6708,2.6708,2.6708,2.6708,2.6708,2.6708,2.4685,2.4379,2.5091,2.5398,2.537,2.5091,2.5063,2.5203,2.5342,2.5066,2.4551,2.4978,2.4683,2.3838,2.3049,2.24,2.1866,2.1126,2.087,2.1004,2.2035,2.2566,2.2754,2.3334,2.353,2.3443,2.353,2.3551,2.3428,2.2247,2.1695,2.1665,2.0367,1.9723,1.9723,0.0,0.0,0.0,1.9723,1.9723,1.9708,1.9895,1.9825,1.9488,1.9531,0.0,1.8233,1.8426,1.833,1.7862,1.8367,0.0,0.0,0.0,0.0,0.0,0.0,0.0,0.0,0.0,0.0,0.0,1.7933,1.7808,1.7579,1.9307,2.055,2.0771,2.1566,2.2076,2.2093,2.2212,2.2313,2.2313,2.2313,2.2313,2.2313,2.2835,2.3241,2.3376,2.4441,2.527,2.5576,2.6116,2.6472,2.6351,2.6505,2.6401,2.6015,2.5744,2.5319,2.4875,2.5635,2.6138,2.6138,2.647,2.6708,2.6708,2.6708,2.6708,2.6708,2.6708,2.6708,2.6708,2.6708,2.6708,2.6708,2.6708,2.6708,2.6708,2.6708,2.6708,2.6708,2.6708,2.6708,2.5079,0.0,2.6027,2.6481,0.0,2.6481,2.6481,2.6455,2.6081,2.5991,2.6015,2.6031,2.5722,2.5075,2.4099,2.3457,2.3103,2.2161,2.188,2.2207,2.2543,2.2838,2.3157,2.345,2.3443,2.3179,2.3465,2.3443,2.3128,2.2179,2.1695,2.168,2.0367,1.9723,1.9723,1.9723,1.9723,1.9723,1.9723,1.9723,1.9711,1.98,1.9679,1.9321,1.9403,0.0,0.0,0.0,0.0,0.0,0.0,0.0,0.0,0.0,0.0,1.7571,1.7918,1.8011,1.7839,1.8814,1.9633,2.0006,2.0378,2.0225,1.9441,2.0833,2.1752,2.1766,2.209,2.2313,2.2313,2.2313,2.2313,2.2313,2.2313,2.2446,2.2801,2.3173,2.3697,2.4408,2.5136,2.5727,2.6116,2.6437,2.6573,2.6401,2.6349,2.6209,2.5744,2.5819,2.5819,2.5582,2.5928,2.6332,2.6349,2.6505,2.6708,2.6708,2.6708,2.6708,2.6708,2.6708,2.6708,2.6708,2.6708,2.6708,2.6708,2.6708,2.6708,2.6708,2.6708,2.6708,2.6708,2.6708,2.6708,2.5578,2.5701,2.706,2.7585,2.7585,2.7585,2.7585,2.7575,0.0,0.0,0.0,2.7031,2.6692,2.6512,2.5333,2.4654,2.4356,2.3227,2.2894,2.3238,2.2875,2.2965,2.3443,2.3551,2.3355,2.2897,2.3377,2.3355,2.2817,2.2067,2.1695,2.1595,2.0367,1.9723,1.9723,1.9723,1.9729,1.9785,1.9818,1.9803,1.9788,1.9786,1.975,1.9623,1.9552,1.9575,1.9695,1.9589,1.9523,1.9591,1.9717,1.9406,1.858,1.9013,1.9232,1.9147,1.9913,2.0352,2.0251,2.1502,2.204,2.1427,2.1955,2.204,2.1427,2.1955,2.2313,2.2313,2.2313,2.2313,2.2313,2.2431,2.2499,2.2499,2.2615,2.2953,2.3511,2.3731,2.4306,2.5372,2.571,2.5998,2.6573,2.6674,2.6573,2.6244,2.6209,2.5962,2.5672,2.607,2.647,2.6556,2.659,2.6674,2.6691,2.6691,2.6708,2.6708,2.6708,2.6708,2.6708,2.6708,2.6708,2.6708,2.6708,2.6708,2.6708,2.6708,2.6708,2.6708,2.6708,2.6708,2.6708,2.6708,2.6708,2.6176,2.6416,2.724,2.7585,2.7585,2.7585,2.7585,2.7585,2.7499,2.7509,2.7585,2.751,2.7136,2.6563,2.5785,2.4878,2.38,2.3068,2.2452,2.1993,2.246,2.2754,2.2867,2.3355,2.3551,2.3486,2.3573,2.3551,2.3352,2.2267,2.1695,2.1545,2.0348,1.9723,1.9723,1.9723,1.9874,2.021,2.0195,2.0212,2.0244,2.0926,2.1283,2.1266,2.1603,2.1527,2.0975,2.1476,2.121,2.0035,2.0584,2.0314,1.8985,2.0132,2.0568,1.9997,2.1181,2.1701,2.1089,2.1837,2.2245,2.2161,2.2243,2.2262,2.2175,2.2245,2.2313,2.2313,2.2313,2.2313,2.233,2.2868,2.3207,2.3274,2.3814,2.4237,2.4355,2.4847,2.5288,2.5625,2.6184,2.6522,2.6657,2.6708,2.6674,2.6607,2.6539,2.6556,2.6385,2.6245,2.6297,2.659,2.6708,2.6708,2.6708,2.6708,2.6708,2.6708,2.6708,2.6708,2.6708,2.6708,2.6708,2.6708,2.6708,2.6708,2.6708,2.6708,2.6708,2.6708,2.6708,2.6708,2.6708,2.6708,2.6708,2.6405,2.6578,2.728,2.7585,2.7585,2.7585,2.7585,2.7585,2.7585,2.7585,2.7585,2.7585,2.7435,2.7096,2.6426,2.5815,2.5212,2.42,2.358,2.3285,2.32,2.3187,2.3209,2.3465,2.3595,2.3595,2.3595,2.3595,2.3505,2.2667,2.2254,2.2164,2.0902,2.0177,2.0032,2.0035,2.0244,2.0665,2.0433,2.0416,2.0698,2.1291,2.1416,2.1021,2.1457,2.1329,2.0602,2.1278,2.1363,2.067,2.138,2.1295,2.0259,2.0818,2.0839,2.0086,2.1075,2.1563,2.1237,2.1887,2.2313,2.2313,2.2313,2.2313,2.2313,2.2313,2.2313,2.2313,2.2313,2.2465,2.2852,2.3207,2.356,2.3966,2.4305,2.466,2.5033,2.5372,2.5761,2.6133,2.6488,2.6691,2.6708,2.6708,2.6708,2.6708,2.6708,2.6708,2.6708,2.6522,2.6453,2.6657,2.6708,2.6708,2.6708,2.6708,2.6708,2.6708,2.6708,2.6708,2.6708,2.6708,2.6708,2.6708,2.6708,2.6708,2.6708,2.6708,2.6708,2.6708,2.6708,2.6708,2.6708,2.6708,2.6708,2.6616,2.68,2.7357,2.7585,2.7585,2.7585,2.7585,2.7585,2.7585,2.7585,2.7585,2.7585,2.7585,2.754,2.7046,2.6761,2.6452,2.5352,2.4754,2.456,2.3902,2.3595,2.3595,2.3595,2.3595,2.3595,2.3595,2.3595,2.3535,2.3002,2.2538,2.2179,2.1283,2.0649,2.0297,2.0416,2.0682,2.1086,2.0765,2.0781,2.1134,2.1553,2.1499,2.0981,2.1264,2.1143,2.0589,2.1109,2.1376,2.1241,2.1752,2.1701,2.1021,2.1106,2.0936,2.042,2.1008,2.1444,2.1478,2.1972,2.2313,2.2313,2.2313,2.2378,2.2516,2.2547,2.2547,2.255,2.2584,2.2868,2.3528,2.3849,2.412,2.4694,2.4914,2.5286,2.5744,2.5862,2.6048,2.6607,2.6708,2.6708,2.6708,2.6708,2.6708,2.6708,2.6708,2.6708,2.6708,2.6708,2.6708,2.6708,2.6708,2.6708,2.6708,2.6708,2.6708,2.6708,2.6708,2.6708,2.6708,2.6708,2.6708,2.6708,2.6708,2.6708,2.6708,2.6708,2.6708,2.6708,2.6708,2.6708,2.6708,2.6708,2.6708,2.6893,2.7458,2.756,2.7585,2.7585,2.7585,2.7585,2.7585,2.7585,2.7585,2.7585,2.7585,2.7585,2.7585,2.751,2.7165,2.6581,2.5854,2.5173,2.4575,2.3909,2.3595,2.3595,2.3595,2.3595,2.3595,2.3595,2.3616,2.3593,2.3059,2.2119,2.106,2.1121,2.0959,2.0443,2.0732,2.115,2.1536,2.1506,2.1522,2.1568,2.2003,2.2206,2.2153,2.2164,2.2175,2.1992,2.2161,2.1887,2.1275,2.1292,2.0957,2.0335,2.0835,2.1173,2.1123,2.1769,2.2178,2.2178,2.2262,2.2313,2.2313,2.2347,2.2632,2.3224,2.3291,2.3308,2.3325,2.3308,2.3613,2.4321,2.4932,2.5304,2.549,2.6015,2.6539,2.6522,2.6606,2.664,2.6674,2.6708,2.6708,2.6708,2.6708,2.6708,2.6708,2.6708,2.6708,2.6708,2.6708,2.6708,2.6708,2.6708,2.6708,2.6708,2.6708,2.6708,2.6708,2.6708,2.6708,2.6708,2.6708,2.6708,2.6708,2.6708,2.6708,2.6708,2.6708,2.6708,2.6708,2.6708,2.6708,2.6708,2.6708,2.6708,2.7331,2.7585,2.7585,2.7585,2.7585,2.7585,2.7585,2.7585,2.7585,2.7585,2.7585,2.7585,2.7585,2.7585,2.7585,2.724,2.6581,2.5899,2.5232,2.4575,2.3924,2.3595,2.3595,2.3595,2.3595,2.3595,2.3595,2.3752,2.4065,2.411,2.332,2.1865,2.2121,2.1925,2.1135,2.1243,2.1568,2.2003,2.2017,2.2017,2.2032,2.2178,2.2313,2.2313,2.2313,2.2313,2.2313,2.2313,2.2144,2.187,2.1867,2.1701,2.1383,2.1684,2.1837,2.1854,2.211,2.2313,2.2313,2.2313,2.2496,2.2919,2.2953,2.3257,2.3951,2.4051,2.422,2.4577,2.4306,2.4355,2.505,2.5406,2.5761,2.6184,2.6539,2.6708,2.6708,2.6708,2.6708,2.6708,2.6708,2.6708,2.6708,2.6708,2.6708,2.6708,2.6708,2.6708,2.6708,2.6708,2.6708,2.6708,2.6708,2.6708,2.6708,2.6708,2.6708,2.6708,2.6708,2.6708,2.6708,2.6708,2.6708,2.6708,2.6708,2.6708,2.6708,2.6708,2.6708,2.6708,2.6708,2.6708,2.6708,2.6708,2.6708,2.7585,2.7585,2.7585,2.7585,2.7585,2.7585,2.7585,2.7585,2.7585,2.7585,2.7585,2.7585,2.7585,2.757,2.7405,2.7061,2.6551,2.5711,2.5068,2.456,2.3924,2.3595,2.3595,2.3595,2.3681,2.3815,2.3815,2.4116,2.4612,2.4992,2.4389,2.3095,2.3303,2.2995,2.2026,2.2016,2.2158,2.2285,2.2313,2.2313,2.2296,2.2313,2.2313,2.2313,2.2313,2.2313,2.2313,2.2313,2.2313,2.2296,2.2313,2.2313,2.2313,2.2313,2.2313,2.2313,2.2313,2.2398,2.2598,2.2584,2.2919,2.3579,2.3712,2.4017,2.4626,2.4812,2.5135,2.5744,2.5389,2.5388,2.5778,2.5896,2.615,2.664,2.6708,2.6708,2.6708,2.6708,2.6708,2.6708,2.6708,2.6708,2.6708,2.6708,2.6708,2.6708,2.6708,2.6708,2.6708,2.6708,2.6708,2.6708,2.6708,2.6708,2.6708,2.6708,2.6708,2.6708,2.6708,2.6708,2.6708,2.6708,2.6708,2.6708,2.6708,2.6708,2.6708,2.6708,2.6708,2.6708,2.6708,2.6708,2.6708,2.6708,2.6708,2.7585,2.7585,2.7585,2.7585,2.7585,2.7585,2.7585,2.7585,2.7585,2.7585,2.7585,2.7585,2.7585,2.751,2.6926,2.6641,2.6393,2.5292,2.4679,2.4485,2.3872,2.3595,2.3595,2.3595,2.3843,2.4282,2.4364,2.4632,2.5109,2.5205,2.4836,2.4166,2.4463,2.4016,2.2909,2.305,2.2958,2.2448,2.233,2.2313,2.2313,2.2313,2.2313,2.2313,2.2313,2.2313,2.2313,2.2313,2.2313,2.2313,2.2313,2.2313,2.2313,2.2313,2.2313,2.2313,2.233,2.2632,2.319,2.3325,2.3678,2.4305,2.4457,2.4778,2.5439,2.5558,2.5845,2.6556,2.6454,2.6488,2.6539,2.6505,2.6573,2.6674,2.6708,2.6708,2.6708,2.6708,2.6708,2.6708,2.6708,2.6708,2.6708,2.6708,2.6708,2.6708,2.6708,2.6708,2.6708,2.6708,2.6708,2.6708,2.6708,2.6708,2.6708,2.6708,2.6708,2.6708,2.6708,2.6708,2.6708,2.6708,2.6708,2.6708,2.6708,2.6708,2.6708,2.6708,2.6708,2.6708,2.6708,2.6708,2.6708,2.6708,2.6708,2.7585,2.7585,2.7585,2.7585,2.7585,2.7585,2.7585,2.7585,2.7585,2.7585,2.7585,2.7585,2.736,2.6926,2.6258,2.5959,2.5914,2.545,2.4784,2.4029,2.3699,2.3595,2.3638,2.3943,2.4199,2.4425,2.4752,2.4992,2.5259,2.5819,2.5601,2.4832,2.5079,2.4827,2.3968,2.3536,2.3257,2.2987,2.255,2.2313,2.2313,2.2313,2.2313,2.2313,2.2313,2.2313,2.2313,2.2313,2.2313,2.2313,2.2313,2.2313,2.2313,2.2313,2.2313,2.2347,2.275,2.3122,2.3424,2.3848,2.4408,2.5101,2.5203,2.5523,2.6116,2.6302,2.642,2.664,2.6708,2.6708,2.6708,2.6708,2.6708,2.6708,2.6708,2.6708,2.6708,2.6708,2.6708,2.6708,2.6708,2.6708,2.6708,2.6708,2.6708,2.6708,2.6708,2.6708,2.6708,2.6708,2.6708,2.6708,2.6708,2.6708,2.6708,2.6708,2.6708,2.6708,2.6708,2.6708,2.6708,2.6708,2.6708,2.6708,2.6708,2.6708,2.6708,2.6708,2.6708,2.6708,2.6708,2.6708,2.6708,2.6708,2.6708,2.7585,2.7585,2.7585,2.7585,2.7585,2.7585,2.7585,2.7585,2.7585,2.7585,2.7585,2.7585,2.7225,2.6626,2.6123,2.5761,2.5515,2.5137,2.4462,2.3676,2.3773,2.3858,2.3927,2.441,2.4752,2.4989,2.5433,2.5691,2.5746,2.6367,2.6219,2.5512,2.5782,2.5592,2.488,2.434,2.3951,2.3427,2.2902,2.2567,2.2364,2.2313,2.2313,2.2313,2.2313,2.2313,2.2313,2.2313,2.2313,2.2313,2.2313,2.2313,2.2313,2.2313,2.2313,2.2381,2.3004,2.3509,2.3814,2.444,2.5185,2.5879,2.5947,2.6201,2.6657,2.6708,2.6708,2.6708,2.6708,2.6708,2.6708,2.6708,2.6708,2.6708,2.6708,2.6708,2.6708,2.6708,2.6708,2.6708,2.6708,2.6708,2.6708,2.6708,2.6708,2.6708,2.6708,2.6708,2.6708,2.6708,2.6708,2.6708,2.6708,2.6708,2.6708,2.6708,2.6708,2.6708,2.6708,2.6708,2.6708,2.6708,2.6708,2.6708,2.6708,2.6708,2.6708,2.6708,2.6708,2.6708,2.6708,2.6708,2.6708,2.6708,2.6759,2.7585,2.7585,2.7585,2.7585,2.7585,2.7585,2.7585,2.7585,2.7585,2.7585,2.7585,2.7555,2.7121,2.6626,2.6375,2.6076,2.5262,2.4468,2.3999,2.3831,2.4266,2.4456,2.445,2.4953,2.5449,2.5924,2.6419,2.6641,2.659,2.6657,2.6624,2.664,2.6556,2.6234,2.5592,2.5406,2.478,2.3765,2.3376,2.2987,2.2398,2.2313,2.2313,2.2313,2.2313,2.2313,2.2313,2.2313,2.2313,2.2313,2.2313,2.2313,2.2313,2.2313,2.2313,2.2482,2.3038,2.3746,2.4491,2.5186,2.5913,2.6437,2.6657,2.6607,2.6657,2.6708,2.6708,2.6708,2.6708,2.6708,2.6708,2.6708,2.6708,2.6708,2.6708,2.6708,2.6708,2.6708,2.6708,2.6708,2.6708,2.6708,2.6708,2.6708,2.6708,2.6708,2.6708,2.6708,2.6708,2.6708,2.6708,2.6708,2.6708,2.6708,2.6708,2.6708,2.6708,2.6708,2.6708,2.6708,2.6708,2.6708,2.6708,2.6708,2.6708,2.6708,2.6708,2.6708,2.6708,2.6708,2.6708,2.6708,2.6725,2.6759,2.6877,2.7585,2.7585,2.7585,2.7585,2.7585,2.7585,2.7585,2.7585,2.7585,2.7585,2.751,2.7121,2.6551,2.5993,2.5826,2.5419,2.4777,2.5159,2.5188,2.4878,2.5385,2.5417,2.513,2.5503,2.6015,2.6419,2.6624,2.6708,2.6708,2.6708,2.6708,2.6708,2.6708,2.659,2.6319,2.5862,2.5084,2.4237,2.3661,2.3038,2.2381,2.2313,2.2313,2.2313,2.2313,2.2313,2.2313,2.2313,2.2313,2.2313,2.2313,2.2313,2.2313,2.2313,2.2547,2.3071,2.3763,2.4491,2.5203,2.593,2.642,2.6657,2.6708,2.6708,2.6708,2.6708,2.6708,2.6708,2.6708,2.6708,2.6708,2.6708,2.6708,2.6708,2.6708,2.6708,2.6708,2.6708,2.6708,2.6708,2.6708,2.6708,2.6708,2.6708,2.6708,2.6708,2.6708,2.6708,2.6708,2.6708,2.6708,2.6708,2.6708,2.6708,2.6708,2.6708,2.6708,2.6708,2.6708,2.6708,2.6708,2.6708,2.6708,2.6708,2.6708,2.6708,2.6708,2.6708,2.6708,2.6708,2.6708,2.6725,2.6742,2.6911,2.7131,2.7585,2.7585,2.7585,2.7585,2.7585,2.7585,2.7585,2.7555,2.733,2.7225,2.7115,2.6738,2.6152,2.5674,2.5629,2.5428,2.5155,2.6131,2.6298,2.5887,2.6305,2.6186,2.5659,2.6033,2.6384,2.6641,2.6708,2.6708,2.6708,2.6708,2.6708,2.6708,2.6708,2.6691,2.6657,2.6234,2.5558,2.4609,2.4306,2.3596,2.2634,2.2581,2.2567,2.2347,2.2313,2.2313,2.2313,2.2313,2.2313,2.2313,2.2313,2.2313,2.2313,2.255,2.2936,2.3444,2.4321,2.5118,2.5625,2.6234,2.6708,2.6708,2.6708,2.6708,2.6708,2.6708,2.6708,2.6708,2.6708,2.6708,2.6708,2.6708,2.6708,2.6708,2.6708,2.6708,2.6708,2.6708,2.6708,2.6708,2.6708,2.6708,2.6708,2.6708,2.6708,2.6708,2.6708,2.6708,2.6708,2.6708,2.6708,2.6708,2.6708,2.6708,2.6708,2.6708,2.6708,2.6708,2.6708,2.6708,2.6708,2.6708,2.6708,2.6708,2.6708,2.6708,2.6708,2.6708,2.6708,2.6708,2.6776,2.6708,2.681,2.7334,2.7587,2.7585,2.7585,2.7585,2.765,2.7685,2.771,2.77,2.7564,2.7082,2.6844,2.6704,2.6504,2.6056,2.5695,2.5912,2.5992,2.6153,2.6755,2.6925,2.6752,2.6925,2.6724,2.6169,2.6436,2.6641,2.6708,2.6708,2.6708,2.6708,2.6708,2.6708,2.6708,2.6708,2.6708,2.6674,2.6674,2.5947,2.4914,2.5203,2.4458,2.2685,2.3004,2.3071,2.2448,2.2347,2.2313,2.2313,2.2313,2.2313,2.2313,2.2381,2.2431,2.2448,2.3021,2.3509,2.3613,2.4831,2.5473,2.5795,2.6319,2.6691,2.6708,2.6708,2.6708,2.6708,2.6708,2.6708,2.6708,2.6708,2.6708,2.6708,2.6708,2.6708,2.6708,2.6708,2.6708,2.6708,2.6708,2.6708,2.6708,2.6708,2.6708,2.6708,2.6708,2.6708,2.6708,2.6708,2.6708,2.6708,2.6708,2.6708,2.6708,2.6708,2.6708,2.6708,2.6708,2.6708,2.6708,2.6708,2.6708,2.6708,2.6708,2.6708,2.6708,2.6708,2.6708,2.6776,2.6826,2.6911,2.7029,2.6962,2.6793,2.7199,2.7909,2.8384,2.7585,2.7585,2.7585,2.786,2.8222,2.8262,2.8186,2.8104,2.7884,2.7371,2.702,2.6488,2.6145,2.6,2.6021,2.6034,2.6265,2.7084,2.7245,2.6877,2.7347,2.7194,2.6639,2.6624,2.6708,2.6708,2.6708,2.6708,2.6708,2.6708,2.6708,2.6708,2.6708,2.6708,2.6708,2.6708,2.6234,2.5456,2.5473,2.5117,2.4081,2.3587,2.3308,2.3122,2.2629,2.2375,2.2327,2.2313,2.2313,2.2347,2.2852,2.2852,2.2527,2.3526,2.4235,2.4403,2.5066,2.5879,2.6319,2.6556,2.6691,2.6708,2.6708,2.6708,2.6708,2.6708,2.6691,2.6708,2.6708,2.6725,2.6725,2.6708,2.6708,2.6708,2.6708,2.6708,2.6708,2.6708,2.6708,2.6708,2.6708,2.6708,2.6708,2.6708,2.6708,2.6708,2.6708,2.6708,2.6708,2.6708,2.6708,2.6708,2.6708,2.6708,2.6708,2.6708,2.6708,2.6708,2.6708,2.6708,2.6708,2.6708,2.6708,2.6708,2.6708,2.6708,2.6945,2.7114,2.7232,2.7334,2.7791,2.7977,2.8451,2.9061,2.9422,2.7769,2.7607,2.8148,2.8543,2.8826,2.8536,2.8363,2.8184,2.7631,2.72,2.6725,2.6324,2.6115,2.6124,2.6249,2.6297,2.6399,2.701,2.7063,2.6843,2.7114,2.7046,2.6759,2.6708,2.6708,2.6708,2.6708,2.6708,2.6708,2.6708,2.6708,2.6708,2.6708,2.6708,2.6708,2.6674,2.6451,2.6018,2.6099,2.5887,2.4994,2.4922,2.4659,2.4282,2.3594,2.3079,2.2773,2.2673,2.2571,2.2513,2.2953,2.3277,2.3195,2.4245,2.5009,2.5198,2.5738,2.6285,2.6573,2.6708,2.6791,2.6891,2.6824,2.6906,2.7083,2.7067,2.6955,2.6971,2.6955,2.6873,2.6725,2.6708,2.6708,2.6708,2.6708,2.6708,2.6708,2.6708,2.6708,2.6708,2.6708,2.6708,2.6708,2.6708,2.6708,2.6708,2.6708,2.6708,2.6708,2.6708,2.6708,2.6708,2.6708,2.6708,2.6708,2.6708,2.6708,2.6708,2.686,2.6826,2.6826,2.681,2.6776,2.6776,2.6725,2.681,2.7131,2.7402,2.7536,2.7874,2.8569,2.9119,2.9465,2.9999,3.0359,2.7911,2.7578,2.8688,2.9221,2.9105,2.8575,2.8255,2.7986,2.7098,2.6482,2.6322,2.6165,2.6148,2.6119,2.6486,2.6674,2.6674,2.6759,2.6742,2.6708,2.6793,2.6725,2.6725,2.6708,2.6708,2.6708,2.6708,2.6708,2.6708,2.6708,2.6741,2.6791,2.6808,2.6841,2.6955,2.6906,2.6675,2.6625,2.6998,2.6833,2.6165,2.6223,2.598,2.5253,2.4305,2.367,2.3264,2.3123,2.298,2.2579,2.3235,2.3818,2.4274,2.5202,2.5869,2.6219,2.6547,2.6854,2.6873,2.6955,2.702,2.7257,2.7051,2.7099,2.7592,2.7532,2.7348,2.7365,2.7348,2.7208,2.702,2.6858,2.6873,2.6923,2.6873,2.6775,2.6758,2.6725,2.6708,2.6708,2.6708,2.6708,2.6708,2.6708,2.6708,2.6708,2.6708,2.6708,2.6708,2.6708,2.6708,2.6708,2.6708,2.6708,2.6708,2.6708,2.6708,2.6725,2.6996,2.708,2.708,2.7046,2.6945,2.6962,2.7351,2.747,2.747,2.7672,2.8098,2.8748,2.9677,2.9868,3.0006,3.0716,3.1237,2.7381,2.7295,2.7545,2.7964,2.8302,2.8196,2.8053,2.7881,2.7584,2.6995,2.6684,2.6555,2.6539,2.6539,2.6641,2.6708,2.6708,2.6708,2.6708,2.6708,2.6708,2.6708,2.6708,2.6708,2.6708,2.6708,2.6708,2.6708,2.6708,2.6741,2.6857,2.7098,2.7178,2.7317,2.7577,2.753,2.7628,2.7571,2.7712,2.7628,2.728,2.6908,2.6463,2.558,2.4324,2.3543,2.3271,2.3189,2.343,2.3982,2.4642,2.5147,2.5482,2.6535,2.7034,2.6919,2.7288,2.7589,2.7636,2.7574,2.7648,2.7707,2.7648,2.7725,2.7826,2.7855,2.7765,2.7768,2.7768,2.7707,2.7562,2.7334,2.7386,2.7494,2.7404,2.7264,2.7149,2.6907,2.6708,2.6708,2.6708,2.6708,2.6708,2.6708,2.6708,2.6708,2.6708,2.6708,2.6708,2.6708,2.6708,2.6708,2.6708,2.6708,2.6759,2.6894,2.7182,2.7351,2.7607,2.7998,2.7998,2.7879,2.7998,2.8083,2.8213,2.8215,2.8116,2.9076,2.9713,3.0283,3.075,3.1094,3.1421,3.1892,3.2042,2.7336,2.7226,2.7791,2.8246,2.8446,2.8113,2.7893,2.7738,2.7401,2.708,2.6776,2.6708,2.6708,2.6708,2.6708,2.6708,2.6708,2.6708,2.6708,2.6708,2.6708,2.6708,2.6708,2.6708,2.6708,2.6708,2.6708,2.6708,2.6725,2.689,2.7099,2.7301,2.7487,2.7666,2.7869,2.7926,2.7964,2.808,2.8125,2.8054,2.7797,2.7487,2.6862,2.6033,2.4926,2.4378,2.4804,2.4432,2.4949,2.5749,2.6339,2.6495,2.6519,2.7326,2.7676,2.771,2.768,2.7894,2.7897,2.7911,2.7954,2.8116,2.801,2.8147,2.8228,2.8268,2.8129,2.8129,2.8129,2.8088,2.7926,2.7751,2.7842,2.8303,2.8297,2.8303,2.8404,2.7563,2.6708,2.6708,2.6708,2.6708,2.6708,2.6775,2.6758,2.6775,2.6758,2.6758,2.6708,2.6708,2.6708,2.6708,2.6708,2.6725,2.6793,2.7131,2.7743,2.8152,2.8664,2.9278,2.9721,2.952,2.9333,2.9231,2.9055,2.8988,2.9093,3.0179,3.094,3.1074,3.1486,3.2282,3.2693,3.2648,3.2798,2.7375,2.7133,2.8205,2.8654,2.8553,2.7908,2.7603,2.7503,2.6979,2.6759,2.6708,2.6708,2.6708,2.6708,2.6708,2.6708,2.6708,2.6708,2.6708,2.6708,2.6708,2.6708,2.6708,2.6791,2.6858,2.6791,2.6824,2.6824,2.6939,2.7178,2.747,2.7545,2.7776,2.8047,2.8079,2.8093,2.8255,2.8476,2.8496,2.839,2.8059,2.7848,2.7299,2.6501,2.5952,2.5732,2.6015,2.5908,2.6196,2.7669,2.7805,2.773,2.7743,2.7854,2.8174,2.8453,2.8277,2.8183,2.8201,2.8174,2.8237,2.8471,2.8264,2.8378,2.8743,2.87,2.854,2.8458,2.842,2.8406,2.8249,2.829,2.8688,2.9208,2.9426,2.9707,2.9804,2.8456,2.7652,2.7096,2.7231,2.7265,2.7058,2.6988,2.6923,2.6857,2.6857,2.6857,2.6841,2.6873,2.6988,2.7068,2.7147,2.7538,2.7641,2.8488,2.8987,2.907,2.967,3.0321,3.0953,3.0648,3.0258,2.9937,2.9747,2.9903,3.0264,3.1125,3.1638,3.173,3.2181,3.2928,3.3196,3.3288,3.3451,2.6843,2.6775,2.7012,2.7097,2.708,2.6928,2.6928,2.686,2.6759,2.6708,2.6708,2.6708,2.6708,2.6708,2.6708,2.6708,2.6708,2.6708,2.6708,2.6725,2.6725,2.6758,2.6808,2.7067,2.7194,2.721,2.7241,2.7239,2.7303,2.7589,2.7876,2.817,2.8272,2.8433,2.8676,2.8803,2.8725,2.8767,2.8748,2.8624,2.8469,2.7952,2.7438,2.673,2.6429,2.6521,2.6602,2.6576,2.6833,2.7669,2.7798,2.8139,2.8473,2.8682,2.8773,2.8803,2.8779,2.8663,2.8688,2.8749,2.8815,2.8875,2.8779,2.8749,2.894,2.8959,2.8894,2.8883,2.876,2.8786,2.9716,2.951,2.9916,3.0534,3.0763,3.0706,3.0711,3.019,2.9267,2.8628,2.8309,2.7885,2.7672,2.7471,2.738,2.7378,2.7394,2.7409,2.7424,2.7502,2.7642,2.7698,2.7722,2.8223,2.8694,2.9847,3.0623,3.0302,3.0661,3.1135,3.1529,3.1379,3.1113,3.1098,3.1247,3.1528,3.1938,3.2238,3.2478,3.2631,3.31,3.3546,3.355,3.3536,3.3611,2.6708,2.6708,2.6708,2.6708,2.6708,2.6708,2.6708,2.6708,2.6708,2.6708,2.6708,2.6708,2.6708,2.6708,2.6708,2.6708,2.6691,2.6708,2.6708,2.6725,2.6889,2.702,2.7051,2.7424,2.756,2.7663,2.7762,2.7747,2.7663,2.7992,2.825,2.8394,2.8577,2.8809,2.8952,2.8964,2.8987,2.895,2.8656,2.8418,2.8345,2.764,2.7145,2.72,2.6924,2.7053,2.7684,2.7365,2.7622,2.8264,2.8448,2.8638,2.8858,2.8987,2.8987,2.8987,2.8987,2.8987,2.8987,2.8987,2.8975,2.8975,2.8987,2.8987,2.8987,2.9012,2.917,2.9465,2.9557,2.9728,3.0687,3.0598,3.1057,3.1712,3.1853,3.1969,3.2142,3.196,3.1225,3.0224,2.94,2.8835,2.8386,2.8159,2.7943,2.7897,2.7926,2.7954,2.7982,2.8134,2.8279,2.8692,2.8863,2.9358,2.9886,3.0829,3.1768,3.1596,3.1607,3.2086,3.2409,3.237,3.2534,3.2665,3.2892,3.2727,3.2789,3.2816,3.3186,3.3451,3.3578,3.3707,3.3766,3.3807,3.3807,2.6708,2.6708,2.6708,2.6708,2.6708,2.6708,2.6708,2.6708,2.6708,2.6708,2.6708,2.6708,2.6708,2.6708,2.6708,2.6691,2.6708,2.6775,2.6874,2.6939,2.7224,2.7426,2.753,2.7765,2.7992,2.8029,2.8316,2.8329,2.8116,2.8373,2.8484,2.8633,2.8875,2.8987,2.8987,2.8987,2.8987,2.8785,2.8418,2.8044,2.7677,2.7402,2.7236,2.7787,2.7299,2.7758,2.862,2.8326,2.8326,2.873,2.8932,2.8968,2.8987,2.8987,2.8987,2.8987,2.8987,2.8987,2.8987,2.8987,2.8987,2.8987,2.8987,2.8987,2.8987,2.906,2.9299,3.0008,3.0179,3.0589,3.1403,3.1629,3.2032,3.2583,3.2858,3.2991,3.3291,3.3227,3.2863,3.1812,3.0611,2.9748,2.9248,2.9026,2.8842,2.8396,2.8404,2.836,2.8427,2.873,2.9031,2.9709,3.0158,3.0607,3.1121,3.1632,3.235,3.2571,3.2672,3.3012,3.3318,3.3552,3.3597,3.3424,3.3277,3.3103,3.3225,3.3317,3.3494,3.3652,3.3766,3.3807,3.3807,3.3807,3.3807,2.6708,2.6708,2.6708,2.6708,2.6708,2.6708,2.6708,2.6708,2.6708,2.6708,2.6708,2.6708,2.6708,2.6725,2.6725,2.6725,2.6808,2.7083,2.7241,2.7303,2.7619,2.7808,2.7865,2.8183,2.8329,2.8394,2.8707,2.867,2.8502,2.8707,2.8887,2.8917,2.8929,2.8987,2.8987,2.8987,2.8987,2.8968,2.8877,2.8491,2.8007,2.8271,2.8253,2.8136,2.8301,2.8638,2.895,2.8767,2.8858,2.8913,2.8987,2.8987,2.8987,2.8987,2.8987,2.8987,2.8987,2.8987,2.8987,2.8987,2.8987,2.8987,2.8987,2.8987,2.9115,2.9189,2.9482,3.0099,3.0301,3.1035,3.2142,3.2436,3.2876,3.3238,3.3495,3.355,3.378,3.3734,3.3442,3.3259,3.2006,3.0894,3.0089,2.9919,2.9728,2.9247,2.8858,2.8858,2.9113,2.9548,3.0008,3.073,3.142,3.1891,3.2077,3.2631,3.2869,3.3305,3.3465,3.3662,3.3734,3.3807,3.3807,3.3657,3.3504,3.3462,3.3536,3.3638,3.3734,3.378,3.3807,3.3807,3.3807,3.3807,3.3807,2.6708,2.6708,2.6708,2.6708,2.6708,2.6708,2.6708,2.6708,2.6708,2.6708,2.6708,2.6708,2.6708,2.6775,2.6906,2.7068,2.7131,2.7454,2.7634,2.7722,2.7992,2.8201,2.8295,2.8558,2.8737,2.8761,2.8875,2.8899,2.8821,2.8863,2.8987,2.8987,2.8987,2.8987,2.8987,2.8987,2.8987,2.8987,2.8913,2.8565,2.8209,2.8491,2.8822,2.8503,2.8822,2.895,2.8987,2.8987,2.8987,2.8987,2.8987,2.8987,2.8987,2.8987,2.8987,2.8987,2.8987,2.8987,2.8987,2.8987,2.8987,2.9005,2.9042,2.9189,2.9519,2.9739,3.0253,3.1463,3.1568,3.2106,3.2944,3.3238,3.344,3.3678,3.3807,3.3807,3.3807,3.3807,3.3707,3.361,3.3408,3.225,3.1154,3.0624,3.0357,2.9905,2.9533,2.9411,3.0039,3.0917,3.1375,3.1895,3.2541,3.3158,3.3186,3.3405,3.3346,3.3606,3.3606,3.3766,3.378,3.3807,3.3807,3.3807,3.3707,3.3707,3.3807,3.3807,3.3793,3.3793,3.3807,3.3807,3.3807,3.3807,3.388,2.6708,2.6708,2.6708,2.6708,2.6708,2.6708,2.6708,2.6708,2.6708,2.6708,2.6741,2.6825,2.6906,2.7035,2.7319,2.7472,2.747,2.7851,2.7992,2.8143,2.836,2.8527,2.8633,2.8863,2.8964,2.8987,2.8964,2.8964,2.8975,2.8987,2.8987,2.8987,2.8987,2.8987,2.8987,2.8987,2.8987,2.8987,2.8987,2.8693,2.8363,2.8693,2.8932,2.8968,2.8987,2.8987,2.8987,2.8987,2.8987,2.8987,2.8987,2.8987,2.8987,2.8987,2.8987,2.8987,2.8987,2.8987,2.8987,2.8987,2.8987,2.906,2.928,2.961,3.0026,3.0338,3.095,3.2307,3.2399,3.2876,3.3568,3.3752,3.3752,3.3752,3.3807,3.3807,3.3807,3.3807,3.3807,3.3733,3.3623,3.3495,3.2439,3.1493,3.0944,3.0522,3.0246,3.0051,3.0821,3.1885,3.2344,3.2724,3.3109,3.3623,3.3678,3.3752,3.3807,3.3807,3.3807,3.3807,3.3807,3.3807,3.3807,3.3807,3.3807,3.3807,3.3807,3.3807,3.3807,3.3807,3.3807,3.3807,3.3807,3.3825,3.388,2.6708,2.6708,2.6708,2.6725,2.6708,2.6708,2.6708,2.6708,2.6708,2.6758,2.6874,2.7083,2.7457,2.771,2.7765,2.7837,2.7883,2.8224,2.8342,2.8502,2.8737,2.8863,2.891,2.894,2.8987,2.8987,2.8987,2.8987,2.8987,2.8987,2.8987,2.8987,2.8987,2.8987,2.8987,2.8987,2.8987,2.8987,2.8987,2.8987,2.8822,2.8932,2.8968,2.8987,2.8987,2.8987,2.8987,2.8987,2.8987,2.8987,2.8987,2.8987,2.8987,2.8987,2.8987,2.8987,2.8987,2.8987,2.8987,2.9005,2.9023,2.9207,2.9647,3.0228,3.0613,3.1054,3.1751,3.2564,3.2821,3.3078,3.3568,3.3807,3.3807,3.3807,3.3807,3.3807,3.3807,3.3807,3.3807,3.3807,3.3733,3.3623,3.3513,3.2522,3.1825,3.1403,3.1292,3.1097,3.161,3.2509,3.2968,3.333,3.355,3.377,3.377,3.3807,3.3807,3.3807,3.3807,3.3807,3.3807,3.3807,3.3807,3.3807,3.3807,3.3807,3.388,3.4027,3.4082,3.388,3.3807,3.3807,3.3917,3.4027,3.4009,2.7441,2.7439,2.7439,2.7162,2.6708,2.6708,2.6708,2.6741,2.6938,2.7225,2.7441,2.7622,2.7754,2.7922,2.8125,2.8192,2.8264,2.8596,2.8707,2.8797,2.8929,2.8975,2.8987,2.8987,2.8987,2.8987,2.8987,2.8987,2.8987,2.8987,2.8987,2.8987,2.8987,2.8987,2.8987,2.8987,2.8987,2.8987,2.8987,2.8987,2.8987,2.8987,2.8987,2.8987,2.8987,2.8987,2.8987,2.8987,2.8987,2.8987,2.8987,2.8987,2.8987,2.8987,2.8987,2.8987,2.8987,2.8987,2.9023,2.906,2.9207,2.9861,3.0467,3.1109,3.1439,3.1971,3.2522,3.3054,3.3293,3.3495,3.3678,3.3807,3.3807,3.3807,3.3807,3.3807,3.3807,3.3807,3.3807,3.3807,3.3807,3.377,3.3678,3.3495,3.2852,3.232,3.2247,3.2265,3.2638,3.2968,3.3366,3.3587,3.3752,3.3807,3.3807,3.3807,3.3807,3.3807,3.3807,3.3807,3.3807,3.3807,3.3807,3.3807,3.3807,3.3807,3.3972,3.4289,3.4325,3.4119,3.3935,3.3807,3.3972,3.4302,3.4431,2.7897,2.7897,2.7897,2.7592,2.7083,2.7051,2.7051,2.7099,2.7365,2.7692,2.8034,2.8047,2.8116,2.8268,2.8451,2.8577,2.8645,2.8821,2.894,2.8975,2.8975,2.8987,2.8987,2.8987,2.8987,2.8987,2.8987,2.8987,2.8987,2.8987,2.8987,2.8987,2.8987,2.8987,2.8987,2.8987,2.8987,2.8987,2.8987,2.8987,2.8987,2.8987,2.8987,2.8987,2.8987,2.8987,2.8987,2.8987,2.8987,2.8987,2.8987,2.8987,2.8987,2.8987,2.8987,2.8987,2.8987,2.8987,2.9042,2.9317,2.9702,3.0503,3.1292,3.1971,3.2454,3.2784,3.3275,3.3587,3.377,3.3807,3.3807,3.3807,3.3807,3.3807,3.3807,3.3807,3.3807,3.3807,3.3807,3.3807,3.3807,3.3807,3.377,3.3697,3.3458,3.3036,3.3036,3.2999,3.3128,3.3403,3.3605,3.3752,3.3788,3.3807,3.3807,3.3807,3.3807,3.3807,3.3807,3.3807,3.3807,3.3807,3.3807,3.3807,3.3807,3.3807,3.4064,3.4417,3.4417,3.4321,3.4394,3.4651,3.4908,3.5275,3.533,2.7926,2.7897,2.794,2.7926,2.7851,2.7855,2.7808,2.7736,2.7851,2.8075,2.8381,2.8394,2.8577,2.8827,2.8863,2.8875,2.8887,2.8952,2.8987,2.8987,2.8987,2.8987,2.8987,2.8987,2.8987,2.8987,2.8987,2.8987,2.8987,2.8987,2.8987,2.8987,2.8987,2.8987,2.8987,2.8987,2.8987,2.8987,2.8987,2.8987,2.8987,2.8987,2.8987,2.8987,2.8987,2.8987,2.9078,2.9078,2.91,2.9149,2.9127,2.9127,2.9127,2.9078,2.9044,2.9044,2.8998,2.9023,2.9133,2.9776,3.0595,3.136,3.2118,3.2638,3.2821,3.3238,3.366,3.3807,3.3807,3.3807,3.3807,3.3807,3.3807,3.3807,3.3807,3.3807,3.3807,3.3807,3.3807,3.3807,3.3807,3.3807,3.3807,3.3807,3.3788,3.3697,3.377,3.3752,3.3642,3.366,3.3788,3.3807,3.3807,3.3807,3.3807,3.3807,3.3807,3.3807,3.3807,3.3807,3.3807,3.3807,3.3807,3.3825,3.4009,3.4192,3.4357,3.4527,3.5059,3.5697,3.5697,3.5899,3.6101,3.6193,3.6229,2.8626,2.8626,2.8626,2.8639,2.8563,2.8106,2.7897,2.7922,2.8143,2.8451,2.8749,2.8815,2.8851,2.8964,2.8987,2.8987,2.8987,2.8987,2.8987,2.8987,2.8987,2.8987,2.8987,2.8987,2.8987,2.8987,2.8987,2.8987,2.8987,2.8987,2.8987,2.8987,2.9033,2.8987,2.8987,2.8987,2.8987,2.8987,2.8987,2.8987,2.8987,2.8998,2.8987,2.8998,2.8998,2.9067,2.9214,2.9243,2.928,2.9377,2.9397,2.9416,2.9387,2.9345,2.9257,2.9203,2.9175,2.9574,3.0393,3.1311,3.1867,3.2388,3.2816,3.3293,3.3476,3.3605,3.377,3.3807,3.3807,3.3807,3.3807,3.3807,3.3807,3.3807,3.3807,3.3807,3.3807,3.3807,3.3807,3.3807,3.3807,3.3807,3.3807,3.3807,3.3807,3.3807,3.3807,3.3807,3.3733,3.3733,3.3807,3.3807,3.3807,3.3807,3.3807,3.3807,3.3807,3.3807,3.3807,3.3807,3.3807,3.3807,3.3899,3.3954,3.4289,3.4619,3.5041,3.5605,3.6688,3.7276,3.7019,3.6688,3.6597,3.6817,3.7088,2.8987,2.8987,2.8987,2.8987,2.8917,2.8482,2.8268,2.8321,2.8515,2.8761,2.8952,2.8987,2.8987,2.8987,2.8987,2.8987,2.8987,2.8987,2.8987,2.8987,2.8987,2.8987,2.8987,2.8987,2.8987,2.8987,2.8987,2.8987,2.8987,2.8987,2.9055,2.9127,2.9127,2.9217,2.9195,2.9152,2.8987,2.8987,2.8987,2.9055,2.9078,2.9089,2.9044,2.9089,2.9112,2.9112,2.931,2.9424,2.9494,2.9643,2.9713,2.9713,2.9661,2.9598,2.9504,2.9425,2.9487,3.0115,3.1325,3.1794,3.2342,3.3167,3.3624,3.3765,3.3807,3.3788,3.3788,3.3807,3.3807,3.3807,3.3807,3.3807,3.3807,3.3807,3.3807,3.3807,3.3807,3.3807,3.3807,3.3807,3.3807,3.3807,3.3807,3.3807,3.3807,3.3807,3.3807,3.3807,3.3807,3.3807,3.3807,3.3807,3.3807,3.3807,3.3807,3.3807,3.3807,3.3807,3.3807,3.3807,3.3807,3.3825,3.3954,3.416,3.4582,3.5133,3.5954,3.6725,3.7459,3.7845,3.7826,3.7496,3.7165,3.7386,3.7768,2.8987,2.8987,2.8987,2.8987,2.8975,2.8929,2.8959,2.8964,2.8964,2.8994,2.8987,2.8987,2.8987,2.8987,2.8987,2.8987,2.8987,2.8987,2.8987,2.8987,2.8987,2.8987,2.8987,2.8987,2.8987,2.8987,2.8987,2.8987,2.8987,2.9078,2.9192,2.9312,2.9373,2.9455,2.9436,2.9316,2.9141,2.9152,2.9163,2.9259,2.9332,2.9225,2.9249,2.9291,2.927,2.9293,2.9435,2.9532,2.9626,2.9713,2.9773,2.9765,2.9739,2.9722,2.9713,2.9706,2.9698,3.0904,3.1777,3.2078,3.2911,3.3815,3.3926,3.3908,3.3807,3.3807,3.3807,3.3807,3.3807,3.3807,3.3807,3.3807,3.3807,3.3807,3.3807,3.3807,3.3807,3.3807,3.3807,3.3807,3.3807,3.3807,3.3807,3.3807,3.3807,3.3807,3.3807,3.3807,3.3807,3.3807,3.3807,3.3807,3.3807,3.3807,3.3807,3.3807,3.3807,3.3807,3.3807,3.3807,3.3807,3.399,3.427,3.4601,3.4986,3.5701,3.6853,3.7459,3.7841,3.8102,3.8248,3.8248,3.7881,3.8083,3.8395,2.8987,2.8987,2.8987,2.8987,2.8987,2.8987,2.8987,2.8987,2.8987,2.8987,2.8987,2.8987,2.8987,2.8987,2.8987,2.8987,2.8987,2.8987,2.8987,2.8998,2.9033,2.8998,2.901,2.9044,2.901,2.901,2.9021,2.9048,2.906,2.9149,2.9299,2.9384,2.9551,2.9652,2.9661,2.9561,2.9523,2.9485,2.9456,2.9514,2.957,2.9504,2.9542,2.9542,2.9514,2.957,2.9703,2.9771,2.9912,3.0114,3.0181,3.0195,3.0182,3.0018,2.9904,2.9892,3.0667,3.1826,3.2289,3.3229,3.4024,3.4344,3.4431,3.4172,3.3998,3.386,3.386,3.382,3.382,3.3807,3.3807,3.3807,3.3807,3.3807,3.3807,3.3807,3.3807,3.3807,3.3807,3.3807,3.3807,3.3807,3.3807,3.3807,3.3807,3.3807,3.3807,3.3807,3.3807,3.3807,3.3807,3.3807,3.3807,3.3807,3.3807,3.3807,3.3807,3.3807,3.3917,3.4045,3.4211,3.4431,3.4711,3.5243,3.594,3.6945,3.8065,3.8377,3.8303,3.8432,3.856,3.8634,3.8707,3.8707,3.8707,2.8987,2.8987,2.8987,2.8987,2.8987,2.8987,2.8987,2.8987,2.8987,2.8987,2.8987,2.8987,2.8987,2.8987,2.8987,2.8987,2.8987,2.9017,2.9062,2.9171,2.9167,2.9249,2.9259,2.9262,2.9314,2.9272,2.9262,2.9345,2.9304,2.9405,2.9551,2.967,2.978,2.9853,2.9943,2.9992,2.9992,2.9896,2.9823,2.9771,2.9782,2.9773,2.9756,2.9815,2.9782,2.9856,2.9996,3.0006,3.0143,3.0355,3.0398,3.0404,3.0373,3.0215,3.0136,3.0243,3.107,3.1954,3.2594,3.3521,3.4292,3.4728,3.4783,3.4526,3.4272,3.4105,3.3967,3.3842,3.3834,3.3807,3.3807,3.3807,3.3807,3.3807,3.3807,3.3807,3.3807,3.3807,3.3807,3.3807,3.3807,3.3807,3.3807,3.3807,3.3807,3.3807,3.3807,3.3807,3.3807,3.3807,3.3807,3.3807,3.3807,3.3807,3.3825,3.3899,3.4064,3.4211,3.4417,3.4546,3.4669,3.511,3.5642,3.6358,3.7129,3.7936,3.8579,3.8634,3.8615,3.8707,3.8707,3.8707,3.8707,3.8707,3.8707,2.8987,2.8987,2.8987,2.8987,2.8987,2.8987,2.9028,2.901,2.9055,2.9028,2.9017,2.8987,2.901,2.9078,2.9089,2.9104,2.9141,2.9163,2.927,2.9414,2.9414,2.9484,2.957,2.9687,2.957,2.9643,2.9661,2.9551,2.9661,2.9722,2.9804,2.9999,3.0021,3.0115,3.0248,3.0286,3.0267,3.0215,3.0037,2.992,2.9973,2.992,2.984,2.9981,2.9916,2.9861,3.0011,3.0102,3.0162,3.0311,3.0404,3.0404,3.0379,3.0373,3.0355,3.0752,3.1443,3.2134,3.2905,3.38,3.4478,3.4833,3.4898,3.4793,3.4634,3.4277,3.4056,3.3928,3.3902,3.3834,3.3807,3.3807,3.3807,3.3807,3.3807,3.3807,3.3807,3.3807,3.3807,3.3807,3.3807,3.3807,3.3807,3.3807,3.3807,3.3807,3.3807,3.3807,3.3807,3.3807,3.3844,3.3844,3.3807,3.3825,3.3899,3.4045,3.438,3.4601,3.4931,3.5243,3.5514,3.6046,3.6652,3.7294,3.79,3.8248,3.8689,3.8707,3.8707,3.8707,3.8707,3.8707,3.8726,3.8781,3.9001,2.8987,2.8987,2.8987,2.8987,2.8987,2.8987,2.9115,2.9299,2.931,2.9192,2.904,2.9021,2.9115,2.9289,2.931,2.9334,2.9475,2.9436,2.9551,2.9616,2.9635,2.9678,2.9722,2.9771,2.9748,2.9705,2.9705,2.9765,2.9799,2.9888,2.9947,3.0028,3.015,3.0323,3.0379,3.0404,3.0379,3.0373,3.0286,3.0162,3.0221,3.028,3.028,3.0292,3.0221,3.0182,3.0267,3.0299,3.0323,3.0404,3.0404,3.0404,3.0404,3.0404,3.0404,3.0654,3.175,3.2526,3.3244,3.4119,3.4973,3.5203,3.527,3.5163,3.4925,3.447,3.4176,3.408,3.3961,3.3895,3.3834,3.3834,3.3807,3.3807,3.3807,3.3807,3.3807,3.3807,3.3807,3.3807,3.3807,3.3807,3.3807,3.3807,3.3807,3.3807,3.3807,3.3807,3.3807,3.3825,3.3935,3.3935,3.3825,3.3844,3.399,3.4339,3.4766,3.5279,3.5683,3.6009,3.6358,3.689,3.7441,3.8028,3.856,3.8689,3.8707,3.8707,3.8707,3.8707,3.8707,3.8707,3.8946,3.9074,3.9386,2.9189,2.92,2.9262,2.9259,2.9222,2.928,2.9387,2.9504,2.9542,2.9455,2.9316,2.9324,2.9405,2.9542,2.9523,2.9579,2.9713,2.9696,2.9738,2.9815,2.9864,2.9935,2.9943,2.9966,3.0037,3.0015,3.0015,3.0037,3.0007,3.0087,3.0196,3.0196,3.0349,3.0404,3.0404,3.0404,3.0404,3.0404,3.0404,3.0404,3.0404,3.0404,3.0404,3.0404,3.0404,3.0404,3.0404,3.0404,3.0404,3.0404,3.0404,3.0404,3.0404,3.0404,3.0635,3.1212,3.2122,3.3064,3.3718,3.4538,3.5442,3.55,3.5481,3.532,3.5281,3.487,3.4576,3.4456,3.4159,3.4031,3.3961,3.3935,3.3842,3.3807,3.3807,3.3807,3.3807,3.3807,3.3807,3.3807,3.3807,3.3807,3.3807,3.3807,3.3807,3.3807,3.3807,3.392,3.3889,3.4191,3.4214,3.4211,3.4229,3.4284,3.4491,3.4876,3.5279,3.5826,3.6431,3.6982,3.7441,3.779,3.823,3.8505,3.867,3.8689,3.8707,3.8707,3.8707,3.8707,3.8707,3.8707,3.9019,3.9423,3.99,2.9434,2.9474,2.9626,2.9598,2.9483,2.9607,2.9713,2.9729,2.9748,2.9746,2.979,2.979,2.9782,2.9729,2.9729,2.9765,2.9815,2.9904,2.9966,3.0025,3.0061,3.0129,3.0241,3.0349,3.0305,3.0305,3.0305,3.0311,3.0305,3.0336,3.0336,3.0398,3.0404,3.0404,3.0404,3.0404,3.0404,3.0404,3.0404,3.0404,3.0404,3.0404,3.0404,3.0404,3.0404,3.0404,3.0404,3.0404,3.0404,3.0404,3.0404,3.0404,3.0404,3.0423,3.0942,3.1525,3.2333,3.3237,3.4064,3.4891,3.5327,3.55,3.55,3.5467,3.5424,3.5281,3.4988,3.4784,3.447,3.4246,3.4183,3.4117,3.4018,3.3959,3.3959,3.3908,3.3895,3.3895,3.3881,3.3881,3.3881,3.3881,3.3847,3.3834,3.3868,3.3855,3.3965,3.4015,3.4207,3.4795,3.5116,3.5046,3.4981,3.5055,3.5169,3.5591,3.6083,3.6615,3.7257,3.7918,3.8395,3.8395,3.845,3.8579,3.8707,3.8707,3.8707,3.8707,3.8707,3.8707,3.8707,3.8781,3.9331,3.979,4.0451,2.9643,2.9643,2.9687,2.9678,2.9652,2.9715,2.9807,2.9931,2.9954,3.0047,3.0182,3.0247,3.0162,2.9947,2.9947,3.0003,3.0142,3.0188,3.0235,3.0317,3.0267,3.0323,3.0373,3.0404,3.0404,3.0404,3.0404,3.0404,3.0404,3.0404,3.0404,3.0404,3.0404,3.0404,3.0404,3.0404,3.0404,3.0404,3.0404,3.0404,3.0404,3.0404,3.0404,3.0404,3.0404,3.0404,3.0404,3.0404,3.0404,3.0404,3.0404,3.0404,3.0404,3.0462,3.0962,3.1795,3.2583,3.341,3.4276,3.5064,3.5423,3.55,3.55,3.5481,3.546,3.5453,3.5262,3.5223,3.4953,3.4656,3.4561,3.4508,3.4439,3.4439,3.4439,3.4284,3.4201,3.4177,3.4153,3.4153,3.4153,3.4062,3.3934,3.4005,3.4141,3.4302,3.4791,3.4865,3.5008,3.5478,3.5964,3.5942,3.5841,3.5917,3.6083,3.656,3.7037,3.7566,3.7936,3.8322,3.8579,3.8634,3.8707,3.8707,3.8707,3.8707,3.8707,3.8707,3.8707,3.8707,3.8707,3.8891,3.9496,4.0267,4.102]}]]